[[{"header":{"parameterUnit":"m.s-1","parameterCategory":1,"la1":30.6,"la2":29.2853,"lo1":-89.7004,"lo2":-87.6739,"dx":0.0162,"dy":0.0183,"nx":112,"ny":82,"refTime":"2022-12-17T18:00:00:Z","depth":0,"parameterNumber":2,"parameterNumberName":"U-component_of_WINDS"},"data":[0.0,0.0,0.0,0.0,0.0,0.0,0.0,0.0,0.0,0.0,0.0,0.0,0.0,0.0,0.0,0.0,0.0,0.0,0.0,0.0,0.0,0.0,0.0,0.0,0.0,0.0,0.0,0.0,0.0,0.0,0.0,0.0,0.0,0.0,0.0,0.0,0.0,0.0,0.0,0.0,0.0,0.0,0.0,0.0,0.0,0.0,0.0,0.0,0.0,0.0,0.0,0.0,0.0,0.0,0.0,0.0,0.0,0.0,0.0,0.0,0.0,0.0,0.0,0.0,0.0,0.0,0.0,0.0,0.0,0.0,0.0,0.0,0.0,0.0,0.0,0.0,0.0,0.0,0.0,0.0,0.0,0.0,0.0,0.0,0.0,0.0,0.0,0.0,0.0,0.0,2.8239,2.9565,3.3995,3.7812,4.0045,4.0386,3.8539,3.4006,0.0,0.0,0.0,0.0,0.0,0.0,0.0,0.0,0.0,0.0,0.0,0.0,0.0,0.0,0.0,0.0,0.0,0.0,0.0,0.0,0.0,0.0,0.0,0.0,0.0,0.0,0.0,0.0,0.0,0.0,0.0,0.0,0.0,0.0,0.0,0.0,0.0,0.0,0.0,0.0,0.0,0.0,0.0,0.0,0.0,0.0,0.0,0.0,0.0,0.0,0.0,0.0,0.0,0.0,0.0,0.0,0.0,0.0,0.0,0.0,0.0,0.0,0.0,0.0,0.0,0.0,0.0,0.0,0.0,0.0,0.0,0.0,0.0,0.0,0.0,0.0,0.0,0.0,0.0,0.0,0.0,0.0,0.0,0.0,0.0,0.0,0.0,0.0,0.0,0.0,0.0,0.0,0.0,0.0,0.0,0.0,0.0,0.0,0.0,0.0,0.0,0.0,0.0,0.0,2.983,3.5339,3.7002,3.816,3.9265,4.0453,3.8594,3.2741,0.0,0.0,0.0,0.0,0.0,0.0,0.0,0.0,0.0,0.0,0.0,0.0,0.0,0.0,0.0,0.0,0.0,0.0,0.0,0.0,0.0,0.0,0.0,0.0,0.0,0.0,0.0,0.0,0.0,0.0,0.0,0.0,0.0,0.0,0.0,0.0,0.0,0.0,0.0,0.0,0.0,0.0,0.0,0.0,0.0,0.0,0.0,0.0,0.0,0.0,0.0,0.0,0.0,0.0,0.0,0.0,0.0,0.0,0.0,0.0,0.0,0.0,0.0,0.0,0.0,0.0,0.0,0.0,0.0,0.0,0.0,0.0,0.0,0.0,0.0,0.0,0.0,0.0,0.0,0.0,0.0,0.0,0.0,0.0,0.0,0.0,0.0,0.0,0.0,0.0,0.0,0.0,0.0,0.0,0.0,0.0,0.0,0.0,0.0,0.0,0.0,0.0,0.0,2.8086,3.085,3.6369,3.7148,3.7895,3.9437,3.9533,3.7588,3.3155,3.0857,0.0,0.0,0.0,0.0,0.0,0.0,0.0,0.0,0.0,0.0,0.0,0.0,0.0,0.0,0.0,0.0,0.0,0.0,0.0,0.0,0.0,0.0,0.0,0.0,0.0,0.0,0.0,0.0,0.0,0.0,0.0,0.0,0.0,0.0,0.0,0.0,0.0,0.0,0.0,0.0,0.0,0.0,0.0,0.0,0.0,0.0,0.0,0.0,0.0,0.0,0.0,0.0,0.0,0.0,0.0,0.0,0.0,0.0,0.0,0.0,0.0,0.0,0.0,0.0,0.0,0.0,0.0,0.0,0.0,0.0,0.0,0.0,0.0,0.0,0.0,0.0,0.0,0.0,0.0,0.0,0.0,0.0,0.0,0.0,0.0,0.0,0.0,0.0,0.0,0.0,0.0,0.0,0.0,0.0,0.0,0.0,0.0,0.0,0.0,0.0,0.0,0.0,3.0371,3.2475,3.6406,3.6823,3.7467,3.9026,3.8464,3.645,3.2999,3.0201,0.0,0.0,0.0,0.0,0.0,0.0,0.0,0.0,0.0,0.0,0.0,0.0,0.0,0.0,0.0,0.0,0.0,0.0,0.0,0.0,0.0,0.0,0.0,0.0,0.0,0.0,0.0,0.0,0.0,0.0,0.0,0.0,0.0,0.0,0.0,0.0,0.0,0.0,0.0,0.0,0.0,0.0,0.0,0.0,0.0,0.0,0.0,0.0,0.0,0.0,0.0,0.0,0.0,0.0,0.0,0.0,0.0,0.0,0.0,0.0,0.0,0.0,0.0,0.0,0.0,0.0,0.0,0.0,0.0,0.0,0.0,0.0,0.0,0.0,0.0,0.0,0.0,0.0,0.0,0.0,0.0,0.0,0.0,0.0,0.0,0.0,0.0,0.0,0.0,0.0,0.0,0.0,0.0,0.0,0.0,0.0,0.0,0.0,0.0,0.0,0.0,0.0,3.2734,3.5587,3.7102,3.7253,3.7198,3.6914,3.7524,3.5817,3.0855,2.9357,0.0,0.0,0.0,0.0,0.0,0.0,0.0,0.0,0.0,0.0,0.0,0.0,0.0,0.0,0.0,0.0,0.0,0.0,0.0,0.0,0.0,0.0,0.0,0.0,0.0,0.0,0.0,0.0,0.0,0.0,0.0,0.0,0.0,0.0,0.0,0.0,0.0,0.0,0.0,0.0,0.0,0.0,0.0,0.0,0.0,0.0,0.0,0.0,0.0,0.0,0.0,0.0,0.0,0.0,0.0,0.0,0.0,0.0,0.0,0.0,0.0,0.0,0.0,0.0,0.0,0.0,0.0,0.0,0.0,0.0,0.0,0.0,0.0,0.0,0.0,0.0,0.0,0.0,0.0,0.0,0.0,0.0,0.0,0.0,0.0,0.0,0.0,0.0,0.0,0.0,0.0,0.0,0.0,0.0,0.0,0.0,0.0,0.0,0.0,0.0,0.0,0.0,3.2422,3.4864,3.6694,3.6901,3.6938,3.7044,3.6623,3.4554,3.0523,0.0,0.0,0.0,0.0,0.0,0.0,0.0,0.0,0.0,0.0,0.0,0.0,0.0,0.0,0.0,0.0,0.0,0.0,0.0,0.0,0.0,0.0,0.0,0.0,0.0,0.0,0.0,0.0,0.0,0.0,0.0,0.0,0.0,0.0,0.0,0.0,0.0,0.0,0.0,0.0,0.0,0.0,0.0,0.0,0.0,0.0,0.0,0.0,0.0,0.0,0.0,0.0,0.0,0.0,0.0,0.0,0.0,0.0,0.0,0.0,0.0,0.0,0.0,0.0,0.0,0.0,0.0,0.0,0.0,0.0,0.0,0.0,0.0,0.0,0.0,0.0,0.0,0.0,0.0,0.0,0.0,0.0,0.0,0.0,0.0,0.0,0.0,0.0,0.0,0.0,0.0,0.0,0.0,0.0,0.0,0.0,0.0,0.0,0.0,0.0,0.0,0.0,2.9907,3.2579,3.4815,3.6371,3.6549,3.6602,3.6924,3.5874,3.3646,3.0032,0.0,0.0,0.0,0.0,0.0,0.0,0.0,0.0,0.0,0.0,0.0,0.0,0.0,0.0,0.0,0.0,0.0,0.0,0.0,0.0,0.0,0.0,0.0,0.0,0.0,0.0,0.0,0.0,0.0,0.0,0.0,0.0,0.0,0.0,0.0,0.0,0.0,0.0,0.0,0.0,0.0,0.0,0.0,0.0,0.0,0.0,0.0,0.0,0.0,0.0,0.0,0.0,0.0,0.0,0.0,0.0,0.0,0.0,0.0,0.0,0.0,0.0,0.0,0.0,0.0,0.0,0.0,0.0,0.0,0.0,0.0,0.0,0.0,0.0,0.0,0.0,0.0,0.0,0.0,0.0,0.0,0.0,0.0,0.0,0.0,0.0,0.0,0.0,0.0,0.0,0.0,0.0,0.0,0.0,0.0,0.0,0.0,0.0,0.0,0.0,0.0,0.0,3.0198,3.3728,3.6119,3.6119,3.6093,3.6138,3.6062,3.531,3.3155,0.0,0.0,0.0,0.0,0.0,0.0,0.0,0.0,0.0,0.0,0.0,0.0,0.0,0.0,0.0,0.0,0.0,0.0,0.0,0.0,0.0,0.0,0.0,0.0,0.0,0.0,0.0,0.0,0.0,0.0,0.0,0.0,0.0,0.0,0.0,0.0,0.0,0.0,0.0,0.0,0.0,0.0,0.0,0.0,0.0,0.0,0.0,0.0,0.0,0.0,0.0,0.0,0.0,0.0,0.0,0.0,0.0,0.0,0.0,0.0,0.0,0.0,0.0,0.0,0.0,0.0,0.0,0.0,0.0,0.0,0.0,0.0,0.0,0.0,0.0,0.0,0.0,0.0,0.0,0.0,0.0,0.0,0.0,0.0,0.0,0.0,0.0,0.0,0.0,0.0,0.0,0.0,0.0,0.0,0.0,0.0,0.0,0.0,0.0,0.0,0.0,0.0,0.0,3.0964,3.4336,3.672,3.7023,3.6755,3.6432,3.6119,3.583,3.3766,2.9279,0.0,0.0,0.0,0.0,0.0,0.0,0.0,0.0,0.0,0.0,0.0,0.0,0.0,0.0,0.0,0.0,0.0,0.0,0.0,0.0,0.0,0.0,0.0,0.0,0.0,0.0,0.0,0.0,0.0,0.0,0.0,0.0,0.0,0.0,0.0,0.0,0.0,0.0,0.0,0.0,0.0,0.0,0.0,0.0,0.0,0.0,0.0,0.0,0.0,0.0,0.0,0.0,0.0,0.0,0.0,0.0,0.0,0.0,0.0,0.0,0.0,0.0,0.0,0.0,0.0,0.0,0.0,0.0,0.0,0.0,0.0,0.0,0.0,0.0,0.0,0.0,0.0,0.0,0.0,0.0,0.0,0.0,0.0,0.0,0.0,0.0,0.0,0.0,0.0,0.0,0.0,0.0,0.0,0.0,0.0,0.0,0.0,0.0,0.0,0.0,0.0,0.0,3.137,3.479,3.711,3.7353,3.7015,3.6713,3.6419,3.6096,3.432,3.054,0.0,0.0,0.0,0.0,0.0,0.0,0.0,0.0,0.0,0.0,0.0,0.0,0.0,0.0,0.0,0.0,0.0,0.0,0.0,0.0,0.0,0.0,0.0,0.0,0.0,0.0,0.0,0.0,0.0,0.0,0.0,0.0,0.0,0.0,0.0,0.0,0.0,0.0,0.0,0.0,0.0,0.0,0.0,0.0,0.0,0.0,0.0,0.0,0.0,0.0,0.0,0.0,0.0,0.0,0.0,0.0,0.0,0.0,0.0,0.0,0.0,0.0,0.0,0.0,0.0,0.0,0.0,0.0,0.0,0.0,0.0,0.0,0.0,0.0,0.0,0.0,0.0,0.0,0.0,0.0,0.0,0.0,0.0,0.0,0.0,0.0,0.0,0.0,0.0,0.0,0.0,0.0,0.0,0.0,0.0,0.0,0.0,0.0,0.0,0.0,0.0,0.0,3.1508,3.4981,3.7448,3.7466,3.7089,3.6849,3.6861,3.6183,3.4808,3.2625,0.0,0.0,0.0,0.0,0.0,0.0,0.0,0.0,0.0,0.0,0.0,0.0,0.0,0.0,0.0,0.0,0.0,0.0,0.0,0.0,0.0,0.0,0.0,0.0,0.0,0.0,0.0,0.0,0.0,0.0,0.0,0.0,0.0,0.0,0.0,0.0,0.0,0.0,0.0,0.0,0.0,0.0,0.0,0.0,0.0,0.0,0.0,0.0,0.0,0.0,0.0,0.0,0.0,0.0,0.0,0.0,0.0,0.0,0.0,0.0,2.8842,2.7281,0.0,0.0,0.0,0.0,0.0,0.0,0.0,0.0,0.0,0.0,0.0,0.0,0.0,0.0,0.0,0.0,0.0,0.0,0.0,0.0,0.0,0.0,0.0,0.0,0.0,0.0,0.0,0.0,0.0,0.0,0.0,0.0,0.0,0.0,0.0,0.0,0.0,0.0,0.0,0.0,3.1612,3.5076,3.7539,3.7851,3.7524,3.7286,3.7301,3.7139,3.6073,3.3922,3.1829,0.0,0.0,0.0,0.0,0.0,0.0,0.0,0.0,0.0,0.0,0.0,0.0,0.0,0.0,0.0,0.0,0.0,0.0,0.0,0.0,0.0,0.0,0.0,0.0,0.0,0.0,0.0,0.0,0.0,0.0,0.0,0.0,0.0,0.0,0.0,0.0,0.0,0.0,0.0,0.0,0.0,0.0,0.0,0.0,0.0,0.0,0.0,0.0,0.0,0.0,0.0,0.0,0.0,0.0,0.0,0.0,0.0,0.0,0.0,3.1039,2.9806,0.0,0.0,0.0,0.0,0.0,0.0,0.0,0.0,0.0,0.0,0.0,0.0,0.0,0.0,0.0,0.0,0.0,0.0,0.0,0.0,0.0,0.0,0.0,0.0,0.0,0.0,0.0,0.0,0.0,0.0,0.0,0.0,0.0,0.0,0.0,0.0,0.0,0.0,0.0,0.0,3.2209,3.5815,3.8365,3.8566,3.8071,3.7704,3.7704,3.7539,3.6879,3.5778,3.344,0.0,0.0,0.0,0.0,0.0,0.0,0.0,0.0,0.0,0.0,0.0,0.0,0.0,0.0,0.0,0.0,0.0,0.0,0.0,0.0,0.0,0.0,0.0,0.0,0.0,0.0,0.0,0.0,0.0,0.0,0.0,0.0,0.0,0.0,0.0,0.0,0.0,0.0,0.0,0.0,0.0,0.0,0.0,0.0,0.0,0.0,0.0,0.0,0.0,0.0,0.0,0.0,0.0,3.3237,3.3447,3.3774,3.4181,3.4419,3.4306,3.252,3.2258,3.3044,3.114,0.0,0.0,0.0,0.0,0.0,0.0,0.0,0.0,0.0,0.0,0.0,0.0,0.0,0.0,0.0,0.0,0.0,0.0,0.0,0.0,0.0,0.0,2.7487,2.5822,2.6722,2.7974,2.8015,0.0,0.0,0.0,0.0,0.0,0.0,0.0,0.0,0.0,0.0,0.0,3.3366,3.6957,3.9336,3.9336,3.8731,3.831,3.8236,3.7924,3.7704,3.7649,3.4935,3.3028,0.0,0.0,0.0,0.0,0.0,0.0,0.0,0.0,0.0,0.0,0.0,0.0,0.0,0.0,0.0,0.0,0.0,0.0,0.0,0.0,0.0,0.0,0.0,0.0,0.0,0.0,0.0,0.0,0.0,0.0,0.0,0.0,2.4687,2.5897,0.0,0.0,0.0,0.0,0.0,0.0,0.0,0.0,0.0,0.0,0.0,0.0,0.0,3.034,2.958,3.046,3.1743,3.3416,3.4533,3.4959,3.4623,3.508,3.4243,3.253,3.2239,0.0,3.3991,3.2951,0.0,0.0,0.0,0.0,0.0,0.0,0.0,0.0,0.0,0.0,0.0,0.0,0.0,0.0,0.0,0.0,0.0,0.0,0.0,0.0,0.0,0.0,2.856,2.6955,2.8377,2.9998,2.9913,2.7458,2.5229,2.5092,2.5422,2.5384,0.0,0.0,0.0,0.0,0.0,0.0,3.5466,3.8168,3.984,3.984,3.9748,3.9447,3.9098,3.9025,3.8841,3.8432,3.7099,3.5467,3.3651,3.1799,0.0,0.0,0.0,0.0,0.0,0.0,0.0,0.0,0.0,0.0,0.0,0.0,0.0,0.0,0.0,0.0,0.0,0.0,0.0,0.0,0.0,0.0,0.0,0.0,0.0,0.0,0.0,0.0,0.0,2.5292,2.65,2.7554,2.7176,2.729,0.0,0.0,0.0,0.0,0.0,0.0,0.0,0.0,0.0,3.0579,3.0778,3.086,3.0878,3.1347,3.2055,3.2965,3.3525,3.3852,3.3854,3.4294,3.3839,3.271,3.2899,3.324,3.3483,3.2098,3.1461,3.1043,0.0,0.0,0.0,0.0,2.708,2.7026,2.6638,2.6387,2.6165,2.5461,0.0,0.0,0.0,0.0,0.0,0.0,0.0,2.6786,2.6865,2.7635,2.8289,2.7906,2.8479,2.9271,2.9494,2.8462,2.7483,2.7656,2.7915,2.7425,2.5177,2.5092,0.0,0.0,0.0,3.2167,3.3999,3.6955,3.8887,3.8887,3.9231,3.9428,3.9245,3.9025,3.8823,3.8579,3.7924,3.7007,3.5889,3.2489,3.0001,0.0,0.0,0.0,0.0,0.0,0.0,0.0,0.0,0.0,0.0,0.0,0.0,0.0,0.0,0.0,0.0,0.0,0.0,0.0,0.0,0.0,0.0,0.0,0.0,0.0,0.0,0.0,0.0,2.5811,2.7396,2.9244,2.8144,2.7912,0.0,0.0,0.0,0.0,0.0,0.0,2.9473,2.9977,3.0367,3.0717,3.0841,3.1024,3.1295,3.1386,3.1716,3.2371,3.2541,3.268,3.2788,3.3298,3.2999,3.2055,3.2456,3.2663,3.2664,3.1511,3.1522,3.187,2.9733,2.847,2.794,2.816,2.8197,2.8129,2.7765,2.7707,2.753,2.6771,2.6574,2.656,2.6368,0.0,0.0,0.0,0.0,2.7909,2.8076,2.8199,2.8365,2.8767,2.8764,2.8818,2.9179,2.9576,2.9896,2.9715,2.9944,2.9258,2.6613,2.6366,0.0,2.7871,3.0024,3.2056,3.3448,3.5955,3.7665,3.7665,3.8044,3.8283,3.8194,3.7654,3.7337,3.7392,3.6835,3.635,3.6068,3.244,3.056,3.0748,0.0,0.0,0.0,0.0,0.0,0.0,0.0,0.0,0.0,0.0,0.0,0.0,0.0,0.0,0.0,0.0,0.0,0.0,0.0,0.0,0.0,0.0,0.0,0.0,0.0,0.0,0.0,0.0,0.0,3.0674,2.8696,0.0,0.0,0.0,0.0,2.9312,3.029,3.1001,3.1141,3.1886,3.1724,3.0642,3.0894,3.0325,2.8794,2.9063,3.0063,3.1766,3.2368,3.2353,3.181,3.2734,3.1692,2.9265,2.9562,3.0469,3.1822,3.2613,3.2361,3.1371,3.123,3.0359,2.9225,2.8905,2.8784,2.869,2.8276,2.8171,2.8077,2.7485,2.7227,2.7402,2.8359,2.8608,0.0,0.0,2.9071,2.9062,2.8992,2.9186,2.9413,2.9419,2.9847,3.0181,2.9927,3.0562,3.0793,2.9683,2.9953,3.0055,2.8949,0.0,3.0267,3.161,3.2239,3.3463,3.5937,3.6342,3.6479,3.6479,3.6218,3.5939,3.5533,3.4609,3.4071,3.4071,3.2978,3.2357,3.2342,3.176,3.0192,2.7488,2.6528,0.0,0.0,0.0,0.0,0.0,0.0,0.0,0.0,0.0,0.0,0.0,0.0,0.0,0.0,0.0,0.0,0.0,0.0,0.0,0.0,0.0,0.0,0.0,0.0,0.0,0.0,0.0,0.0,2.9845,2.8654,0.0,2.9825,2.94,2.9244,2.9799,2.9821,2.9941,3.0382,3.0624,3.0592,3.0134,3.045,3.0254,2.9446,2.9927,3.0529,3.1146,3.1546,3.1739,3.1725,3.2043,3.1549,3.0448,3.0555,3.0799,3.1118,3.1521,3.1613,3.1473,3.0306,2.9522,2.9117,2.895,2.8906,2.8876,2.8775,2.8724,2.8711,2.8698,2.8744,2.8824,2.933,2.952,2.9537,2.958,2.9658,2.9708,2.9815,2.9833,2.986,3.0234,3.0341,3.0381,3.0461,3.0812,3.1099,3.0673,3.0547,3.0295,2.9445,2.9843,3.0382,3.0898,3.1396,3.2104,3.3258,3.4003,3.4498,3.4787,3.4991,3.4978,3.4869,3.4143,3.3522,3.3214,3.28,3.2486,3.2272,3.0636,2.9807,2.9907,2.7417,2.5198,0.0,0.0,0.0,0.0,0.0,0.0,0.0,0.0,0.0,0.0,0.0,0.0,0.0,0.0,0.0,0.0,0.0,0.0,0.0,0.0,0.0,0.0,0.0,0.0,0.0,2.7173,2.8131,3.008,2.9135,2.8826,3.0223,2.9639,2.949,3.0213,2.9831,2.9793,3.0194,3.0301,3.0354,3.0354,3.0648,3.0662,3.0354,3.0849,3.1089,3.1089,3.1383,3.157,3.1677,3.177,3.1597,3.1223,3.1223,3.1062,3.0795,3.0795,3.104,3.1271,3.0063,2.9633,2.9633,2.9633,2.9633,2.9633,2.9633,2.9633,2.9659,2.986,2.9927,2.9953,3.0154,3.0207,3.0207,3.0207,3.0207,3.0287,3.0581,3.041,3.0227,3.0809,3.0716,3.0477,3.0752,3.0962,3.1107,3.1107,3.109,3.0881,3.0288,3.0546,3.0667,3.0253,3.0731,3.1021,3.0809,3.1676,3.2305,3.2501,3.2727,3.2761,3.2659,3.1668,3.1032,3.1138,3.065,3.0351,3.051,2.8673,2.8126,2.9115,2.6614,2.4754,2.3818,0.0,0.0,0.0,0.0,0.0,0.0,0.0,0.0,0.0,0.0,0.0,0.0,0.0,0.0,0.0,0.0,0.0,0.0,0.0,0.0,0.0,0.0,0.0,2.8746,2.8033,2.8437,3.1458,3.0213,2.9617,3.1061,3.0447,3.006,3.0381,3.0662,3.0835,3.0849,3.1116,3.1276,3.1276,3.157,3.1583,3.1289,3.1597,3.173,3.173,3.2024,3.2024,3.1744,3.2038,3.1864,3.1303,3.1289,3.1116,3.0849,3.0835,3.0822,3.0822,3.0808,3.0808,3.0808,3.0822,3.0822,3.0822,3.0822,3.0822,3.0822,3.0835,3.0835,3.0743,3.0849,3.0756,3.0756,3.0756,3.0756,3.0823,3.1102,3.0807,3.0561,3.112,3.0863,3.0552,3.0818,3.0882,3.0882,3.0882,3.132,3.169,3.169,3.169,3.1316,3.0077,3.0504,0.0,2.9313,2.9653,3.0026,2.9721,2.9428,2.9148,2.8881,2.7101,2.6508,2.7902,2.6373,2.5903,2.6884,2.592,2.5276,2.4857,2.4041,2.3442,2.3171,0.0,0.0,0.0,0.0,0.0,0.0,0.0,0.0,0.0,0.0,0.0,0.0,0.0,0.0,0.0,0.0,0.0,0.0,0.0,0.0,0.0,2.7269,2.8124,2.8365,2.8439,2.8978,3.0337,2.979,2.9662,3.0534,3.0447,3.0541,3.1249,3.1383,3.161,3.2038,3.2332,3.2492,3.2492,3.2786,3.2893,3.2812,3.312,3.316,3.2933,3.3467,3.3561,3.328,3.3574,3.3507,3.3133,3.2692,3.2332,3.2024,3.1597,3.1423,3.141,3.1196,3.1102,3.1129,3.1356,3.1235,3.087,3.0398,3.0303,3.0329,3.0535,3.0599,3.0638,3.0844,3.0908,3.0908,3.0908,3.0908,3.0921,3.0999,3.083,3.0772,3.0925,3.0865,3.0793,3.0869,3.0882,3.0882,3.0882,3.1048,3.114,3.114,3.114,3.1037,3.0728,3.0754,3.0733,3.0427,3.0081,2.9816,2.9582,2.8769,2.827,2.8296,2.7332,2.7033,2.75,2.6961,2.6604,2.6698,2.6433,2.6055,2.5568,2.4356,2.393,0.0,0.0,0.0,0.0,0.0,0.0,0.0,0.0,0.0,0.0,0.0,0.0,0.0,0.0,0.0,0.0,0.0,0.0,0.0,0.0,0.0,0.0,2.8681,2.9467,2.9454,2.9614,2.986,3.0074,3.0274,3.0488,3.0702,3.0942,3.1303,3.181,3.1971,3.2238,3.2706,3.2893,3.3026,3.316,3.332,3.348,3.3614,3.3801,3.3855,3.3801,3.4148,3.4229,3.4068,3.4122,3.4042,3.3855,3.3374,3.3,3.2706,3.2164,3.1855,3.171,0.0,0.0,0.0,0.0,3.1461,3.1172,3.0593,3.0413,3.0425,3.059,3.0641,3.0679,3.0831,3.0882,3.0907,3.1021,3.1059,3.111,3.1338,3.1302,3.1139,3.1252,3.1076,3.0976,3.0976,3.0976,3.0976,3.0976,3.0976,0.0,3.0976,3.0888,3.0729,3.026,3.0395,3.0424,2.9959,2.9772,2.9576,2.9294,2.8743,2.8272,2.8128,2.7384,0.0,0.0,0.0,2.6589,2.6321,2.6309,0.0,0.0,0.0,2.4665,2.5312,2.4456,0.0,0.0,2.3534,2.327,0.0,0.0,0.0,0.0,0.0,0.0,0.0,0.0,0.0,0.0,0.0,0.0,0.0,0.0,0.0,0.0,3.0167,3.1276,3.1276,3.1089,3.0862,3.0635,3.1236,3.161,3.1436,3.1864,3.2171,3.2198,3.2452,3.2732,3.3066,3.3106,0.0,0.0,0.0,3.3721,3.4028,3.4002,3.4122,3.4376,3.4402,3.4402,3.4362,3.4135,3.4042,3.4015,3.3527,3.322,3.2967,3.228,3.1887,3.1614,3.1627,3.1806,3.1988,3.1764,3.1659,3.156,3.097,0.0,0.0,3.0786,3.0786,3.0786,3.0786,3.0786,3.0836,3.1076,3.1164,3.1302,3.1895,3.1638,3.1417,3.1652,3.131,3.0998,3.0998,3.0998,3.0998,3.0998,3.0998,3.0998,3.0998,3.0923,3.0547,2.9564,2.9869,2.9934,2.8864,2.914,2.9344,2.8958,2.8971,0.0,2.8208,2.7328,2.7096,2.7787,2.6982,2.6376,2.6142,2.613,2.5774,2.5108,2.5283,2.558,2.5965,2.6194,2.6291,2.617,2.4616,2.4061,0.0,0.0,0.0,0.0,0.0,0.0,0.0,0.0,0.0,0.0,0.0,0.0,0.0,0.0,0.0,2.9593,3.0742,3.1583,3.1583,3.173,3.1917,3.2201,3.1851,3.1917,3.2572,3.2532,3.2559,3.2786,3.2866,3.3133,3.3681,3.3935,3.4189,3.4482,3.4496,3.4643,3.4937,3.471,3.4616,3.4683,3.491,0.0,3.4683,3.4857,3.4937,3.4897,3.3699,3.3127,3.3022,3.1634,3.1129,3.1091,3.1304,3.1621,3.1777,3.134,3.1152,3.1051,3.0561,3.0359,3.0359,3.0359,3.0359,3.0359,3.0359,3.0359,0.0,3.042,3.0591,3.0774,3.0883,3.0963,3.1145,3.1194,3.1102,3.0998,3.0998,3.0998,3.0998,3.0998,3.0998,3.0998,3.0998,3.1036,3.0932,3.0725,3.0769,3.0715,3.0509,3.0189,2.9722,2.8965,2.845,2.8057,2.7738,2.7349,2.7353,2.8065,2.7784,2.7493,2.7445,2.7445,2.7275,2.69,2.7154,2.7063,2.6798,2.6846,2.6761,2.6532,2.5982,2.5734,0.0,0.0,0.0,0.0,0.0,0.0,0.0,0.0,0.0,0.0,0.0,2.7709,2.8457,0.0,3.0327,3.0915,3.1623,3.2104,3.2104,3.2238,3.2318,3.2318,3.2318,3.2438,3.2732,3.304,3.3213,3.32,3.348,3.3788,3.4082,3.4242,3.4456,3.475,3.4616,3.4817,3.5404,3.4808,3.4702,3.4993,3.4818,3.4698,3.4554,3.4554,3.4632,3.4737,3.3692,3.3278,3.3123,3.1895,3.1214,3.0923,3.116,3.1352,3.1528,3.1164,3.1012,3.091,3.0416,3.0214,3.0214,3.0214,3.0214,3.0214,3.0214,3.0214,3.0238,3.0371,3.0503,3.0672,3.0926,3.1095,3.1228,3.1372,3.1409,3.1409,3.1409,3.1409,3.1409,3.1409,3.1409,3.1409,3.1409,3.1288,3.1143,3.1022,3.0998,3.095,3.0817,3.0576,3.0206,2.9591,2.9262,2.8994,2.8725,2.8323,2.8229,2.8572,2.8367,2.8162,2.8017,2.8005,2.7884,2.7618,2.7618,2.7546,2.7425,2.7292,2.722,2.722,2.7075,2.6725,0.0,0.0,0.0,0.0,0.0,0.0,0.0,2.6383,2.6707,2.7883,2.8583,2.9138,3.0154,3.0728,3.1303,3.2064,3.2385,3.2656,3.2625,3.2679,3.2652,3.2465,3.2812,3.304,3.2986,3.3574,3.3868,3.3614,3.4042,3.4376,3.4482,3.4379,3.4435,3.4899,3.4477,3.4675,3.5377,3.4619,3.4523,3.4976,3.4542,3.4324,3.4312,3.4045,3.4032,3.421,3.3544,3.3172,3.2872,3.2003,3.1402,3.0998,3.0998,3.1113,3.1265,3.1098,3.0969,3.0969,3.0472,3.0371,3.0371,3.0371,3.0371,3.0371,3.0371,3.0371,3.0407,3.0624,3.0721,3.0853,3.1276,3.1469,3.159,3.1771,3.1843,3.1867,3.1819,3.1807,3.1807,3.1807,3.1807,3.1807,3.1807,3.1578,3.1312,3.1107,3.1034,3.0926,3.0708,3.0636,3.0503,3.025,3.0165,3.002,2.9743,2.9332,2.9091,2.9091,2.8886,2.8644,2.8367,2.8367,2.821,2.7896,2.7739,2.7703,2.7811,2.7469,2.7376,2.7531,2.7251,2.6893,2.5045,2.5058,2.597,2.7149,2.747,2.8167,0.0,3.0314,2.9753,3.0929,3.1223,3.1396,3.1784,3.1917,3.2078,3.2438,3.2616,3.2639,3.2893,3.3146,3.3414,3.3654,3.3494,3.3668,3.4442,3.4362,3.4255,3.4215,3.4282,3.4549,3.507,3.4571,3.4608,3.5145,3.4592,3.4401,3.4382,3.4357,3.4369,3.4433,3.4324,3.4324,3.4312,3.4045,3.393,3.393,3.2829,3.193,3.1291,3.1126,3.1102,3.0998,3.0998,3.1042,3.1073,3.1005,3.1017,3.1017,3.0914,3.0914,3.0914,3.0914,3.0914,3.0914,3.0914,3.0914,3.0914,3.095,3.1119,3.1312,3.1372,3.1747,3.206,3.1855,3.1988,3.2097,3.1855,3.1807,3.1807,3.1807,3.1807,3.1807,3.1807,3.1578,3.1384,3.1348,3.1143,3.0986,3.0962,3.0745,3.0503,3.025,2.9996,2.9743,2.9465,2.9393,2.9369,2.9369,2.9332,2.92,2.8934,2.8922,2.8681,2.8174,2.8379,2.827,2.7811,2.7074,2.6697,2.6419,2.5456,2.5495,2.8217,2.7896,2.7883,2.9179,2.9633,3.0034,3.1102,3.0862,3.0715,3.1717,3.1917,3.1957,3.2078,3.2385,3.2706,3.3013,3.3213,3.3427,3.3721,3.3868,3.3953,3.395,3.3913,3.4042,3.4496,3.4696,3.4725,3.4307,3.461,3.4806,3.4721,3.4411,3.4407,3.4651,3.4433,3.4401,3.4566,3.4237,3.4093,3.4268,3.3924,3.3801,3.3801,3.3529,3.2459,3.0847,3.0602,2.9433,2.7576,2.7576,2.7576,2.7565,2.7418,2.7449,2.763,2.8612,2.898,2.8771,2.7386,2.705,2.7059,2.7059,2.7154,2.7238,2.7101,2.7059,2.7028,2.6997,2.7123,2.7313,2.7313,2.7555,2.7776,2.7789,2.7842,2.7884,2.7789,2.7768,2.7768,2.7768,2.7768,2.7768,2.7768,2.7471,2.7313,2.7313,2.9454,3.0938,3.0793,3.0672,3.0503,3.025,3.0105,2.9996,2.9888,2.9731,2.9634,2.9634,2.9489,2.9357,2.9248,2.9236,2.9139,2.891,2.828,2.7763,2.7637,2.6534,2.5399,2.4406,2.4022,2.3744,2.9606,2.9673,2.9659,3.0755,3.1557,3.1998,3.1717,3.165,3.1797,3.2345,3.2465,3.2492,3.2585,3.3013,3.3427,3.3654,3.3935,3.4202,3.4209,3.4302,3.4149,3.3914,3.4015,3.4227,3.4307,3.465,3.4793,3.4367,3.4743,3.4798,3.4426,3.4221,3.4246,3.4322,3.4115,3.4106,3.4306,3.3961,3.3838,3.4048,3.2904,3.2354,3.2354,3.1404,2.9767,2.7669,2.8033,2.6985,2.5156,2.508,2.5099,2.5128,2.4976,2.4942,2.5184,2.5694,2.6383,2.6704,2.4971,2.443,2.4561,2.4561,2.4664,2.4749,2.4608,2.4561,2.4514,2.4308,2.4393,2.4552,2.4604,2.4745,2.4867,2.4929,2.492,2.4901,2.4844,2.4835,2.4835,2.4835,2.4835,2.4835,2.4835,2.4557,2.4416,2.4416,2.7007,2.9226,2.9687,3.0296,3.0588,3.025,3.0286,3.0298,3.0226,3.0033,2.9912,2.9912,2.9731,2.9598,2.9513,2.9216,2.8772,2.8294,2.7024,2.6135,2.5719,2.438,2.3218,2.2116,2.182,2.1335,2.7629,2.9032,3.0528,3.1423,3.2946,3.4148,3.3855,3.3788,3.3708,3.3427,3.3374,3.3467,3.3774,3.4082,3.4282,3.4295,3.4536,3.4528,3.4007,3.415,3.4212,3.3961,3.3892,3.3994,3.4248,3.4286,3.4299,3.4299,3.4312,3.4426,3.4706,3.4156,3.3961,3.4234,3.3676,3.3452,3.3464,3.3376,3.3376,3.3376,3.0992,2.9852,2.9739,2.7108,2.5646,2.5156,2.5276,2.5156,2.5128,2.4929,2.4958,2.5156,2.5046,2.5168,2.4985,2.2751,2.3405,2.5402,2.5291,2.5309,2.5309,2.5309,2.5309,2.5309,2.5309,2.5309,2.5262,2.5065,2.5168,2.5262,2.5065,2.5279,2.5383,2.5184,2.5137,2.5171,2.4873,2.4835,2.4835,2.4835,2.4835,2.4835,2.4835,2.4557,2.4416,2.4416,2.4343,2.5048,2.7281,2.9608,3.0793,3.0274,3.0443,3.0491,3.0238,3.0214,3.0202,3.0202,3.0202,3.0069,2.9791,2.8778,2.7337,2.5477,2.4257,2.2935,2.1309,2.0216,1.9727,1.9727,1.862,1.8112,2.9432,3.0902,3.2318,3.32,3.4028,3.4536,3.4242,3.4028,3.3855,3.3748,3.3093,3.2639,3.2946,3.324,3.346,3.3452,3.4137,3.4619,3.4458,3.4324,3.4146,3.3893,3.3809,3.3649,3.3247,3.3889,3.4183,3.4018,3.4218,3.4147,3.3801,3.3689,3.3602,3.3712,3.1893,3.1769,3.3376,3.0169,2.9399,3.0879,2.8471,2.7335,2.7335,2.6348,2.4922,2.3207,2.3231,2.2325,2.0742,2.0681,2.0681,2.0727,2.0627,2.0681,2.0705,1.9917,2.0212,2.0965,2.0742,2.0727,2.0827,2.0827,2.0903,2.0965,2.0865,2.0827,2.0781,2.0627,2.0627,2.0627,2.0444,2.0563,2.0563,2.0401,2.0339,2.0339,2.0278,2.0255,2.0255,2.0255,2.0255,2.0255,2.0255,2.0106,2.0068,2.0068,2.2285,2.4307,2.5048,2.7038,2.7786,2.6202,2.7361,2.7572,2.6089,2.5841,2.5861,2.5861,2.544,2.5184,2.5103,2.4387,2.3744,2.3054,2.1927,2.1046,2.0408,1.9308,1.8136,1.6912,1.6605,1.6401,3.1089,3.2425,3.3547,3.4536,3.5017,3.5151,3.4857,3.4723,3.4643,3.4536,3.3561,3.2799,3.2986,3.3147,3.3158,3.2926,3.4007,3.4648,3.4274,3.4203,3.4162,3.3875,3.3727,3.3567,3.3147,3.2759,3.2761,3.3408,3.3789,3.3376,3.2106,3.213,3.168,3.0868,2.9275,2.9151,3.0755,2.7677,2.6415,2.7098,2.5502,2.4332,2.3356,2.3492,2.2645,2.1003,2.1179,2.024,1.8599,1.8552,1.8531,1.8511,1.8423,1.8477,1.862,1.862,1.8674,1.8728,1.8552,1.8531,1.862,1.862,1.8674,1.8742,1.864,1.862,1.8586,1.8443,1.8389,1.8355,1.8213,1.8124,1.8077,1.7968,1.7901,1.786,1.786,1.786,1.786,1.786,1.786,1.786,1.786,1.786,1.786,1.786,2.0178,2.2045,2.2832,2.4904,2.5711,2.4202,2.5196,2.541,2.4003,2.3606,2.338,2.338,2.2779,2.2424,2.2424,2.1708,2.1077,2.0455,1.9326,1.8448,1.7729,1.7016,1.6041,1.4917,1.4917,1.4947,3.2438,3.3521,3.4282,3.5391,3.5899,3.6046,3.5765,3.5912,3.6019,3.5631,3.4629,3.3801,3.3721,3.3715,3.3483,3.2714,3.3967,3.4764,3.3607,3.3867,3.4156,3.3852,3.3469,3.338,3.3986,3.1059,3.0064,3.2436,3.2896,3.2017,2.9615,2.9491,2.8471,2.6196,2.5959,2.5959,2.6082,2.5959,2.4702,2.2185,2.2209,2.098,1.8565,1.8864,1.8918,1.8796,1.8938,1.8918,1.8782,1.862,1.8565,1.8565,1.8565,1.8654,1.8782,1.8782,1.8782,1.8782,1.8762,1.8762,1.8762,1.8762,1.8762,1.8762,1.8762,1.8762,1.8728,1.8586,1.8531,1.8498,1.8375,1.8213,1.8091,1.8091,1.7968,1.786,1.786,1.786,1.786,1.786,1.786,1.786,1.786,1.786,1.786,1.786,1.786,1.8569,2.0582,2.3078,2.4341,2.3737,2.3973,2.4001,2.3593,2.297,2.2642,2.2642,2.1925,2.1509,2.1509,2.0575,1.9222,1.7656,1.6525,1.5172,1.3602,1.3602,1.3602,1.3602,1.3602,1.3667,3.3627,3.4883,3.5912,3.6206,3.65,3.6687,3.6607,3.6647,3.6326,3.4937,3.3708,3.2559,3.1463,3.1965,3.2384,3.1929,3.3627,3.4919,3.4415,3.4264,3.4261,3.4433,3.239,3.1038,3.1097,2.8625,2.7291,2.772,2.7863,2.7677,2.7004,2.7004,2.6757,2.6082,2.4358,2.4261,2.6082,2.4244,2.2086,1.9683,1.9797,1.9489,1.8884,1.9061,1.9128,1.9094,1.9128,1.9128,1.9081,1.904,1.9027,1.9027,1.9027,1.9061,1.9081,1.8972,1.8938,1.8918,1.8796,1.8762,1.8762,1.8762,1.8762,1.8762,1.8762,1.8762,1.8762,1.8708,1.862,1.8531,1.8477,1.8287,1.8091,1.8091,1.7968,1.786,1.786,1.786,1.786,1.786,1.786,1.786,1.786,1.786,1.786,1.786,1.7535,1.7632,1.8569,2.056,2.1165,1.9039,2.0155,2.0161,1.809,1.7635,1.7445,1.7445,1.6876,1.6472,1.6472,1.5741,1.506,1.4645,1.444,1.4024,1.3602,1.3602,1.3602,1.3602,1.3602,1.3624,3.4817,3.5872,3.6727,3.6874,3.7021,3.6941,3.6153,3.6086,3.5605,3.3574,3.2211,3.1142,3.0314,3.0955,3.1534,3.1218,3.3324,3.4802,3.4407,3.3421,3.2759,3.3034,3.0495,2.8799,2.8769,2.6378,2.4738,2.4614,2.5498,2.5616,2.4482,2.4482,2.4023,2.2884,2.151,2.1541,2.3016,2.1627,2.0277,1.8959,1.904,1.9081,1.9094,1.9237,1.9305,1.9305,1.9379,1.9359,1.9305,1.9305,1.9257,1.9203,1.9203,1.9203,1.9183,1.9115,1.9081,1.9081,1.8993,1.8918,1.885,1.8782,1.8762,1.8762,1.8762,1.8762,1.8762,1.8762,1.8654,1.8511,1.8464,1.8267,1.8077,1.8002,1.7935,1.786,1.786,1.786,1.786,1.786,1.786,1.786,1.786,1.7632,1.7535,1.7535,1.6988,1.6754,1.708,1.8095,1.83,1.676,1.7588,1.7629,1.6077,1.5536,1.5349,1.5349,1.4679,1.4389,1.4389,1.3957,1.3684,1.3684,1.3629,1.3602,1.3602,1.3602,1.3602,1.3602,1.3602,1.3662,3.5845,3.654,3.7008,3.7315,3.7422,3.6981,3.5271,3.507,3.4536,3.2011,3.0648,2.986,2.9659,3.0337,3.0818,3.0818,3.2561,3.3819,3.3694,3.1796,3.0417,3.0569,2.8089,2.6519,2.6814,2.4121,2.2402,2.2528,2.4177,2.4173,2.2086,2.1963,2.0948,1.8912,1.8796,1.8871,1.9027,1.9027,1.9081,1.9203,1.9217,1.9237,1.9237,1.9393,1.9468,1.9468,1.961,1.959,1.9468,1.9468,1.9379,1.9257,1.9257,1.9257,1.9257,1.9237,1.9237,1.9237,1.9203,1.9115,1.8993,1.885,1.8782,1.8762,1.8762,1.8762,1.8762,1.8762,1.8674,1.8531,1.8389,1.8233,1.8091,1.7935,1.788,1.786,1.7749,1.7749,1.7632,1.7632,1.7632,1.7632,1.7632,1.7197,1.6871,1.6871,1.6323,1.5979,1.5979,1.6089,1.6089,1.5979,1.5979,1.5979,1.5862,1.5226,1.4937,1.4937,1.4375,1.3983,1.3983,1.3868,1.3809,1.3809,1.3689,1.3629,1.3629,1.3613,1.3602,1.3602,1.3602,1.3716,3.6313,3.6687,3.7008,3.7315,3.7569,3.7342,3.5819,3.5511,3.4603,3.1276,3.0234,2.9539,2.831,2.8945,3.0093,3.1285,3.0752,3.0599,3.1441,2.9498,2.7891,2.8008,2.5728,2.4056,2.4202,2.1631,1.9979,1.9979,2.0178,2.0051,1.9458,1.9444,1.9275,1.8938,1.8959,1.9027,1.9169,1.9169,1.9183,1.9203,1.9325,1.9393,1.9393,1.9556,1.9624,1.9624,1.9644,1.9644,1.9624,1.9624,1.961,1.9576,1.9576,1.9576,1.9576,1.9434,1.9393,1.9379,1.9237,1.9183,1.9149,1.8993,1.8871,1.8762,1.8762,1.8762,1.8762,1.8762,1.8742,1.8694,1.8531,1.8389,1.8247,1.8091,1.7948,1.7749,1.7307,1.676,1.6416,1.6416,1.6416,1.6416,1.6416,1.6317,1.6206,1.6206,1.5751,1.5313,1.5313,1.5751,1.5868,1.5424,1.5313,1.5197,1.4647,1.452,1.4409,1.4409,1.4184,1.4108,1.4108,1.3993,1.3928,1.3928,1.3814,1.3754,1.3754,1.3651,1.3602,1.3602,1.3602,1.3629,3.6246,3.6607,3.7008,3.7315,3.7383,3.6696,3.4499,3.3944,3.2775,2.9224,2.8524,2.8323,2.7602,2.8347,2.9381,3.0438,2.9688,2.9308,2.999,2.7334,2.5275,2.5275,2.3126,2.1578,2.1578,2.0302,1.9522,1.9434,1.9305,1.9115,1.8884,1.8884,1.8918,1.8993,1.9061,1.9169,1.9325,1.9325,1.9359,1.9447,1.9522,1.9556,1.9556,1.9624,1.9664,1.9664,1.9664,1.9664,1.9664,1.9664,1.9664,1.9664,1.9664,1.9664,1.9644,1.9576,1.9556,1.9535,1.9468,1.9393,1.9291,1.9149,1.9006,1.8871,1.8782,1.8762,1.8762,1.8762,1.8708,1.8484,1.8108,1.7854,1.7603,1.7124,1.7033,1.6871,1.6643,1.6317,1.6089,1.6089,1.6089,1.6089,1.6089,1.5862,1.5652,1.5652,1.5086,1.4758,1.4758,1.4986,1.5097,1.4758,1.4758,1.4647,1.432,1.432,1.432,1.432,1.4265,1.4238,1.4238,1.4108,1.4053,1.4053,1.3934,1.3847,1.3787,1.3727,1.3667,1.3602,1.3602,1.364,3.6019,3.65,3.6897,3.711,3.6992,3.6139,3.3047,3.2143,3.1007,2.7583,2.7054,2.7188,2.7255,2.7857,2.864,2.9487,2.8698,2.8143,2.8363,2.5301,2.2926,2.2748,2.0865,1.9664,1.9664,1.9664,1.961,1.9481,1.9447,1.9305,1.9047,1.904,1.9047,1.9081,1.9183,1.9325,1.9481,1.9481,1.9535,1.9664,1.9664,1.9664,1.9664,1.9664,1.9664,1.9664,1.9664,1.9664,1.9664,1.9664,1.9657,1.9536,1.9536,1.9408,1.9299,1.9299,1.9299,1.9299,1.9299,1.9199,1.8919,1.8886,1.8872,1.8959,1.8816,1.8646,1.8639,1.8639,1.8416,1.7925,1.7319,1.7072,1.6808,1.6237,1.5979,1.5868,1.5868,1.5862,1.5763,1.5763,1.5763,1.5763,1.5763,1.5313,1.4975,1.4975,1.4647,1.432,1.432,1.432,1.432,1.432,1.432,1.432,1.432,1.432,1.432,1.432,1.432,1.432,1.432,1.4222,1.4178,1.4178,1.4053,1.395,1.3863,1.3814,1.3738,1.364,1.3618,1.3656,3.5859,3.65,3.6733,3.6302,3.651,3.6015,3.2546,3.1692,3.0812,2.7879,2.7028,2.6947,2.7215,2.7227,2.7724,2.9297,2.7256,2.5475,2.5662,2.336,2.1325,2.0181,1.9786,1.9664,1.9664,1.9664,1.9664,1.9644,1.9501,1.9359,1.9183,1.9183,1.9257,1.9379,1.9393,1.9481,1.9644,1.9644,1.9644,1.9664,1.9664,1.9664,1.9664,1.9664,1.9664,1.9664,1.9664,1.9664,1.9664,1.9664,1.9286,1.8799,1.8799,1.844,1.7831,1.7831,1.7831,1.7831,1.7831,1.7738,1.7597,1.7468,1.8155,1.8959,1.8816,1.84,1.7943,1.7943,1.7383,1.6779,1.6637,1.6508,1.6379,1.6126,1.564,1.5313,1.5313,1.4875,1.4436,1.4436,1.4436,1.4436,1.4436,1.4436,1.4431,1.4431,1.432,1.432,1.432,1.432,1.432,1.432,1.432,1.432,1.432,1.432,1.432,1.432,1.432,1.432,1.432,1.4309,1.4309,1.4309,1.4178,1.4108,1.4108,1.389,1.3781,1.3765,1.3656,1.3607,3.5349,3.5966,3.6263,3.5707,3.5151,3.4163,3.1892,3.0777,2.969,2.7423,2.6798,2.6714,2.6846,2.6517,2.6516,2.7572,2.6062,2.473,2.4707,2.2761,2.1222,2.0661,1.9958,1.9556,1.9644,1.9664,1.9664,1.9664,1.961,1.9535,1.9488,1.9393,1.9359,1.9434,1.9522,1.959,1.9664,1.9664,1.9664,1.9664,1.9286,1.9056,1.9049,1.8677,1.844,1.844,1.844,1.844,1.844,1.844,1.8318,1.8068,1.8068,1.7959,1.7709,1.7709,1.7709,1.769,1.7611,1.755,1.7452,1.7153,1.737,1.7787,1.7619,1.7414,1.7114,1.7114,1.685,1.6325,1.5931,1.5494,1.5049,1.5003,1.4875,1.4647,1.4647,1.4436,1.432,1.432,1.432,1.432,1.432,1.432,1.432,1.432,1.432,1.432,1.432,1.432,1.432,1.432,1.432,1.432,1.432,1.432,1.432,1.432,1.432,1.432,1.432,1.432,1.432,1.432,1.4276,1.4205,1.414,1.4042,1.3928,1.3787,1.3738,1.3673,3.4491,3.5254,3.5707,3.504,3.4203,3.3002,3.1402,3.0217,2.8923,2.7205,2.6751,2.6648,2.6579,2.6146,2.5797,2.5661,2.4755,2.3717,2.2943,2.1561,2.0459,2.0003,1.9305,1.8972,1.9291,1.9535,1.9664,1.9664,1.9664,1.9657,1.9408,1.9307,1.9133,1.9133,1.9354,1.9286,1.9056,1.9056,1.9056,1.9056,1.8671,1.844,1.844,1.7959,1.7709,1.7709,1.7709,1.7709,1.7709,1.7709,1.7581,1.7459,1.7459,1.7349,1.7099,1.7099,1.7069,1.7022,1.6934,1.6857,1.6733,1.6426,1.629,1.6261,1.6214,1.6252,1.641,1.641,1.6026,1.5612,1.5235,1.472,1.432,1.432,1.432,1.432,1.432,1.432,1.432,1.432,1.432,1.432,1.432,1.432,1.432,1.432,1.432,1.432,1.432,1.432,1.432,1.432,1.432,1.432,1.432,1.432,1.432,1.432,1.432,1.432,1.432,1.432,1.432,1.432,1.432,1.4276,1.4195,1.4124,1.3999,1.3836,1.3765,1.3689,3.3096,3.4321,3.504,3.447,3.3889,3.2948,3.115,3.0075,2.895,2.7311,2.696,2.6877,2.646,2.6255,2.5579,2.4001,2.3359,2.2061,1.9436,1.9042,1.8644,1.7538,1.7439,1.7738,1.8477,1.9217,1.9664,1.9664,1.9664,1.9408,1.8799,1.8677,1.8677,1.8677,1.8677,1.844,1.7709,1.7709,1.7709,1.7709,1.7709,1.7709,1.7709,1.7709,1.7709,1.7709,1.7709,1.7709,1.7709,1.7709,1.7331,1.6721,1.6721,1.6366,1.5877,1.5877,1.5684,1.5575,1.5575,1.5418,1.5206,1.5081,1.4956,1.4946,1.4716,1.514,1.5589,1.5589,1.505,1.4477,1.4347,1.432,1.432,1.432,1.432,1.432,1.432,1.432,1.432,1.432,1.432,1.432,1.432,1.432,1.432,1.432,1.432,1.432,1.432,1.432,1.432,1.432,1.432,1.432,1.432,1.432,1.432,1.432,1.432,1.432,1.432,1.432,1.432,1.432,1.432,1.432,1.432,1.408,1.3955,1.395,1.3716,1.3607,3.1112,3.206,3.266,3.1743,3.0874,3.0058,2.9335,2.8258,2.679,2.4783,2.516,2.5043,2.2583,2.2862,2.2964,2.1524,2.1274,2.1003,2.0004,1.9874,1.9639,1.9228,1.905,1.9047,1.9271,1.9146,1.9049,1.9049,1.8568,1.819,1.8068,1.8062,1.8062,1.8062,1.8062,1.7959,1.7709,1.7709,1.7709,1.7709,1.7209,1.6977,1.6977,1.661,1.6366,1.6366,1.6366,1.6366,1.6366,1.6366,1.6238,1.6116,1.6027,1.5872,1.5613,1.5532,1.5472,1.5434,1.5363,1.5276,1.5189,1.4983,1.4825,1.4716,1.4586,1.4677,1.4875,1.4792,1.4518,1.4363,1.4336,1.432,1.432,1.432,1.432,1.432,1.432,1.432,1.432,1.432,1.432,1.432,1.432,1.432,1.432,1.432,1.432,1.432,1.432,1.432,1.432,1.432,1.432,1.432,1.432,1.432,1.432,1.432,1.432,1.432,1.432,1.432,1.432,1.432,1.432,1.432,1.432,1.4151,1.3999,1.3836,1.3678,1.3602,2.9118,3.0243,3.0902,3.0336,2.928,2.8241,2.7435,2.6698,2.5496,2.2621,2.3261,2.3458,2.0452,2.0732,2.0892,1.9226,1.9115,1.9105,1.8694,1.8584,1.8581,1.8591,1.8765,1.8767,1.8522,1.8402,1.8318,1.8318,1.7891,1.7538,1.7331,1.7283,1.7161,1.6971,1.7221,1.7221,1.6971,1.6971,1.6971,1.6971,1.661,1.6366,1.6366,1.6005,1.5755,1.5755,1.5755,1.5755,0.0,1.57,1.5684,1.5673,1.5543,1.5499,1.5488,1.5418,1.5363,1.5185,1.4128,1.3822,1.3518,1.2369,1.2009,1.1802,1.1749,1.2966,1.4417,1.4347,1.432,1.432,1.432,1.3642,1.2975,1.2975,1.2298,1.1634,1.1634,1.2298,1.2975,1.2975,1.3642,1.432,1.432,1.432,1.3981,1.3091,1.2975,1.2636,1.1746,1.1634,1.1634,1.1634,1.1634,1.1634,1.1634,1.3314,1.432,1.432,1.432,1.432,1.432,1.432,1.432,1.432,1.432,1.4292,1.4249,1.3206,1.2163,1.1143,1.1077,1.1051,0.0,2.8513,2.9394,2.9463,2.8415,2.693,2.5388,2.5251,0.0,2.0607,2.1285,2.1874,1.9647,1.9463,1.9081,1.7208,1.6952,1.6664,1.6015,1.5967,1.6205,1.6524,1.7153,1.7332,1.6713,1.7312,1.7581,1.7581,1.7472,1.7205,1.6709,1.6478,1.6219,1.585,1.6332,1.6338,1.5755,1.5755,1.5755,1.5755,1.5755,1.5755,1.5755,1.5627,1.5505,1.5494,1.5367,1.5244,1.5229,1.5118,1.5081,1.5065,1.4944,1.4902,1.4886,1.4886,1.4699,1.4353,1.2001,1.1088,1.0653,0.8088,0.7215,0.7175,0.7161,1.0293,1.3753,1.3753,1.3753,1.3753,1.3753,1.2186,1.0504,1.0504,0.8839,0.7161,0.7161,0.895,1.0504,1.0504,1.2298,1.3753,1.3753,1.3753,1.2975,1.0842,1.0504,0.9616,0.7496,0.7161,0.7161,0.7161,0.7161,0.7161,0.7161,1.1296,1.3753,1.3753,1.3753,1.3753,1.3753,1.3753,1.3753,1.3753,1.3753,1.369,1.3565,1.1285,0.9,0.6804,0.6804,0.6804,2.4047,0.0,2.4699,2.5773,2.3798,2.1749,0.0,2.14,1.9715,1.7416,1.8467,1.8856,1.6056,1.6689,1.7102,1.5561,1.5264,1.5419,1.5998,1.669,1.7478,1.8175,1.7954,1.7663,1.7581,1.7127,1.6971,1.6971,1.646,1.6044,1.5861,1.5834,1.5669,1.5472,1.5598,1.568,1.5755,1.5755,1.5755,1.5755,1.5755,1.5755,1.5755,1.3664,1.2762,1.2682,1.0605,0.972,0.9796,0.9772,0.9652,0.9642,0.9563,0.9536,0.9526,0.9347,0.9323,0.9179,0.863,0.8367,0.8218,0.7514,0.7273,0.7278,0.7188,0.794,0.8839,0.8839,0.8839,0.8839,0.8839,0.8501,0.8051,0.8051,0.7611,0.7161,0.7161,0.7611,0.8051,0.8051,0.8501,0.8839,0.8839,0.8839,0.8724,0.8163,0.8051,0.7828,0.7273,0.7161,0.7161,0.7161,0.7161,0.7161,0.7161,0.8274,0.8839,0.8839,0.8839,0.8839,0.8839,0.8839,0.8839,0.8839,0.8889,0.8828,0.8637,0.8115,0.7503,0.6804,0.6804,0.6804,2.0272,2.1133,2.2449,2.3195,2.1353,1.9323,1.9284,1.8797,1.767,1.5202,1.6196,1.6833,1.4513,1.5209,1.5836,1.4819,1.533,1.6083,1.6714,1.7295,1.7787,1.7904,1.752,1.7205,1.6912,1.6559,1.6238,1.6238,1.5944,1.5673,1.5657,1.4502,1.3717,1.3775,1.2567,1.3224,1.5668,1.4446,1.3949,1.3949,1.2726,1.2209,1.2179,1.0715,0.9966,0.992,0.8469,0.7848,0.7941,0.779,0.7776,0.7771,0.7707,0.7567,0.7559,0.7532,0.7518,0.7385,0.6146,0.5068,0.4015,0.3965,0.3979,0.3892,0.3938,0.393,0.4389,0.6612,0.7161,0.7161,0.7161,0.6376,0.5596,0.5596,0.4703,0.3918,0.3918,0.4815,0.5596,0.5596,0.6488,0.7161,0.7161,0.7161,0.6823,0.5708,0.5596,0.5147,0.4032,0.3918,0.3918,0.3918,0.3918,0.3918,0.3918,0.3918,0.4815,0.7049,0.7161,0.7161,0.7161,0.7161,0.7147,0.7231,0.7165,0.6561,0.5424,0.5377,0.4807,0.3723,0.3723,0.3723,1.6946,1.8587,2.0898,2.0957,1.9526,1.7713,1.6418,1.6792,1.6519,1.3753,1.449,1.5264,1.4219,1.4699,1.5126,1.4774,1.603,1.7257,1.7545,1.7695,1.7521,1.6853,1.6736,1.6455,1.5861,1.5839,1.5633,1.5255,1.5049,1.4902,1.4618,1.2335,1.1056,1.1158,0.897,0.9938,1.4305,1.2137,1.1045,1.1165,0.8986,0.787,0.7941,0.7458,0.7337,0.7324,0.6847,0.6722,0.6711,0.6546,0.653,0.6523,0.6363,0.6345,0.6345,0.6345,0.6345,0.6099,0.393,0.1835,0.0,0.0,0.0,0.0,0.0,0.0,0.0907,0.4938,0.6158,0.6158,0.6158,0.4591,0.3023,0.3023,0.1458,0.0,0.0,0.157,0.3023,0.3023,0.4703,0.6158,0.6158,0.6158,0.5373,0.3359,0.3023,0.2353,0.0224,0.0,0.0,0.0,0.0,0.0,0.0,0.0,0.1792,0.5809,0.6146,0.6146,0.6146,0.6146,0.612,0.6078,0.6019,0.4992,0.3019,0.2886,0.181,-0.0107,-0.0107,-0.0213,1.643,1.6718,1.7121,1.7741,1.5735,1.3934,1.4943,1.4314,1.3433,1.3123,1.3452,1.4055,1.4872,1.4699,1.4726,1.552,1.6111,1.6782,1.767,1.7369,1.6959,1.684,1.6351,1.5871,1.5767,1.5762,1.4893,1.2548,1.2412,1.1401,0.9021,0.8522,0.8227,0.8114,0.7757,0.7995,0.8945,0.8649,0.8439,0.8439,0.8075,0.7946,0.7821,0.5535,0.4558,0.441,0.2147,0.1189,0.1182,0.118,0.1179,0.1179,0.1178,0.1177,0.1177,0.1177,0.1177,0.1058,0.0699,0.0348,0.0,0.0,0.0,0.0,0.0,0.0,0.0113,0.09,0.1121,0.1121,0.1121,0.0785,0.0561,0.0561,0.0224,0.0,0.0,0.0337,0.0561,0.0561,0.0897,0.1121,0.1121,0.1121,0.1009,0.0561,0.0561,0.0449,0.0,0.0,0.0,0.0,0.0,0.0,0.0,0.0,0.0336,0.111,0.111,0.111,0.111,0.111,0.111,0.1107,0.109,0.0864,0.054,0.0535,0.0107,-0.0746,-0.0746,-0.0959,1.3861,1.3792,1.4169,1.505,1.481,1.4599,1.5401,1.4956,1.4346,1.4095,1.4156,1.4441,1.5065,1.5425,1.6051,1.7319,1.6982,1.6741,1.7245,1.684,1.6332,1.632,1.4739,1.3687,1.3602,1.2322,1.1069,0.9842,0.972,0.9093,0.7839,0.6494,0.5605,0.5545,0.4202,0.3466,0.3571,0.3568,0.4286,0.5739,0.4306,0.3581,0.3568,0.2378,0.1781,0.1775,0.0474,0.0,0.0,0.0,0.0,0.0,0.0,0.0,0.0,0.0,0.0,0.0,0.0,0.0,0.0,0.0,0.0,0.0,0.0,0.0,0.0,0.0,0.0,0.0,0.0,0.0,0.0,0.0,0.0,0.0,0.0,0.0,0.0,0.0,0.0,0.0,0.0,0.0,0.0,0.0,0.0,-0.0112,-0.0449,-0.0449,-0.0561,-0.0898,-0.101,-0.101,-0.101,-0.1006,-0.0779,-0.0554,-0.0222,-0.0221,-0.088,-0.0666,-0.0665,-0.0874,-0.0981,-0.0974,-0.0965,-0.0961,-0.1066,-0.1279,-0.1279,-0.1492,1.1741,1.1877,1.2542,1.3451,1.4407,1.5282,1.5893,1.5778,1.5493,1.5323,1.5337,1.5418,1.5527,1.6165,1.7082,1.8142,1.7269,1.6627,1.6941,1.5785,1.4929,1.4921,1.2578,1.0905,1.0927,0.91,0.7626,0.7017,0.7017,0.6646,0.6029,0.4066,0.2946,0.3039,0.1089,0.0,0.0,0.0,0.1063,0.2967,0.095,0.0,0.0,0.0,0.0,0.0,0.0,0.0,0.0,0.0,0.0,0.0,0.0,0.0,0.0,0.0,0.0,0.0,0.0,0.0,0.0,0.0,0.0,0.0,0.0,0.0,0.0,0.0,0.0,0.0,0.0,0.0,0.0,0.0,0.0,0.0,0.0,0.0,0.0,0.0,-0.0112,-0.0224,-0.0224,-0.0337,-0.0449,-0.0449,-0.0449,-0.0561,-0.101,-0.1122,-0.1235,-0.1796,-0.1793,-0.1789,-0.1785,-0.1772,-0.1653,-0.1322,-0.0773,-0.077,-0.1636,-0.1326,-0.1322,-0.1729,-0.1736,-0.1729,-0.1705,-0.1705,-0.1812,-0.1919,-0.1919,-0.2025,1.1525,1.2332,1.3214,1.3702,1.3383,1.3464,1.5425,1.5215,1.4916,1.5988,1.6435,1.6625,1.6632,1.64,1.6339,1.6743,1.6254,1.6126,1.6895,1.4227,1.221,1.2151,0.9808,0.8223,0.8121,0.7998,0.6892,0.4435,0.4189,0.3082,0.074,0.037,0.0245,0.0242,0.0121,0.0,0.0,0.0,0.0118,0.0236,0.0118,0.0,0.0,0.0,0.0,0.0,0.0,0.0,0.0,0.0,0.0,0.0,0.0,0.0,0.0,0.0,0.0,0.0,0.0,0.0,0.0,0.0,0.0,0.0,0.0,0.0,0.0,0.0,0.0,0.0,0.0,0.0,0.0,0.0,0.0,0.0,0.0,0.0,0.0,0.0,-0.0449,-0.0786,-0.0786,-0.1347,-0.1684,-0.1684,-0.1684,-0.1684,-0.1684,-0.1684,-0.1796,-0.1796,-0.1784,-0.177,-0.1756,-0.174,-0.1948,-0.2489,-0.1963,-0.1636,-0.173,-0.1623,-0.1623,-0.1728,-0.1715,-0.1708,-0.1705,-0.1705,-0.2025,-0.2558,-0.2558,-0.2772,1.1076,1.1868,1.2768,1.3452,1.3435,1.3948,1.6388,1.6775,1.6646,1.6822,1.6996,1.6922,1.6478,1.6709,1.6332,1.4473,1.4006,1.3359,1.1587,1.0249,0.9381,0.9358,0.7017,0.5418,0.5418,0.3943,0.2589,0.1604,0.1481,0.0987,0.0,0.0,0.0,0.0,0.0,0.0,0.0,0.0,0.0,0.0,0.0,0.0,0.0,0.0,0.0,0.0,0.0,0.0,0.0,0.0,0.0,0.0,0.0,0.0,0.0,0.0,0.0,0.0,0.0,0.0,0.0,0.0,0.0,0.0,0.0,0.0,0.0,0.0,-0.0224,-0.0449,-0.0112,0.0,0.0,0.0,0.0,-0.0112,-0.0449,-0.0561,-0.0673,-0.101,-0.1347,-0.146,-0.146,-0.1684,-0.1796,-0.1796,-0.1796,-0.1909,-0.2355,-0.2355,-0.2462,-0.2785,-0.2873,-0.2848,-0.2825,-0.2814,-0.291,-0.3109,-0.2268,-0.2054,-0.268,-0.249,-0.2384,-0.2786,-0.2791,-0.2787,-0.2772,-0.2772,-0.2878,-0.3091,-0.3091,-0.3198,1.1194,1.1779,1.2471,1.3281,1.3451,1.4117,1.6511,1.7107,1.7215,1.7347,1.714,1.6346,1.4223,1.4759,1.4469,1.1576,1.1128,1.0452,0.8243,0.714,0.6646,0.6646,0.4312,0.2713,0.2713,0.111,0.0,0.0,0.0,0.0,0.0,0.0,0.0,0.0,0.0,0.0,0.0,0.0,0.0,0.0,0.0,0.0,0.0,0.0,0.0,0.0,0.0,0.0,0.0,0.0,0.0,0.0,0.0,0.0,0.0,0.0,0.0,0.0,0.0,0.0,0.0,0.0,-0.0113,-0.0339,-0.0337,-0.0449,-0.0561,-0.0561,-0.0898,-0.1122,-0.0673,-0.0561,-0.0561,-0.0561,-0.0561,-0.0673,-0.1122,-0.1235,-0.1347,-0.1684,-0.1909,-0.2133,-0.2133,-0.2245,-0.2358,-0.2358,-0.2358,-0.247,-0.2917,-0.3029,-0.3129,-0.3423,-0.3506,-0.3476,-0.3445,-0.3442,-0.3434,-0.3414,-0.268,-0.2575,-0.3412,-0.302,-0.3023,-0.3412,-0.3433,-0.3433,-0.3412,-0.3412,-0.3412,-0.3412,-0.3412,-0.3412,1.1968,1.2263,1.2671,1.3118,1.3175,1.3534,1.5305,1.5592,1.5961,1.7312,1.6938,1.4776,0.9611,1.0197,1.0657,0.8025,0.7757,0.7875,0.7875,0.5541,0.3819,0.3819,0.1604,0.0,0.0,0.0,0.0,0.0,0.0,0.0,0.0,0.0,0.0,0.0,0.0,0.0,0.0,0.0,0.0,0.0,0.0,0.0,0.0,0.0,0.0,0.0,0.0,0.0,0.0,0.0,0.0,0.0,0.0,0.0,0.0,0.0,0.0,0.0,0.0,0.0,0.0,0.0,-0.0449,-0.0898,-0.0898,-0.1347,-0.1796,-0.1796,-0.1796,-0.1796,-0.1796,-0.1796,-0.1796,-0.1796,-0.1796,-0.1796,-0.1796,-0.1796,-0.1796,-0.1796,-0.2355,-0.2692,-0.2692,-0.3253,-0.3589,-0.3589,-0.3589,-0.3589,-0.3589,-0.3589,-0.3569,-0.3509,-0.3475,-0.3445,-0.3415,-0.3412,-0.3412,-0.3412,-0.3412,-0.3412,-0.3412,-0.3412,-0.3412,-0.3412,-0.3412,-0.3412,-0.3412,-0.3412,-0.3412,-0.3412,-0.3412,-0.3412,1.1259,1.1949,1.2793,1.2898,1.2281,1.1873,1.2339,1.4097,1.5252,1.4195,1.2005,0.9766,0.829,0.8489,0.8004,0.5409,0.5016,0.4435,0.2589,0.1604,0.1111,0.1111,0.0494,0.0,0.0,0.0,0.0,0.0,0.0,0.0,0.0,0.0,0.0,0.0,0.0,0.0,0.0,0.0,0.0,0.0,0.0,0.0,0.0,0.0,0.0,0.0,0.0,0.0,0.0,0.0,0.0,0.0,0.0,0.0,0.0,0.0,0.0,-0.0116,-0.0458,-0.0682,-0.0679,-0.1125,-0.1347,-0.1572,-0.1572,-0.1684,-0.1796,-0.1796,-0.2133,-0.2467,-0.2467,-0.2692,-0.2804,-0.2021,-0.1796,-0.1909,-0.2355,-0.2467,-0.2579,-0.3029,-0.3253,-0.3365,-0.3365,-0.3477,-0.3589,-0.3589,-0.3589,-0.3589,-0.3589,-0.3572,-0.3551,-0.3534,-0.3487,-0.3453,-0.3445,-0.3444,-0.3444,-0.3444,-0.3444,-0.3434,-0.3412,-0.3412,-0.3412,-0.3412,-0.3412,-0.3412,-0.3412,-0.3412,-0.3412,-0.3412,-0.3412,-0.3412,1.2056,1.2025,1.199,1.2094,1.0781,0.9473,0.9518,1.1089,1.1904,0.9536,0.8248,0.707,0.4971,0.5433,0.5259,0.27,0.229,0.1851,0.0247,0.0,0.0,0.0,0.0,0.0,0.0,0.0,0.0,0.0,0.0,0.0,0.0,0.0,0.0,0.0,0.0,0.0,0.0,0.0,0.0,0.0,0.0,0.0,0.0,0.0,0.0,0.0,0.0,0.0,0.0,0.0,0.0,0.0,-0.0236,-0.0353,-0.0353,-0.0703,-0.07,-0.0814,-0.1151,-0.1257,-0.1363,-0.1694,-0.1912,-0.2133,-0.2133,-0.2358,-0.247,-0.247,-0.2804,-0.3029,-0.3029,-0.3365,-0.3365,-0.2694,-0.247,-0.258,-0.3029,-0.3029,-0.3141,-0.3477,-0.3589,-0.3589,-0.3589,-0.3589,-0.3589,-0.3589,-0.3589,-0.3589,-0.3589,-0.3562,-0.3544,-0.3544,-0.3493,-0.3463,-0.3475,-0.3464,-0.3463,-0.3475,-0.3464,-0.3449,-0.343,-0.3418,-0.3412,-0.3412,-0.3412,-0.3412,-0.3412,-0.3412,-0.3412,-0.3412,-0.3412,-0.3412,1.3215,1.1802,1.0231,1.0805,0.8777,0.6619,0.6631,0.6862,0.65,0.4377,0.5558,0.5519,0.0835,0.1916,0.265,0.0362,0.0,0.0,0.0,0.0,0.0,0.0,0.0,0.0,0.0,0.0,0.0,0.0,0.0,0.0,0.0,0.0,0.0,0.0,0.0,0.0,0.0,0.0,0.0,0.0,0.0,0.0,0.0,0.0,0.0,0.0,0.0,0.0,0.0,0.0,0.0,-0.0118,-0.0707,-0.0943,-0.106,-0.1649,-0.1876,-0.1865,-0.1979,-0.196,-0.1935,-0.1933,-0.2374,-0.281,-0.2807,-0.3147,-0.3596,-0.3594,-0.3706,-0.393,-0.3927,-0.4039,-0.4264,-0.4264,-0.3927,-0.3589,-0.3589,-0.3589,-0.3589,-0.3589,-0.3589,-0.3589,-0.3589,-0.3589,-0.3589,-0.3589,-0.3589,-0.3589,-0.3589,-0.3565,-0.3549,-0.3544,-0.3495,-0.3472,-0.3499,-0.3478,-0.3475,-0.3506,-0.3478,-0.3461,-0.3461,-0.343,-0.3412,-0.3412,-0.3412,-0.3412,-0.3412,-0.3412,-0.3412,-0.3412,-0.3412,-0.3412,0.9422,0.8391,0.7365,0.764,0.611,0.4011,0.2032,0.1695,0.2066,0.3452,0.2631,0.132,0.0237,0.0478,0.0603,0.0121,0.0,0.0,0.0,0.0,0.0,0.0,0.0,0.0,0.0,0.0,0.0,0.0,0.0,0.0,0.0,0.0,0.0,0.0,0.0,0.0,0.0,0.0,0.0,0.0,0.0,0.0,0.0,0.0,0.0,0.0,0.0,0.0,0.0,0.0,-0.0236,-0.0707,-0.0825,-0.1178,-0.1649,-0.1885,-0.1884,-0.1996,-0.2449,-0.2556,-0.2658,-0.3078,-0.3304,-0.3428,-0.3405,-0.3529,-0.3656,-0.3632,-0.4981,-0.6437,-0.6393,-0.7834,-0.9184,-0.9352,-0.6413,-0.3589,-0.3589,-0.3589,-0.3589,-0.3589,-0.3589,-0.3589,-0.3589,-0.3589,-0.3589,-0.3589,-0.3589,-0.3589,-0.3589,-0.3583,-0.3572,-0.3549,-0.3513,-0.3495,-0.3502,-0.3495,-0.3506,-0.3534,-0.3509,-0.3493,-0.3493,-0.3441,-0.3412,-0.3412,-0.3412,-0.3412,-0.3412,-0.3412,-0.3412,-0.3412,-0.3412,-0.3412,0.9246,0.7756,0.5842,0.3957,0.2778,0.168,0.0362,0.0,0.0363,0.1671,0.0837,0.0,0.0,0.0,0.0,0.0,0.0,0.0,0.0,0.0,0.0,0.0,0.0,0.0,0.0,0.0,0.0,0.0,0.0,0.0,0.0,0.0,0.0,0.0,0.0,0.0,0.0,0.0,0.0,0.0,0.0,0.0,0.0,0.0,0.0,0.0,-0.0353,-0.0471,-0.0471,-0.0825,-0.106,-0.1414,-0.1649,-0.2003,-0.2356,-0.2711,-0.2828,-0.2825,-0.3167,-0.3269,-0.3487,-0.4953,-0.5514,-0.5733,-0.6816,-0.7178,-0.7213,-0.7159,-0.8064,-0.91,-0.9063,-1.0068,-1.0982,-1.1023,-0.9029,-0.7063,-0.7089,-0.7089,-0.7089,-0.7089,-0.7089,-0.7089,-0.7089,-0.7068,-0.7055,-0.7055,-0.7055,-0.7055,-0.7055,-0.6916,-0.6887,-0.6856,-0.6779,-0.675,-0.6808,-0.6896,-0.6918,-0.689,-0.6923,-0.6878,-0.6878,-0.6765,-0.564,-0.3412,-0.3412,-0.3412,-0.3412,-0.3412,-0.3412,-0.3412,-0.3412,-0.3412,0.9777,0.7577,0.4694,0.0917,0.0,0.0,0.0,0.0,0.0,0.0,0.0,0.0,0.0,0.0,0.0,0.0,0.0,0.0,0.0,0.0,0.0,0.0,0.0,0.0,0.0,0.0,0.0,0.0,0.0,0.0,0.0,0.0,0.0,0.0,-0.0471,-0.0707,-0.0707,-0.1059,-0.1295,-0.1295,-0.1412,-0.1412,-0.1412,-0.153,-0.1295,-0.0824,-0.1412,-0.2001,-0.2354,-0.2943,-0.3296,-0.3415,-0.3886,-0.4121,-0.4357,-0.4947,-0.5064,-0.5064,-0.5064,-0.5041,-0.5359,-0.7442,-0.8093,-0.8396,-1.0481,-1.1089,-1.1143,-1.1044,-1.141,-1.1812,-1.1803,-1.2136,-1.2483,-1.2506,-1.225,-1.1804,-1.1208,-1.0994,-1.0994,-1.0994,-1.0994,-1.0994,-1.0994,-1.0796,-1.073,-1.0751,-1.071,-1.069,-1.071,-1.0514,-1.0453,-1.0441,-1.0324,-1.0304,-1.0453,-1.0522,-1.0551,-1.0722,-1.0563,-1.0457,-1.0457,-1.0289,-0.8395,-0.4687,-0.4581,-0.4368,-0.3942,-0.3942,-0.3942,-0.3942,-0.3624,-0.3412,0.7772,0.5175,0.2232,0.0462,0.0,0.0,0.0,0.0,0.0,0.0,0.0,0.0,0.0,0.0,0.0,0.0,0.0,0.0,0.0,0.0,0.0,0.0,0.0,0.0,0.0,0.0,0.0,0.0,0.0,0.0,0.0,0.0,0.0,0.0,-0.2119,-0.3294,-0.3294,-0.541,-0.6464,-0.6464,-0.7046,-0.7281,-0.7281,-0.7864,-0.6687,-0.4114,-0.4703,-0.6223,-0.8326,-0.8326,-0.8681,-0.9152,-0.9269,-0.9624,-1.0213,-1.0213,-1.0333,-1.0333,-1.0333,-1.0322,-1.0303,-1.0576,-1.0715,-1.0863,-1.1118,-1.1279,-1.1216,-1.1238,-1.2718,-1.4317,-1.4207,-1.5787,-1.7433,-1.7556,-1.7452,-1.6205,-1.2114,-1.1203,-1.1203,-1.1203,-1.1203,-1.1203,-1.1203,-1.0949,-1.0751,-1.0941,-1.0645,-1.0409,-1.0494,-1.0421,-1.034,-1.0268,-1.0412,-1.0449,-1.0473,-1.0652,-1.0726,-1.0722,-1.0563,-1.0457,-1.0457,-1.0289,-0.9878,-0.9349,-0.9243,-0.8289,-0.6379,-0.6379,-0.6379,-0.6276,-0.4368,-0.3412,0.6357,0.3954,0.1807,0.0345,0.0,0.0,0.0,0.0,0.0,0.0,0.0,0.0,0.0,0.0,0.0,0.0,0.0,0.0,0.0,0.0,0.0,0.0,0.0,0.0,0.0,0.0,0.0,0.0,-0.1305,-0.2127,-0.2119,-0.3411,-0.4231,-0.4231,-0.529,-0.5875,-0.5875,-0.6929,-0.7635,-0.8098,-0.8336,-0.857,-0.9032,-0.9613,-0.8915,-0.7393,-0.7981,-0.8915,-0.9968,-1.0322,-1.0677,-1.0911,-1.0911,-1.1032,-1.1269,-1.1269,-1.1269,-1.1269,-1.1269,-1.1269,-1.1495,-1.2854,-1.3339,-1.3586,-1.4869,-1.5386,-1.5459,-1.5325,-1.6149,-1.7011,-1.6949,-1.7754,-1.8586,-1.864,-1.862,-1.7991,-1.5901,-1.5372,-1.5327,-1.5327,-1.5265,-1.5095,-1.5135,-1.4865,-1.473,-1.4719,-1.4475,-1.4358,-1.4341,-1.423,-1.4136,-1.4086,-1.4232,-1.4293,-1.4366,-1.4484,-1.4613,-1.473,-1.4512,-1.4372,-1.4372,-1.4136,-1.3369,-1.2098,-1.083,-0.9666,-0.871,-0.871,-0.871,-0.871,-0.7653,-0.7231,0.5347,0.3403,0.1803,0.0333,0.0,0.0,0.0,0.0,0.0,0.0,0.0,0.0,0.0,0.0,0.0,0.0,0.0,0.0,0.0,0.0,0.0,0.0,0.0,0.0,0.0,-0.0598,-0.0953,-0.095,-0.3306,-0.482,-0.4938,-0.6699,-0.7752,-0.7981,-0.857,-0.8915,-0.8915,-0.9624,-1.0096,-1.0677,-1.0794,-1.102,-1.1599,-1.2191,-1.2191,-1.1837,-1.1612,-1.185,-1.2546,-1.3018,-1.3256,-1.3256,-1.3256,-1.3256,-1.3256,-1.3256,-1.3256,-1.3256,-1.3256,-1.3256,-1.3494,-1.5365,-1.5947,-1.6273,-1.8043,-1.8674,-1.8742,-1.862,-1.8674,-1.8762,-1.8762,-1.8762,-1.8762,-1.8762,-1.8762,-1.8762,-1.8762,-1.8674,-1.8586,-1.8531,-1.8443,-1.8321,-1.8179,-1.7989,-1.7846,-1.7772,-1.7629,-1.7507,-1.7433,-1.7256,-1.7141,-1.7141,-1.7209,-1.7297,-1.7412,-1.7595,-1.7758,-1.786,-1.7623,-1.748,-1.748,-1.7188,-1.6288,-1.4581,-1.2852,-1.1676,-1.1042,-1.1042,-1.1042,-1.1042,-1.0513,-1.0196,0.5016,0.3358,0.1787,0.0305,0.0,0.0,0.0,0.0,0.0,0.0,0.0,0.0,0.0,0.0,0.0,0.0,0.0,0.0,0.0,0.0,0.0,0.0,0.0,0.0,0.0,-0.2144,-0.3562,-0.365,-0.5879,-0.7635,-0.8215,-0.8336,-0.8681,-0.9262,-1.1599,-1.277,-1.277,-1.5248,-1.6425,-1.6425,-1.7006,-1.7343,-1.7349,-1.8059,-1.8284,-1.8181,-1.5825,-1.6186,-1.84,-1.84,-1.84,-1.84,-1.84,-1.84,-1.84,-1.84,-1.84,-1.84,-1.84,-1.84,-1.84,-1.8523,-1.8639,-1.8639,-1.8762,-1.8762,-1.8762,-1.8742,-1.8762,-1.8762,-1.8762,-1.8762,-1.8762,-1.8762,-1.8762,-1.8762,-1.8762,-1.8762,-1.8708,-1.8565,-1.8531,-1.8477,-1.8335,-1.8057,-1.7914,-1.8057,-1.7582,-1.7263,-1.7405,-1.7168,-1.6992,-1.6992,-1.7243,-1.7412,-1.7419,-1.7684,-1.786,-1.786,-1.7717,-1.7629,-1.7629,-1.7344,-1.7182,-1.7069,-1.673,-1.5599,-1.3469,-1.3469,-1.3469,-1.3364,-1.1253,-1.0196,0.3374,0.255,0.1795,0.037,0.0,0.0,0.0,0.0,0.0,0.0,0.0,0.0,0.0,0.0,0.0,0.0,0.0,0.0,0.0,0.0,-0.0608,-0.2299,-0.2409,-0.3109,-0.461,-0.6021,-0.6719,-0.6699,-0.9507,-1.1257,-1.1491,-1.3018,-1.3956,-1.4194,-1.5126,-1.5487,-1.5487,-1.6425,-1.7135,-1.7478,-1.7704,-1.8059,-1.84,-1.8646,-1.8762,-1.8762,-1.782,-1.7943,-1.8762,-1.8762,-1.8762,-1.8762,-1.8762,-1.8762,-1.8762,-1.8762,-1.8762,-1.8762,-1.8762,-1.8762,-1.8762,-1.8762,-1.8762,-1.8762,-1.8762,-1.8762,-1.8762,-1.8762,-1.8762,-1.8762,-1.8762,-1.8762,-1.8762,-1.8762,-1.8762,-1.8762,-1.8762,-1.8762,-1.8708,-1.8565,-1.8464,-1.8355,-1.8199,-1.8002,-1.7846,-1.7806,-1.7541,-1.7324,-1.7283,-1.71,-1.6978,-1.6978,-1.7243,-1.7419,-1.7419,-1.7684,-1.786,-1.786,-1.7717,-1.765,-1.765,-1.7358,-1.7195,-1.7195,-1.7053,-1.6558,-1.5809,-1.5809,-1.5809,-1.5809,-1.4961,-1.454,0.2342,0.173,0.1139,0.0254,0.0,0.0,0.0,0.0,0.0,0.0,0.0,0.0,0.0,0.0,0.0,0.0,0.0,-0.0239,-0.1209,-0.1328,-0.2166,-0.4798,-0.5249,-0.6043,-0.7643,-0.9152,-0.9968,-0.9968,-1.2663,-1.4417,-1.4655,-1.6302,-1.7361,-1.7484,-1.7484,-1.7484,-1.7484,-1.7484,-1.7717,-1.8181,-1.8181,-1.84,-1.8762,-1.8762,-1.8762,-1.8762,-1.8762,-1.8762,-1.8762,-1.8762,-1.8762,-1.8762,-1.8762,-1.8762,-1.8762,-1.8762,-1.8762,-1.8762,-1.8762,-1.8762,-1.8762,-1.8762,-1.8762,-1.8762,-1.8762,-1.8762,-1.8762,-1.8762,-1.8762,-1.8762,-1.8762,-1.8762,-1.8762,-1.8762,-1.8762,-1.8762,-1.8762,-1.8728,-1.864,-1.8498,-1.8335,-1.8199,-1.8036,-1.7935,-1.7826,-1.7738,-1.7595,-1.746,-1.7358,-1.7175,-1.7073,-1.7121,-1.7304,-1.7439,-1.7494,-1.7724,-1.786,-1.786,-1.7772,-1.7717,-1.7717,-1.748,-1.7324,-1.727,-1.7127,-1.7026,-1.6978,-1.6978,-1.6978,-1.6978,-1.6978,-1.6978,0.0,0.0,0.0,0.0,0.0,0.0,0.0,0.0,0.0,0.0,0.0,0.0,0.0,0.0,0.0,0.0,-0.0119,-0.0953,-0.3452,-0.3831,-0.4795,-0.7376,-0.8189,-0.8635,-0.8687,-1.1483,-1.3246,-1.3246,-1.5604,-1.7239,-1.782,-1.782,-1.8181,-1.8762,-1.8762,-1.8762,-1.8762,-1.8762,-1.8762,-1.8762,-1.8762,-1.8762,-1.8762,-1.8762,-1.8762,-1.8762,-1.8762,-1.8762,-1.8762,-1.8762,-1.8762,-1.8762,-1.8762,-1.8762,-1.8762,-1.8762,-1.8762,-1.8762,-1.8762,-1.8762,-1.8762,-1.8762,-1.8762,-1.8762,-1.8762,-1.8762,-1.8762,-1.8762,-1.8762,-1.8762,-1.8762,-1.8762,-1.8762,-1.8762,-1.8762,-1.8762,-1.8762,-1.864,-1.8477,-1.8355,-1.8199,-1.8036,-1.7901,-1.786,-1.786,-1.786,-1.7738,-1.765,-1.754,-1.7378,-1.7249,-1.7399,-1.7419,-1.748,-1.7629,-1.7772,-1.786,-1.786,-1.786,-1.786,-1.786,-1.7717,-1.7582,-1.7433,-1.727,-1.7127,-1.6985,-1.6985,-1.6978,-1.6978,-1.6978,-1.6978,0.0558,0.0,0.0,0.0,0.0,0.0,0.0,0.0,0.0,0.0,0.0,0.0,0.0,0.0,0.0,0.0,-0.1527,-0.2957,-0.3687,-0.5311,-0.7393,-1.036,-1.0839,-1.1819,-1.4176,-1.5578,-1.6433,-1.6523,-1.7581,-1.8304,-1.8523,-1.8523,-1.8639,-1.8762,-1.8762,-1.8762,-1.8762,-1.8762,-1.8762,-1.8762,-1.8762,-1.8762,-1.8762,-1.8762,-1.8762,-1.8762,-1.8762,-1.8694,-1.8599,-1.8708,-1.8762,-1.8762,-1.8762,-1.8762,-1.8762,-1.8762,-1.8762,-1.8762,-1.8762,-1.8762,-1.8762,-1.8762,-1.8762,-1.8762,-1.8762,-1.8762,-1.8762,-1.8762,-1.8762,-1.8762,-1.8762,-1.8762,-1.8762,-1.8762,-1.8762,-1.8762,-1.8762,-1.8565,-1.8375,-1.8321,-1.8199,-1.8036,-1.7901,-1.786,-1.786,-1.786,-1.7738,-1.7609,-1.75,-1.7311,-1.7209,-1.7249,-1.7351,-1.748,-1.7629,-1.7684,-1.7758,-1.786,-1.7772,-1.7758,-1.786,-1.7717,-1.7629,-1.7589,-1.7324,-1.7175,-1.7134,-1.7032,-1.6978,-1.6978,-1.6978,-1.6978,0.0,0.0,0.0,0.0,0.0,0.0,0.0,0.0,0.0,0.0,0.0,0.0,0.0,0.0,0.0,0.0,-0.326,-0.5741,-0.5649,-0.7702,-1.0441,-1.3473,-1.4057,-1.4917,-1.6831,-1.7536,-1.7925,-1.8076,-1.8436,-1.8694,-1.8762,-1.8762,-1.8762,-1.8762,-1.8762,-1.8762,-1.8762,-1.8762,-1.8762,-1.8762,-1.8762,-1.8762,-1.8762,-1.8694,-1.8708,-1.8762,-1.864,-1.8565,-1.8531,-1.8565,-1.862,-1.8674,-1.8742,-1.8762,-1.8762,-1.8762,-1.8762,-1.8762,-1.8762,-1.8762,-1.8762,-1.8762,-1.8762,-1.8762,-1.8762,-1.8762,-1.8762,-1.8762,-1.8762,-1.8762,-1.8762,-1.8762,-1.8762,-1.8762,-1.8762,-1.8762,-1.8762,-1.8565,-1.8389,-1.8335,-1.8145,-1.7968,-1.788,-1.786,-1.786,-1.786,-1.7792,-1.7684,-1.7534,-1.7385,-1.7311,-1.7378,-1.7405,-1.7507,-1.7717,-1.7738,-1.7772,-1.786,-1.7792,-1.7772,-1.786,-1.7717,-1.765,-1.765,-1.7412,-1.7256,-1.7195,-1.7053,-1.6978,-1.6978,-1.6978,-1.6978,0.0,0.0,0.0,0.0,0.0,0.0,0.0,0.0,0.0,0.0,0.0,0.0,0.0,0.0,0.0,0.0,-0.4782,-0.8396,-0.8227,-1.0653,-1.3514,-1.6284,-1.7035,-1.7369,-1.7488,-1.7954,-1.8355,-1.8498,-1.8511,-1.8599,-1.8762,-1.8762,-1.8762,-1.8762,-1.8762,-1.8762,-1.8762,-1.8762,-1.8762,-1.8742,-1.8762,-1.8742,-1.8708,-1.8586,-1.8599,-1.8694,-1.8423,-1.8389,-1.8477,-1.8375,-1.8389,-1.8531,-1.8674,-1.8728,-1.8708,-1.8742,-1.8742,-1.8742,-1.8762,-1.8762,-1.8762,-1.8762,-1.8762,-1.8762,-1.8762,-1.8762,-1.8762,-1.8762,-1.8762,-1.8762,-1.8762,-1.8762,-1.8762,-1.8762,-1.8762,-1.8762,-1.8762,-1.864,-1.8498,-1.8489,-1.8202,-1.788,-1.786,-1.786,-1.786,-1.786,-1.7846,-1.7792,-1.7663,-1.7514,-1.748,-1.7629,-1.7514,-1.7541,-1.7846,-1.7826,-1.7826,-1.786,-1.7846,-1.7846,-1.786,-1.7717,-1.765,-1.767,-1.7507,-1.7338,-1.7168,-1.7039,-1.6978,-1.6978,-1.6978,-1.6978,0.0,0.0,0.0,0.0,0.0,0.0,0.0,0.0,0.0,0.0,0.0,0.0,0.0,0.0,0.0,0.0,-0.4637,-0.8287,-0.8402,-1.2557,-1.605,-1.7073,-1.7089,-1.7334,-1.7893,-1.8033,-1.8199,-1.8355,-1.8464,-1.8599,-1.8762,-1.8762,-1.8762,-1.8762,-1.8762,-1.8762,-1.8762,-1.8762,-1.8694,-1.8586,-1.8708,-1.864,-1.8409,-1.8498,-1.8477,-1.8409,-1.8335,-1.8267,-1.8179,-1.8287,-1.8335,-1.8375,-1.8511,-1.8511,-1.8443,-1.8674,-1.8694,-1.8599,-1.8728,-1.8762,-1.8762,-1.8762,-1.8762,-1.8762,-1.8762,-1.8762,-1.8762,-1.8762,-1.8762,-1.8762,-1.8762,-1.8762,-1.8762,-1.8762,-1.8762,-1.8762,-1.8762,-1.864,-1.8632,-1.9184,-1.8585,-1.8002,-1.788,-1.786,-1.786,-1.786,-1.7758,-1.7684,-1.765,-1.7514,-1.748,-1.7629,-1.7514,-1.7541,-1.7846,-1.765,-1.7609,-1.7846,-1.7758,-1.7738,-1.786,-1.7717,-1.7704,-1.7826,-1.7555,-1.729,-1.7019,-1.6992,-1.6978,-1.6978,-1.6978,-1.6978,-0.0067,0.0,0.0,0.0,0.0,0.0,0.0,0.0,0.0,0.0,0.0,0.0,0.0,0.0,0.0,0.0,-0.4913,-0.8293,-0.7118,-1.2634,-1.704,-1.7643,-1.751,-1.7555,-1.7968,-1.7989,-1.8077,-1.8301,-1.8443,-1.8599,-1.8762,-1.8762,-1.8728,-1.8654,-1.8654,-1.862,-1.8552,-1.8552,-1.8498,-1.8423,-1.8498,-1.8464,-1.8321,-1.8321,-1.8321,-1.8321,-1.8158,-1.8091,-1.8091,-1.8091,-1.8091,-1.8111,-1.8335,-1.8423,-1.8443,-1.8586,-1.8654,-1.8654,-1.8728,-1.8762,-1.8762,-1.8762,-1.8762,-1.8762,-1.8762,-1.8762,-1.8762,-1.8762,-1.8762,-1.8762,-1.8762,-1.8762,-1.8878,-1.9219,-1.9226,-1.9342,-1.9683,-1.9626,-1.9655,-1.9913,-1.9547,-1.905,-1.8671,-1.8321,-1.8036,-1.788,-1.7806,-1.7704,-1.7555,-1.7467,-1.748,-1.7629,-1.7582,-1.7623,-1.7846,-1.7724,-1.7704,-1.7846,-1.7717,-1.7684,-1.7758,-1.7541,-1.7453,-1.7528,-1.746,-1.7311,-1.7087,-1.7019,-1.6978,-1.6978,-1.6978,-1.6978,-0.027,0.0,0.0,0.0,0.0,0.0,0.0,0.0,0.0,0.0,0.0,0.0,0.0,0.0,0.0,-0.0085,-0.4795,-0.7684,-0.5584,-1.1431,-1.5973,-1.6372,-1.7315,-1.7675,-1.718,-1.7466,-1.7758,-1.8233,-1.8213,-1.8335,-1.8654,-1.8708,-1.8654,-1.8498,-1.8498,-1.8443,-1.8321,-1.8321,-1.8301,-1.8287,-1.8301,-1.8287,-1.8233,-1.8124,-1.8145,-1.8213,-1.7968,-1.7935,-1.8036,-1.7914,-1.786,-1.7901,-1.8199,-1.8355,-1.8409,-1.8531,-1.862,-1.8694,-1.8742,-1.8762,-1.8762,-1.8762,-1.8762,-1.8762,-1.8762,-1.8762,-1.8762,-1.8885,-1.9001,-1.9001,-1.9103,-1.9103,-1.9226,-1.9799,-1.9922,-2.0023,-2.0486,-2.0601,-2.0564,-2.0667,-2.053,-2.0234,-1.9475,-1.8966,-1.8509,-1.8129,-1.8033,-1.782,-1.7494,-1.7439,-1.7487,-1.767,-1.7663,-1.7704,-1.7846,-1.7846,-1.7826,-1.786,-1.7758,-1.7684,-1.765,-1.7385,-1.7209,-1.7154,-1.7297,-1.7304,-1.7154,-1.7039,-1.6978,-1.6978,-1.6978,-1.6978,-0.071,0.0,0.0,0.0,0.0,0.0,0.0,0.0,0.0,0.0,0.0,0.0,0.0,0.0,0.0,-0.0418,-0.3301,-0.5491,-0.5451,-0.864,-1.1018,-1.1195,-1.5203,-1.7005,-1.466,-1.5629,-1.6937,-1.8036,-1.7399,-1.7372,-1.8321,-1.8498,-1.8498,-1.8355,-1.8335,-1.8335,-1.8321,-1.8321,-1.8247,-1.8124,-1.8247,-1.8179,-1.7914,-1.8036,-1.8023,-1.7914,-1.788,-1.788,-1.788,-1.786,-1.786,-1.7901,-1.8199,-1.8158,-1.8002,-1.8531,-1.8586,-1.8409,-1.8674,-1.8762,-1.8762,-1.8762,-1.8762,-1.8762,-1.8762,-1.8762,-1.8885,-1.9458,-1.9567,-1.9683,-2.0262,-2.0363,-2.0363,-2.0486,-2.0486,-2.0486,-2.0601,-2.0601,-2.0724,-2.1287,-2.0925,-2.049,-2.0177,-1.9885,-1.95,-1.8779,-1.8399,-1.8042,-1.7609,-1.7507,-1.7528,-1.7812,-1.7717,-1.7704,-1.7846,-1.7738,-1.7717,-1.786,-1.7846,-1.7772,-1.765,-1.7487,-1.727,-1.7012,-1.7148,-1.7148,-1.7005,-1.6985,-1.6978,-1.6978,-1.6978,-1.6978,-0.0417,-0.1257,-0.2163,-0.0467,-0.1305,-0.2182,-0.0384,0.0,0.0,0.0,0.0,0.0,0.0,0.0,0.0,0.0,-0.3319,-0.4793,-0.3427,-0.7096,-1.0387,-1.1423,-1.338,-1.485,-1.5246,-1.6168,-1.7087,-1.8023,-1.75,-1.7487,-1.8287,-1.8287,-1.8247,-1.8199,-1.8111,-1.8057,-1.8057,-1.8057,-1.8023,-1.7968,-1.8023,-1.7989,-1.786,-1.7935,-1.7914,-1.786,-1.786,-1.786,-1.786,-1.786,-1.786,-1.788,-1.8111,-1.8111,-1.8023,-1.8287,-1.8355,-1.8355,-1.8552,-1.862,-1.864,-1.8728,-1.8987,-1.9342,-1.9342,-1.956,-1.9922,-2.0146,-2.0262,-2.0262,-2.0486,-2.0542,-2.0467,-2.0926,-2.1041,-2.1049,-2.15,-2.1586,-2.1764,-2.2011,-2.1887,-2.1725,-2.1583,-2.0728,-1.9922,-1.9346,-1.9177,-1.898,-1.8624,-1.8241,-1.8065,-1.8391,-1.8033,-1.7792,-1.786,-1.7812,-1.7792,-1.786,-1.7704,-1.7541,-1.7392,-1.7324,-1.7188,-1.6985,-1.7121,-1.7121,-1.6978,-1.6978,-1.6978,-1.6978,-1.6978,-1.6978,-0.1951,-0.3021,-0.3946,-0.0875,-0.1789,-0.2825,-0.0636,-0.0124,-0.0186,-0.0249,-0.0312,0.0,0.0,0.0,0.0,0.0,0.0,-0.3776,-0.1937,-0.5518,-0.8793,-1.0139,-1.1243,-1.3005,-1.5576,-1.6062,-1.6578,-1.7534,-1.7222,-1.7344,-1.8145,-1.8091,-1.8023,-1.8023,-1.788,-1.7826,-1.786,-1.786,-1.786,-1.786,-1.786,-1.786,-1.786,-1.786,-1.786,-1.786,-1.786,-1.786,-1.786,-1.786,-1.7977,-1.8088,-1.8218,-1.8364,-1.8482,-1.8243,-1.8233,-1.8335,-1.8477,-1.8667,-1.8843,-1.8946,-1.9458,-1.9907,-1.9907,-2.0262,-2.0609,-2.084,-2.0848,-2.0848,-2.1064,-2.0987,-2.1003,-2.1461,-2.1583,-2.1705,-2.2155,-2.2383,-2.2472,-2.2472,-2.2472,-2.2448,-2.2342,-2.1422,-2.0509,-1.9981,-1.9845,-1.974,-1.9394,-1.9053,-1.8689,-1.8736,-1.8302,-1.8088,-1.786,-1.786,-1.786,-1.786,-1.7623,-1.7433,-1.7324,-1.7236,-1.7148,-1.7039,-1.71,-1.708,-1.6978,-1.6978,-1.6978,-1.6978,-1.6978,-1.6978,-0.659,-0.5123,-0.4449,-0.1258,-0.0577,-0.0575,-0.042,-0.0423,-0.0553,-0.0909,-0.1001,-0.109,-0.1076,0.0,0.0,0.0,0.0,0.0,0.0,-0.3319,-0.4408,-0.4795,-0.8461,-1.1983,-1.4517,-1.4414,-1.4774,-1.6252,-1.6083,-1.6483,-1.7812,-1.788,-1.786,-1.786,-1.7738,-1.7717,-1.786,-1.786,-1.786,-1.786,-1.786,-1.786,-1.786,-1.786,-1.786,-1.786,-1.786,-1.786,-1.786,-1.786,-1.8205,-1.864,-1.864,-1.8985,-1.9464,-1.8544,-1.8321,-1.8335,-1.8477,-1.8979,-1.9683,-1.9683,-2.0023,-2.0601,-2.0601,-2.0601,-2.0724,-2.1302,-2.1426,-2.1664,-2.2225,-2.2464,-2.2464,-2.2464,-2.2464,-2.2464,-2.2464,-2.2472,-2.2472,-2.2472,-2.2472,-2.2359,-2.2017,-2.184,-2.1655,-2.0905,-2.0466,-2.0039,-1.9488,-1.9379,-1.9228,-1.8736,-1.864,-1.8412,-1.7977,-1.786,-1.786,-1.786,-1.7717,-1.7629,-1.7629,-1.7351,-1.7188,-1.7182,-1.7053,-1.6985,-1.6978,-1.6978,-1.6978,-1.6978,-1.6978,-1.6978,-0.8473,-0.9447,-0.9761,-0.4844,-0.5097,-0.5534,-0.1653,-0.0797,-0.0861,-0.0908,-0.0993,-0.1079,-0.1326,0.0,0.0,0.0,0.0,0.0,0.0,-0.5121,-0.6674,-0.6871,-0.9866,-1.2314,-1.3287,-1.4346,-1.5289,-1.6096,-1.6517,-1.7066,-1.7826,-1.767,-1.7616,-1.7717,-1.748,-1.7467,-1.7717,-1.7717,-1.7772,-1.786,-1.786,-1.786,-1.786,-1.786,-1.786,-1.7977,-1.8316,-1.8412,-1.8412,-1.8853,-1.9081,-1.9309,-1.9309,-1.9405,-1.9537,-1.9308,-1.9137,-1.9173,-1.9439,-1.9913,-2.0262,-2.0262,-2.0724,-2.1187,-2.1187,-2.1541,-2.1887,-2.2126,-2.2126,-2.225,-2.2464,-2.2383,-2.2277,-2.2277,-2.2277,-2.2277,-2.2277,-2.2383,-2.2472,-2.2472,-2.2472,-2.2383,-2.2147,-2.2017,-2.167,-2.1039,-2.0975,-2.0935,-2.0598,-2.0342,-1.9895,-1.9405,-1.8964,-1.853,-1.7977,-1.786,-1.786,-1.786,-1.7717,-1.7602,-1.75,-1.7304,-1.7148,-1.7053,-1.7005,-1.6978,-1.6978,-1.6978,-1.6978,-1.6978,-1.6876,-1.6883,-1.1357,-1.2486,-1.2809,-0.7969,-0.8156,-0.8479,-0.4242,-0.3358,-0.338,-0.3397,-0.3085,-0.3136,-0.4277,0.0,0.0,0.0,0.0,0.0,0.0,-0.6598,-0.8022,-0.8644,-1.0535,-1.2094,-1.2671,-1.3587,-1.4699,-1.6062,-1.6361,-1.6883,-1.7812,-1.7629,-1.7548,-1.765,-1.7405,-1.7365,-1.7568,-1.7841,-1.7909,-1.7792,-1.8281,-1.8412,-1.8205,-1.8412,-1.853,-1.853,-1.8853,-1.8971,-1.9081,-1.9405,-1.9743,-1.9955,-1.9955,-2.0073,-2.0183,-1.975,-1.9707,-1.9849,-2.0177,-2.0552,-2.0963,-2.0963,-2.131,-2.1887,-2.1887,-2.2126,-2.2472,-2.2472,-2.2472,-2.2472,-2.2472,-2.2383,-2.2302,-2.2302,-2.2302,-2.2302,-2.2302,-2.2383,-2.2472,-2.2472,-2.2407,-2.2318,-2.2131,-2.1961,-2.1725,-2.136,-2.136,-2.1343,-2.123,-2.0999,-2.0623,-1.9955,-1.9405,-1.8757,-1.7977,-1.786,-1.786,-1.786,-1.7772,-1.765,-1.7507,-1.7358,-1.7229,-1.7141,-1.7032,-1.7005,-1.706,-1.7005,-1.6951,-1.6897,-1.6795,-1.6802]},{"header":{"parameterUnit":"m.s-1","parameterCategory":1,"la1":30.6,"la2":29.2853,"lo1":-89.7004,"lo2":-87.6739,"dx":0.0162,"dy":0.0183,"nx":112,"ny":82,"refTime":"2022-12-17T18:00:00:Z","depth":0,"parameterNumber":3,"parameterNumberName":"V-component_of_WINDS"},"data":[0.0,0.0,0.0,0.0,0.0,0.0,0.0,0.0,0.0,0.0,0.0,0.0,0.0,0.0,0.0,0.0,0.0,0.0,0.0,0.0,0.0,0.0,0.0,0.0,0.0,0.0,0.0,0.0,0.0,0.0,0.0,0.0,0.0,0.0,0.0,0.0,0.0,0.0,0.0,0.0,0.0,0.0,0.0,0.0,0.0,0.0,0.0,0.0,0.0,0.0,0.0,0.0,0.0,0.0,0.0,0.0,0.0,0.0,0.0,0.0,0.0,0.0,0.0,0.0,0.0,0.0,0.0,0.0,0.0,0.0,0.0,0.0,0.0,0.0,0.0,0.0,0.0,0.0,0.0,0.0,0.0,0.0,0.0,0.0,0.0,0.0,0.0,0.0,0.0,0.0,4.8422,4.9817,5.2725,5.3876,5.2188,5.1924,4.955,4.4118,0.0,0.0,0.0,0.0,0.0,0.0,0.0,0.0,0.0,0.0,0.0,0.0,0.0,0.0,0.0,0.0,0.0,0.0,0.0,0.0,0.0,0.0,0.0,0.0,0.0,0.0,0.0,0.0,0.0,0.0,0.0,0.0,0.0,0.0,0.0,0.0,0.0,0.0,0.0,0.0,0.0,0.0,0.0,0.0,0.0,0.0,0.0,0.0,0.0,0.0,0.0,0.0,0.0,0.0,0.0,0.0,0.0,0.0,0.0,0.0,0.0,0.0,0.0,0.0,0.0,0.0,0.0,0.0,0.0,0.0,0.0,0.0,0.0,0.0,0.0,0.0,0.0,0.0,0.0,0.0,0.0,0.0,0.0,0.0,0.0,0.0,0.0,0.0,0.0,0.0,0.0,0.0,0.0,0.0,0.0,0.0,0.0,0.0,0.0,0.0,0.0,0.0,0.0,0.0,4.9522,5.3901,5.5377,5.5394,5.3796,5.2958,5.0297,4.5065,0.0,0.0,0.0,0.0,0.0,0.0,0.0,0.0,0.0,0.0,0.0,0.0,0.0,0.0,0.0,0.0,0.0,0.0,0.0,0.0,0.0,0.0,0.0,0.0,0.0,0.0,0.0,0.0,0.0,0.0,0.0,0.0,0.0,0.0,0.0,0.0,0.0,0.0,0.0,0.0,0.0,0.0,0.0,0.0,0.0,0.0,0.0,0.0,0.0,0.0,0.0,0.0,0.0,0.0,0.0,0.0,0.0,0.0,0.0,0.0,0.0,0.0,0.0,0.0,0.0,0.0,0.0,0.0,0.0,0.0,0.0,0.0,0.0,0.0,0.0,0.0,0.0,0.0,0.0,0.0,0.0,0.0,0.0,0.0,0.0,0.0,0.0,0.0,0.0,0.0,0.0,0.0,0.0,0.0,0.0,0.0,0.0,0.0,0.0,0.0,0.0,0.0,0.0,4.8646,5.1598,5.6678,5.7478,5.6848,5.4781,5.4663,5.1973,4.5634,4.2667,0.0,0.0,0.0,0.0,0.0,0.0,0.0,0.0,0.0,0.0,0.0,0.0,0.0,0.0,0.0,0.0,0.0,0.0,0.0,0.0,0.0,0.0,0.0,0.0,0.0,0.0,0.0,0.0,0.0,0.0,0.0,0.0,0.0,0.0,0.0,0.0,0.0,0.0,0.0,0.0,0.0,0.0,0.0,0.0,0.0,0.0,0.0,0.0,0.0,0.0,0.0,0.0,0.0,0.0,0.0,0.0,0.0,0.0,0.0,0.0,0.0,0.0,0.0,0.0,0.0,0.0,0.0,0.0,0.0,0.0,0.0,0.0,0.0,0.0,0.0,0.0,0.0,0.0,0.0,0.0,0.0,0.0,0.0,0.0,0.0,0.0,0.0,0.0,0.0,0.0,0.0,0.0,0.0,0.0,0.0,0.0,0.0,0.0,0.0,0.0,0.0,0.0,5.2604,5.4994,5.8688,5.9072,5.8248,5.6125,5.6228,5.3534,4.6801,4.3943,0.0,0.0,0.0,0.0,0.0,0.0,0.0,0.0,0.0,0.0,0.0,0.0,0.0,0.0,0.0,0.0,0.0,0.0,0.0,0.0,0.0,0.0,0.0,0.0,0.0,0.0,0.0,0.0,0.0,0.0,0.0,0.0,0.0,0.0,0.0,0.0,0.0,0.0,0.0,0.0,0.0,0.0,0.0,0.0,0.0,0.0,0.0,0.0,0.0,0.0,0.0,0.0,0.0,0.0,0.0,0.0,0.0,0.0,0.0,0.0,0.0,0.0,0.0,0.0,0.0,0.0,0.0,0.0,0.0,0.0,0.0,0.0,0.0,0.0,0.0,0.0,0.0,0.0,0.0,0.0,0.0,0.0,0.0,0.0,0.0,0.0,0.0,0.0,0.0,0.0,0.0,0.0,0.0,0.0,0.0,0.0,0.0,0.0,0.0,0.0,0.0,0.0,5.6697,6.0415,5.9956,5.9908,5.9529,5.8646,5.7233,5.4242,4.9259,4.4884,0.0,0.0,0.0,0.0,0.0,0.0,0.0,0.0,0.0,0.0,0.0,0.0,0.0,0.0,0.0,0.0,0.0,0.0,0.0,0.0,0.0,0.0,0.0,0.0,0.0,0.0,0.0,0.0,0.0,0.0,0.0,0.0,0.0,0.0,0.0,0.0,0.0,0.0,0.0,0.0,0.0,0.0,0.0,0.0,0.0,0.0,0.0,0.0,0.0,0.0,0.0,0.0,0.0,0.0,0.0,0.0,0.0,0.0,0.0,0.0,0.0,0.0,0.0,0.0,0.0,0.0,0.0,0.0,0.0,0.0,0.0,0.0,0.0,0.0,0.0,0.0,0.0,0.0,0.0,0.0,0.0,0.0,0.0,0.0,0.0,0.0,0.0,0.0,0.0,0.0,0.0,0.0,0.0,0.0,0.0,0.0,0.0,0.0,0.0,0.0,0.0,0.0,5.6156,5.9933,6.1984,6.2179,6.1475,5.9717,5.9472,5.625,4.8729,0.0,0.0,0.0,0.0,0.0,0.0,0.0,0.0,0.0,0.0,0.0,0.0,0.0,0.0,0.0,0.0,0.0,0.0,0.0,0.0,0.0,0.0,0.0,0.0,0.0,0.0,0.0,0.0,0.0,0.0,0.0,0.0,0.0,0.0,0.0,0.0,0.0,0.0,0.0,0.0,0.0,0.0,0.0,0.0,0.0,0.0,0.0,0.0,0.0,0.0,0.0,0.0,0.0,0.0,0.0,0.0,0.0,0.0,0.0,0.0,0.0,0.0,0.0,0.0,0.0,0.0,0.0,0.0,0.0,0.0,0.0,0.0,0.0,0.0,0.0,0.0,0.0,0.0,0.0,0.0,0.0,0.0,0.0,0.0,0.0,0.0,0.0,0.0,0.0,0.0,0.0,0.0,0.0,0.0,0.0,0.0,0.0,0.0,0.0,0.0,0.0,0.0,5.2195,5.7147,6.1223,6.3798,6.3786,6.3079,6.1756,6.1514,5.7839,4.9491,0.0,0.0,0.0,0.0,0.0,0.0,0.0,0.0,0.0,0.0,0.0,0.0,0.0,0.0,0.0,0.0,0.0,0.0,0.0,0.0,0.0,0.0,0.0,0.0,0.0,0.0,0.0,0.0,0.0,0.0,0.0,0.0,0.0,0.0,0.0,0.0,0.0,0.0,0.0,0.0,0.0,0.0,0.0,0.0,0.0,0.0,0.0,0.0,0.0,0.0,0.0,0.0,0.0,0.0,0.0,0.0,0.0,0.0,0.0,0.0,0.0,0.0,0.0,0.0,0.0,0.0,0.0,0.0,0.0,0.0,0.0,0.0,0.0,0.0,0.0,0.0,0.0,0.0,0.0,0.0,0.0,0.0,0.0,0.0,0.0,0.0,0.0,0.0,0.0,0.0,0.0,0.0,0.0,0.0,0.0,0.0,0.0,0.0,0.0,0.0,0.0,0.0,5.3647,6.0535,6.5328,6.5328,6.4449,6.42,6.5226,6.3051,5.8751,0.0,0.0,0.0,0.0,0.0,0.0,0.0,0.0,0.0,0.0,0.0,0.0,0.0,0.0,0.0,0.0,0.0,0.0,0.0,0.0,0.0,0.0,0.0,0.0,0.0,0.0,0.0,0.0,0.0,0.0,0.0,0.0,0.0,0.0,0.0,0.0,0.0,0.0,0.0,0.0,0.0,0.0,0.0,0.0,0.0,0.0,0.0,0.0,0.0,0.0,0.0,0.0,0.0,0.0,0.0,0.0,0.0,0.0,0.0,0.0,0.0,0.0,0.0,0.0,0.0,0.0,0.0,0.0,0.0,0.0,0.0,0.0,0.0,0.0,0.0,0.0,0.0,0.0,0.0,0.0,0.0,0.0,0.0,0.0,0.0,0.0,0.0,0.0,0.0,0.0,0.0,0.0,0.0,0.0,0.0,0.0,0.0,0.0,0.0,0.0,0.0,0.0,0.0,5.5009,6.1627,6.6245,6.6792,6.6137,6.5557,6.5328,6.464,6.0603,5.2147,0.0,0.0,0.0,0.0,0.0,0.0,0.0,0.0,0.0,0.0,0.0,0.0,0.0,0.0,0.0,0.0,0.0,0.0,0.0,0.0,0.0,0.0,0.0,0.0,0.0,0.0,0.0,0.0,0.0,0.0,0.0,0.0,0.0,0.0,0.0,0.0,0.0,0.0,0.0,0.0,0.0,0.0,0.0,0.0,0.0,0.0,0.0,0.0,0.0,0.0,0.0,0.0,0.0,0.0,0.0,0.0,0.0,0.0,0.0,0.0,0.0,0.0,0.0,0.0,0.0,0.0,0.0,0.0,0.0,0.0,0.0,0.0,0.0,0.0,0.0,0.0,0.0,0.0,0.0,0.0,0.0,0.0,0.0,0.0,0.0,0.0,0.0,0.0,0.0,0.0,0.0,0.0,0.0,0.0,0.0,0.0,0.0,0.0,0.0,0.0,0.0,0.0,5.6304,6.3251,6.8171,6.8617,6.7644,6.6919,6.6901,6.5965,6.2395,5.5379,0.0,0.0,0.0,0.0,0.0,0.0,0.0,0.0,0.0,0.0,0.0,0.0,0.0,0.0,0.0,0.0,0.0,0.0,0.0,0.0,0.0,0.0,0.0,0.0,0.0,0.0,0.0,0.0,0.0,0.0,0.0,0.0,0.0,0.0,0.0,0.0,0.0,0.0,0.0,0.0,0.0,0.0,0.0,0.0,0.0,0.0,0.0,0.0,0.0,0.0,0.0,0.0,0.0,0.0,0.0,0.0,0.0,0.0,0.0,0.0,0.0,0.0,0.0,0.0,0.0,0.0,0.0,0.0,0.0,0.0,0.0,0.0,0.0,0.0,0.0,0.0,0.0,0.0,0.0,0.0,0.0,0.0,0.0,0.0,0.0,0.0,0.0,0.0,0.0,0.0,0.0,0.0,0.0,0.0,0.0,0.0,0.0,0.0,0.0,0.0,0.0,0.0,5.7432,6.5103,7.0429,7.0463,6.9026,6.8401,6.9325,6.734,6.4442,6.056,0.0,0.0,0.0,0.0,0.0,0.0,0.0,0.0,0.0,0.0,0.0,0.0,0.0,0.0,0.0,0.0,0.0,0.0,0.0,0.0,0.0,0.0,0.0,0.0,0.0,0.0,0.0,0.0,0.0,0.0,0.0,0.0,0.0,0.0,0.0,0.0,0.0,0.0,0.0,0.0,0.0,0.0,0.0,0.0,0.0,0.0,0.0,0.0,0.0,0.0,0.0,0.0,0.0,0.0,0.0,0.0,0.0,0.0,0.0,0.0,5.2033,4.8341,0.0,0.0,0.0,0.0,0.0,0.0,0.0,0.0,0.0,0.0,0.0,0.0,0.0,0.0,0.0,0.0,0.0,0.0,0.0,0.0,0.0,0.0,0.0,0.0,0.0,0.0,0.0,0.0,0.0,0.0,0.0,0.0,0.0,0.0,0.0,0.0,0.0,0.0,0.0,0.0,5.8221,6.5451,7.0601,7.1187,7.0388,6.994,7.0153,6.9664,6.7487,6.2967,5.9081,0.0,0.0,0.0,0.0,0.0,0.0,0.0,0.0,0.0,0.0,0.0,0.0,0.0,0.0,0.0,0.0,0.0,0.0,0.0,0.0,0.0,0.0,0.0,0.0,0.0,0.0,0.0,0.0,0.0,0.0,0.0,0.0,0.0,0.0,0.0,0.0,0.0,0.0,0.0,0.0,0.0,0.0,0.0,0.0,0.0,0.0,0.0,0.0,0.0,0.0,0.0,0.0,0.0,0.0,0.0,0.0,0.0,0.0,0.0,5.6576,5.391,0.0,0.0,0.0,0.0,0.0,0.0,0.0,0.0,0.0,0.0,0.0,0.0,0.0,0.0,0.0,0.0,0.0,0.0,0.0,0.0,0.0,0.0,0.0,0.0,0.0,0.0,0.0,0.0,0.0,0.0,0.0,0.0,0.0,0.0,0.0,0.0,0.0,0.0,0.0,0.0,5.9631,6.7005,7.2153,7.2533,7.1601,7.0912,7.0912,7.0601,6.936,6.6936,6.2561,0.0,0.0,0.0,0.0,0.0,0.0,0.0,0.0,0.0,0.0,0.0,0.0,0.0,0.0,0.0,0.0,0.0,0.0,0.0,0.0,0.0,0.0,0.0,0.0,0.0,0.0,0.0,0.0,0.0,0.0,0.0,0.0,0.0,0.0,0.0,0.0,0.0,0.0,0.0,0.0,0.0,0.0,0.0,0.0,0.0,0.0,0.0,0.0,0.0,0.0,0.0,0.0,0.0,6.1695,6.2247,6.2692,6.3449,6.4562,6.5726,6.1811,6.0668,6.1177,5.7055,0.0,0.0,0.0,0.0,0.0,0.0,0.0,0.0,0.0,0.0,0.0,0.0,0.0,0.0,0.0,0.0,0.0,0.0,0.0,0.0,0.0,0.0,6.0665,6.1392,6.3725,6.4721,6.0595,0.0,0.0,0.0,0.0,0.0,0.0,0.0,0.0,0.0,0.0,0.0,6.1936,6.9141,7.3981,7.3981,7.2843,7.205,7.1912,7.1325,7.0912,7.0808,6.5704,6.2117,0.0,0.0,0.0,0.0,0.0,0.0,0.0,0.0,0.0,0.0,0.0,0.0,0.0,0.0,0.0,0.0,0.0,0.0,0.0,0.0,0.0,0.0,0.0,0.0,0.0,0.0,0.0,0.0,0.0,0.0,0.0,0.0,5.4171,5.4599,0.0,0.0,0.0,0.0,0.0,0.0,0.0,0.0,0.0,0.0,0.0,0.0,0.0,6.1693,6.3615,6.6264,6.7304,6.6839,6.9643,7.0696,7.0208,7.0941,7.1392,7.1588,7.0948,0.0,6.293,6.1005,0.0,0.0,0.0,0.0,0.0,0.0,0.0,0.0,0.0,0.0,0.0,0.0,0.0,0.0,0.0,0.0,0.0,0.0,0.0,0.0,0.0,0.0,7.091,7.1619,7.3208,7.4247,7.289,6.528,5.8545,5.7881,5.8121,5.6514,0.0,0.0,0.0,0.0,0.0,0.0,6.6527,7.1594,7.4731,7.4731,7.4559,7.4188,7.3533,7.3395,7.305,7.2471,6.9773,6.6704,6.3289,5.9806,0.0,0.0,0.0,0.0,0.0,0.0,0.0,0.0,0.0,0.0,0.0,0.0,0.0,0.0,0.0,0.0,0.0,0.0,0.0,0.0,0.0,0.0,0.0,0.0,0.0,0.0,0.0,0.0,0.0,5.3027,5.4483,5.4964,5.3624,5.2424,0.0,0.0,0.0,0.0,0.0,0.0,0.0,0.0,0.0,6.5391,6.5815,6.694,6.8948,7.0407,7.116,7.1303,7.2722,7.3432,7.3646,7.439,7.4469,7.4119,7.4548,7.2939,6.9807,6.6919,6.3971,6.1255,0.0,0.0,0.0,0.0,6.0291,6.0701,6.3718,6.4498,6.3956,6.2429,0.0,0.0,0.0,0.0,0.0,0.0,0.0,6.3105,6.7339,6.9933,7.2278,7.5641,7.6679,7.7007,7.7591,7.4389,6.9993,6.5154,6.2699,5.949,5.3384,5.506,0.0,0.0,0.0,6.8011,7.1682,7.4938,7.6942,7.6942,7.5361,7.4154,7.3809,7.3395,7.3015,7.2747,7.1325,6.9601,6.7497,6.3763,5.9199,0.0,0.0,0.0,0.0,0.0,0.0,0.0,0.0,0.0,0.0,0.0,0.0,0.0,0.0,0.0,0.0,0.0,0.0,0.0,0.0,0.0,0.0,0.0,0.0,0.0,0.0,0.0,0.0,5.6148,5.6957,5.7086,5.707,5.6444,0.0,0.0,0.0,0.0,0.0,0.0,6.5811,6.6741,6.8406,7.0855,7.1141,7.2211,7.4176,7.4392,7.4719,7.5119,7.5513,7.5836,7.6087,7.7271,7.7272,7.6442,7.7163,7.6948,7.58,7.2256,6.9772,6.8151,6.6978,6.5868,6.5033,6.6341,6.6834,6.7286,7.026,7.1247,7.1023,6.9515,6.8335,6.6998,6.4253,0.0,0.0,0.0,0.0,6.7378,7.1732,7.2984,7.4134,7.8238,7.9029,7.9176,8.0167,8.0438,7.865,7.2633,6.9487,6.5907,5.9773,6.1925,0.0,6.1692,6.7832,7.3723,7.6696,7.8441,7.9411,7.9411,7.7145,7.5541,7.5366,7.4502,7.3874,7.3584,7.2683,7.1922,7.1364,6.8011,6.4796,6.184,0.0,0.0,0.0,0.0,0.0,0.0,0.0,0.0,0.0,0.0,0.0,0.0,0.0,0.0,0.0,0.0,0.0,0.0,0.0,0.0,0.0,0.0,0.0,0.0,0.0,0.0,0.0,0.0,0.0,6.4309,6.5216,0.0,0.0,0.0,0.0,6.507,6.7242,6.9021,6.9943,7.1407,7.3398,7.5841,7.6707,7.748,7.8312,7.9045,7.9088,7.8377,7.9862,7.9826,7.8486,8.0767,8.0972,7.9595,8.0401,7.9895,7.827,7.5908,7.3547,7.1507,7.1398,7.003,6.8435,7.1318,7.2377,7.2834,7.5879,7.6876,7.6619,7.5005,7.2101,6.9563,7.1537,6.971,0.0,0.0,7.3566,7.4492,7.8322,7.9915,8.0539,8.0828,8.2003,8.292,8.2223,8.0403,7.9184,8.019,8.1465,8.0385,7.4201,0.0,7.5149,7.3575,7.4367,7.6731,8.1191,8.1866,8.1933,8.1933,8.1109,8.0249,7.9575,7.8191,7.6976,7.6078,7.4726,7.3975,7.3939,7.3042,7.0485,6.6157,6.4441,0.0,0.0,0.0,0.0,0.0,0.0,0.0,0.0,0.0,0.0,0.0,0.0,0.0,0.0,0.0,0.0,0.0,0.0,0.0,0.0,0.0,0.0,0.0,0.0,0.0,0.0,0.0,0.0,6.53,6.6895,0.0,6.6209,6.802,6.9953,7.15,7.4276,7.6498,7.7877,7.8495,7.9178,8.0064,8.0904,8.1187,8.0901,8.2223,8.2751,8.2479,8.3539,8.4051,8.4014,8.4854,8.4664,8.3654,8.3948,8.3484,8.2406,8.1583,7.9239,7.6218,7.669,7.6409,7.5853,7.692,7.7312,7.749,7.8526,7.8919,7.8883,7.8846,7.7914,7.7092,7.8446,7.7916,7.7198,7.8853,7.9324,7.9723,8.164,8.1966,8.2039,8.3067,8.3361,8.3471,8.3691,8.3521,8.3456,8.3988,8.1703,7.8665,7.5475,7.8252,7.9928,7.6958,7.9703,8.2823,8.4973,8.4425,8.3802,8.3725,8.1688,8.0204,7.9954,7.8523,7.7558,7.7307,7.6805,7.6302,7.5798,7.559,7.424,7.1539,7.0731,6.5642,0.0,0.0,0.0,0.0,0.0,0.0,0.0,0.0,0.0,0.0,0.0,0.0,0.0,0.0,0.0,0.0,0.0,0.0,0.0,0.0,0.0,0.0,0.0,0.0,0.0,6.6836,6.8976,6.7166,7.0337,7.2024,7.0345,7.3128,7.5835,7.7691,8.0052,8.1856,8.2957,8.3251,8.3398,8.3398,8.4205,8.4242,8.3398,8.4756,8.5416,8.5416,8.6224,8.6738,8.7031,8.7288,8.6811,8.5783,8.5783,8.5343,8.4609,8.4609,8.302,8.0674,8.1216,8.1415,8.1415,8.1415,8.1415,8.1415,8.1415,8.1415,8.1489,8.2039,8.2223,8.2296,8.2847,8.2994,8.2994,8.2994,8.2994,8.3214,8.4022,8.3835,8.3901,8.5518,8.5551,8.5471,8.6244,8.6832,8.7237,8.7237,8.371,8.0448,7.942,8.2245,8.3408,7.9852,8.3301,8.6106,8.5518,8.5575,8.5549,8.5224,8.3083,8.1598,8.1345,7.8628,7.7536,7.9049,7.7562,7.705,7.7953,7.669,7.5477,7.4388,7.3369,6.8475,5.9512,0.0,0.0,0.0,0.0,0.0,0.0,0.0,0.0,0.0,0.0,0.0,0.0,0.0,0.0,0.0,0.0,0.0,0.0,0.0,0.0,0.0,0.0,0.0,6.9399,7.1623,7.2891,7.0657,7.597,7.9214,7.7609,8.0363,8.259,8.3471,8.4242,8.4719,8.4756,8.549,8.593,8.593,8.6738,8.6775,8.5967,8.6811,8.7178,8.7178,8.7986,8.7986,8.7215,8.8023,8.7545,8.6004,8.5967,8.549,8.4756,8.4719,8.4682,8.4682,8.4646,8.4646,8.4646,8.4682,8.4682,8.4682,8.4682,8.4682,8.4682,8.4719,8.4719,8.4753,8.4756,8.4789,8.4789,8.4789,8.4789,8.4973,8.5744,8.61,8.6602,8.8185,8.8689,8.9045,8.9821,9.0006,9.0006,9.0006,8.8446,8.7068,8.7068,8.7068,8.604,8.2916,8.5254,0.0,8.3065,8.5512,8.7202,8.6315,8.5466,8.4653,8.3878,7.8707,7.7258,8.1323,7.7139,7.6309,8.0348,7.6633,7.446,7.4559,7.2114,6.9059,6.5432,0.0,0.0,0.0,0.0,0.0,0.0,0.0,0.0,0.0,0.0,0.0,0.0,0.0,0.0,0.0,0.0,0.0,0.0,0.0,0.0,0.0,7.3669,7.5977,7.4134,7.6318,7.8285,7.8774,7.9942,8.0947,8.1666,8.2531,8.3911,8.5857,8.6224,8.6848,8.8023,8.883,8.9271,8.9271,9.0078,9.0372,9.0152,9.0996,9.1106,9.0482,9.195,9.2207,9.1436,9.2244,9.206,9.1033,8.9821,8.883,8.7986,8.6811,8.6334,8.6297,8.571,8.5453,8.5527,8.6151,8.6402,8.6575,8.6742,8.6775,8.6849,8.7439,8.7623,8.7734,8.8324,8.8508,8.8508,8.8508,8.8508,8.8545,8.8766,8.8908,8.9052,8.9495,8.9639,8.9747,8.9969,9.0006,9.0006,9.0006,8.9535,8.9172,8.9172,8.9172,8.8877,8.7992,8.8686,8.8941,8.8055,8.8298,8.7521,8.471,8.3255,8.2394,8.2179,7.966,7.9638,8.3395,8.1763,8.0976,8.1562,8.0456,7.9306,7.8109,7.3861,7.075,0.0,0.0,0.0,0.0,0.0,0.0,0.0,0.0,0.0,0.0,0.0,0.0,0.0,0.0,0.0,0.0,0.0,0.0,0.0,0.0,0.0,0.0,7.827,8.0686,8.0108,8.1089,8.2039,8.2627,8.3177,8.3765,8.4352,8.5013,8.6004,8.7399,8.7839,8.8573,8.9858,9.0372,9.0739,9.1106,9.1546,9.1987,9.2354,9.2868,9.3015,9.2868,9.3822,9.4042,9.3602,9.3749,9.3529,9.3015,9.1693,9.0665,8.9858,8.8974,8.8421,8.8017,0.0,0.0,0.0,0.0,8.823,8.8333,8.8535,8.8638,8.8675,8.9156,8.9304,8.9414,8.9858,9.0006,9.0079,9.0412,9.0523,9.0671,9.1336,9.1555,9.1734,9.2067,9.2209,9.2242,9.2242,9.2242,9.2242,9.2242,9.2242,0.0,9.2242,9.0994,8.9562,8.8195,8.9222,8.9625,8.8257,8.8979,8.8715,8.6296,8.5286,8.4497,8.3762,8.1252,0.0,0.0,0.0,8.1228,8.0411,8.0374,0.0,0.0,0.0,7.3717,7.4035,7.1025,0.0,0.0,6.4222,6.2446,0.0,0.0,0.0,0.0,0.0,0.0,0.0,0.0,0.0,0.0,0.0,0.0,0.0,0.0,0.0,0.0,8.2884,8.593,8.593,8.5416,8.4792,8.4168,8.582,8.6848,8.6371,8.7545,8.839,8.8463,8.916,8.9931,9.0849,9.0959,0.0,0.0,0.0,9.2648,9.3492,9.3418,9.3749,9.4446,9.452,9.452,9.441,9.3786,9.3529,9.3455,9.2427,9.1583,9.0885,9.0841,9.0359,8.9585,8.8088,8.7982,8.8788,8.9698,9.0025,9.006,9.0264,0.0,0.0,9.0368,9.0368,9.0368,9.0368,9.0368,9.0516,9.1219,9.1478,9.1884,9.3292,9.3874,9.4237,9.4941,9.5301,9.5403,9.5403,9.5403,9.5403,9.5403,9.5403,9.5403,9.5403,9.2754,8.9666,8.6782,8.8947,8.979,8.6894,8.9024,9.0313,8.9124,8.8833,0.0,8.6493,8.2876,8.2171,8.5521,8.2126,7.9694,7.8989,7.8952,7.7877,7.5587,7.6393,7.7859,7.9911,8.0617,8.0914,8.0542,6.7861,6.4569,0.0,0.0,0.0,0.0,0.0,0.0,0.0,0.0,0.0,0.0,0.0,0.0,0.0,0.0,0.0,8.1305,8.4462,8.6775,8.6775,8.7178,8.7692,8.8171,8.7509,8.7692,8.9491,8.9381,8.9454,9.0078,9.0298,9.1033,9.2537,9.3235,9.3932,9.474,9.4777,9.518,9.5988,9.5364,9.5107,9.529,9.5914,0.0,9.529,9.5768,9.5988,9.5878,9.386,9.2903,9.2609,9.0903,9.0086,8.9975,9.0273,9.0866,9.1639,9.1995,9.2101,9.2135,9.234,9.2406,9.2406,9.2406,9.2406,9.2406,9.2406,9.2406,0.0,9.2592,9.3111,9.3668,9.4002,9.4592,9.5149,9.5298,9.5369,9.5403,9.5403,9.5403,9.5403,9.5403,9.5403,9.5403,9.5403,9.4815,9.415,9.3519,9.3998,9.418,9.3549,9.2914,9.1135,8.7519,8.5961,8.4774,8.381,8.2334,8.295,8.6375,8.5193,8.4302,8.4153,8.4153,8.3633,8.2482,8.3262,8.3292,8.2474,8.2623,8.2363,8.1657,7.8219,7.719,0.0,0.0,0.0,0.0,0.0,0.0,0.0,0.0,0.0,0.0,0.0,7.613,7.8185,0.0,8.3324,8.4939,8.6885,8.8206,8.8206,8.8573,8.8793,8.8793,8.8793,8.9124,8.9931,9.0776,9.1253,9.1216,9.1987,9.2831,9.3639,9.4079,9.4666,9.5474,9.5107,9.5658,9.7273,9.6616,9.6654,9.7463,9.7982,9.7983,9.7578,9.7578,9.7799,9.8093,9.6142,9.5294,9.5182,9.3292,9.2616,9.2754,9.3128,9.2693,9.189,9.2468,9.2684,9.2717,9.2922,9.2988,9.2988,9.2988,9.2988,9.2988,9.2988,9.2988,9.3062,9.3471,9.3879,9.44,9.518,9.57,9.6108,9.6554,9.6666,9.6666,9.6666,9.6666,9.6666,9.6666,9.6666,9.6666,9.6666,9.6294,9.5848,9.5477,9.5403,9.5254,9.4845,9.4102,9.2621,9.0068,8.9066,8.825,8.7433,8.6209,8.6239,8.7935,8.7304,8.6672,8.6226,8.6189,8.5818,8.5,8.5,8.4778,8.4406,8.3997,8.3775,8.3775,8.3329,8.2251,0.0,0.0,0.0,0.0,0.0,0.0,0.0,7.1998,7.3377,7.6607,7.8264,8.0057,8.2847,8.4425,8.6004,8.8096,8.8977,8.9419,8.9638,8.9784,8.9711,8.9197,9.0152,9.0776,9.0629,9.2244,9.3051,9.2354,9.3529,9.4446,9.474,9.4777,9.5256,9.621,9.5697,9.6249,9.8196,9.7762,9.8169,9.9459,9.961,9.9685,9.9649,9.8873,9.8836,9.9353,9.7765,9.7025,9.6838,9.5647,9.5229,9.5403,9.5403,9.4008,9.2104,9.2943,9.3233,9.3233,9.3438,9.3471,9.3471,9.3471,9.3471,9.3471,9.3471,9.3471,9.3582,9.4251,9.4548,9.4957,9.6257,9.6852,9.7223,9.778,9.8003,9.8077,9.7929,9.7892,9.7892,9.7892,9.7892,9.7892,9.7892,9.7186,9.6369,9.5737,9.5514,9.518,9.4511,9.4288,9.3879,9.3099,9.2839,9.2393,9.1539,9.0276,8.9533,8.9533,8.8901,8.8158,8.7304,8.7304,8.6821,8.5855,8.5372,8.5261,8.5595,8.5172,8.5202,8.5685,8.5775,8.4331,6.8577,6.8614,7.1109,7.4338,7.5219,7.7127,0.0,8.3287,8.1746,8.4976,8.5783,8.6261,8.7325,8.7692,8.8133,8.9124,8.9308,8.9674,9.0372,9.1069,9.1803,9.2464,9.2024,9.2501,9.463,9.441,9.4116,9.4006,9.4189,9.4923,9.6355,9.6618,9.7393,9.8902,9.9055,9.9204,9.95,9.9426,9.9463,9.9648,9.9685,9.9685,9.9649,9.8873,9.8541,9.8541,9.7059,9.6124,9.5595,9.5443,9.5369,9.5403,9.5403,9.5183,9.4926,9.5072,9.5109,9.5109,9.5143,9.5143,9.5143,9.5143,9.5143,9.5143,9.5143,9.5143,9.5143,9.5254,9.5774,9.6369,9.6554,9.7706,9.8672,9.804,9.8449,9.8783,9.804,9.7892,9.7892,9.7892,9.7892,9.7892,9.7892,9.7186,9.6591,9.648,9.5848,9.5365,9.5291,9.4622,9.3879,9.3099,9.2319,9.1539,9.0685,9.0462,9.0387,9.0387,9.0276,8.9867,8.905,8.9013,8.827,8.6709,8.7341,8.7007,8.5595,8.6527,8.6644,8.6076,8.6284,8.6069,7.7524,7.6644,7.6607,8.0167,8.1415,8.2517,8.5453,8.4792,8.4389,8.7142,8.7692,8.7802,8.8133,8.8977,8.9858,9.0702,9.1253,9.184,9.2648,9.3051,9.3602,9.4559,9.4779,9.4816,9.4777,9.5327,9.5732,9.5883,9.6729,9.7613,9.8389,9.8539,9.8872,9.9573,9.9648,9.9907,10.0387,10.05,10.0796,10.1314,10.1389,10.1389,10.1389,10.0574,9.9898,9.9344,9.9706,9.9365,9.8599,9.8599,9.8599,9.8561,9.8035,9.8148,9.8381,9.6593,9.5912,9.5975,9.6299,9.6718,9.7161,9.7161,9.75,9.7801,9.7312,9.7161,9.7049,9.653,9.6981,9.7659,9.7659,9.8524,9.9314,9.8945,9.9133,9.9283,9.8945,9.887,9.887,9.887,9.887,9.887,9.887,9.8223,9.7659,9.7659,9.634,9.5217,9.4771,9.44,9.3879,9.3099,9.2653,9.2319,9.1985,9.1502,9.1205,9.1205,9.0759,9.035,9.0016,8.9979,8.9681,8.8976,8.9014,8.8726,8.7988,8.8164,8.8213,8.8006,8.8112,8.8228,8.1342,8.1525,8.1489,8.4499,8.6701,8.7912,8.7142,8.6958,8.7362,8.8867,8.9197,8.9271,8.9528,9.0702,9.184,9.2464,9.3235,9.3969,9.4631,9.4888,9.5441,9.6437,9.7064,9.6989,9.5883,9.6839,9.7576,9.7727,9.8795,9.9645,9.9981,10.0093,10.0167,10.0388,10.05,10.0833,10.1425,10.15,10.187,10.2501,10.2792,10.3007,10.3007,10.232,10.1303,10.0195,10.1513,10.1594,10.0895,10.0592,10.0668,10.0782,10.0175,10.0506,10.1009,9.8904,9.8035,9.7948,9.8324,9.8902,9.9433,9.9433,9.985,10.0192,9.9623,9.9433,9.9243,9.8409,9.875,9.9395,9.9141,9.971,10.0202,9.9986,9.9948,9.9872,9.9645,9.9607,9.9607,9.9607,9.9607,9.9607,9.9607,9.8951,9.8383,9.8383,9.6973,9.5593,9.4878,9.4644,9.414,9.3099,9.3211,9.3248,9.3025,9.2431,9.2059,9.2059,9.1502,9.1093,9.0833,9.0929,9.0907,9.077,9.0505,9.0399,9.0437,9.0201,9.0184,9.038,9.0452,9.0608,7.5909,7.9764,8.3875,8.6334,9.0519,9.3822,9.3015,9.2831,9.2611,9.184,9.1693,9.195,9.2794,9.3639,9.4189,9.4226,9.4887,9.5513,9.57,9.6436,9.7285,9.8282,9.843,9.8725,9.9464,9.9575,9.9612,9.9612,9.9649,9.9981,10.0794,10.0981,10.15,10.2315,10.25,10.2573,10.2611,10.2721,10.2721,10.2721,10.3384,10.3678,10.3711,10.342,10.2384,10.0895,10.0906,10.0895,10.0782,9.9986,10.0099,10.0895,10.0923,10.1416,10.2105,10.2625,10.2398,10.1881,10.1908,10.1984,10.1984,10.1984,10.1984,10.1984,10.1984,10.1984,10.1795,10.0999,10.1416,10.1795,10.0999,10.1388,10.1805,10.1009,10.082,10.0489,9.9758,9.9607,9.9607,9.9607,9.9607,9.9607,9.9607,9.8951,9.8383,9.8383,9.7636,9.6852,9.6328,9.5721,9.4771,9.3174,9.3694,9.3842,9.3062,9.2988,9.2951,9.2951,9.2951,9.2542,9.1688,9.197,9.1919,9.1479,9.1729,9.1988,9.2299,9.2624,9.2809,9.2809,9.3078,9.3178,8.0865,8.4903,8.8793,9.1216,9.3492,9.4887,9.4079,9.3492,9.3015,9.2721,9.0922,8.9674,9.0519,9.1326,9.2244,9.3492,9.5736,9.7762,9.9019,9.8983,9.9168,10.0204,10.0315,10.0204,10.0091,9.9834,9.9982,10.0574,10.1166,10.1685,10.213,10.2167,10.2278,10.2612,10.311,10.3107,10.2721,10.3505,10.3808,10.3418,10.3985,10.4289,10.4289,10.4221,10.3808,10.3084,10.3719,10.3918,10.3688,10.3381,10.3381,10.3611,10.3113,10.3381,10.4093,10.4287,10.4588,10.4798,10.3688,10.3611,10.4109,10.4109,10.4492,10.4798,10.43,10.4109,10.3879,10.3113,10.3113,10.3113,10.2194,10.221,10.221,10.1405,10.1099,10.1099,10.0793,10.0678,10.0678,10.0678,10.0678,10.0678,10.0678,10.0508,10.0317,10.0317,9.8486,9.7041,9.6852,9.5869,9.533,9.5696,9.464,9.4212,9.4877,9.4378,9.4048,9.4048,9.4122,9.3989,9.3687,9.3876,9.392,9.377,9.404,9.3961,9.3502,9.3855,9.3849,9.3522,9.3577,9.3613,8.5416,8.9087,9.217,9.4887,9.6208,9.6575,9.5768,9.5401,9.518,9.4887,9.2207,9.0115,9.0629,9.1692,9.2353,9.2021,9.57,9.887,9.9538,9.9686,10.0278,10.1982,10.1907,10.1796,10.2015,10.1197,10.0827,10.1313,10.2093,10.2721,10.3003,10.3077,10.3216,10.338,10.3802,10.3796,10.3414,10.4199,10.4486,10.4311,10.4713,10.487,10.4812,10.5422,10.5407,10.499,10.5871,10.5975,10.5482,10.5213,10.5097,10.4982,10.4482,10.4789,10.5597,10.5597,10.5905,10.6213,10.5213,10.5097,10.5597,10.5597,10.5905,10.629,10.5713,10.5597,10.5405,10.4597,10.4289,10.4097,10.3289,10.2789,10.252,10.1904,10.152,10.1289,10.1289,10.1289,10.1289,10.1289,10.1289,10.1289,10.1289,10.1289,10.1289,10.1289,9.9737,9.8421,9.792,9.7172,9.68,9.7067,9.6128,9.5667,9.6271,9.5565,9.5098,9.5098,9.4882,9.4766,9.4766,9.4972,9.5074,9.521,9.5525,9.546,9.508,9.5289,9.5221,9.485,9.485,9.5043,8.9124,9.2097,9.4189,9.7236,9.8631,9.9035,9.8264,9.8668,9.8961,9.7897,9.5144,9.2868,9.2648,9.4228,9.4227,9.0187,9.5258,9.9202,9.7949,9.9058,10.0981,10.3799,10.3389,10.35,10.4987,10.3609,10.2315,10.1711,10.2384,10.3112,10.3706,10.37,10.3985,10.4581,10.46,10.46,10.461,10.46,10.4904,10.5505,10.562,10.5472,10.529,10.6982,10.729,10.6597,10.7405,10.729,10.6521,10.5597,10.529,10.529,10.529,10.579,10.6521,10.6521,10.6521,10.6521,10.6405,10.6405,10.6405,10.6405,10.6405,10.6405,10.6405,10.6405,10.6213,10.5405,10.5097,10.4905,10.4212,10.3289,10.2597,10.2597,10.1904,10.1289,10.1289,10.1289,10.1289,10.1289,10.1289,10.1289,10.1289,10.1289,10.1289,10.1289,10.1289,10.0804,9.9495,9.9467,9.9005,9.7463,9.7969,9.8083,9.7337,9.6603,9.6159,9.6159,9.5444,9.5058,9.5058,9.5264,9.5546,9.5848,9.6168,9.647,9.6783,9.6783,9.6783,9.6783,9.6783,9.7247,9.2391,9.5841,9.8668,9.9475,10.0283,10.0796,10.0576,10.0686,9.9805,9.5988,9.2611,8.9454,8.6444,8.9336,9.2089,9.1751,9.8356,10.361,10.3984,10.391,10.4282,10.5582,10.5532,10.5204,10.4983,10.4996,10.4584,10.3905,10.3988,10.4199,10.4416,10.4416,10.4399,10.461,10.4984,10.5087,10.461,10.5011,10.5606,10.6199,10.6813,10.7108,10.7098,10.8098,10.8482,10.829,10.8482,10.8482,10.8213,10.7982,10.7905,10.7905,10.7905,10.8098,10.8213,10.7598,10.7405,10.729,10.6597,10.6405,10.6405,10.6405,10.6405,10.6405,10.6405,10.6405,10.6405,10.6097,10.5597,10.5097,10.4789,10.3712,10.2597,10.2597,10.1904,10.1289,10.1289,10.1289,10.1289,10.1289,10.1289,10.1289,10.1289,10.1289,10.1289,10.1289,10.1385,10.1289,10.0804,9.9938,9.9572,10.0279,9.9064,9.8544,9.9422,9.875,9.8308,9.8308,9.7575,9.7129,9.7129,9.6656,9.6448,9.6552,9.6622,9.6723,9.6783,9.6783,9.6783,9.6783,9.6783,9.6938,9.5658,9.8557,10.0907,10.131,10.1714,10.1494,9.9328,9.9145,9.7823,9.2244,8.85,8.5563,8.3287,8.7415,9.0937,9.0344,9.817,10.439,10.4727,10.48,10.55,10.7213,10.7232,10.7013,10.6899,10.679,10.6621,10.6088,10.5196,10.4685,10.4996,10.4996,10.5102,10.5396,10.5724,10.5878,10.6006,10.6299,10.6803,10.7521,10.7982,10.8213,10.829,10.9098,10.9483,10.9483,10.9906,10.979,10.9483,10.9483,10.9213,10.8906,10.8906,10.8906,10.879,10.8406,10.8213,10.8213,10.7713,10.729,10.6905,10.6521,10.6405,10.6405,10.6405,10.6405,10.6405,10.6405,10.579,10.4982,10.4713,10.3597,10.252,10.2097,10.1712,10.1289,10.1289,10.1289,10.1289,10.1289,10.1289,10.1289,10.1289,10.1289,10.1385,10.1385,10.1518,10.1478,10.1384,10.0692,10.0575,10.1516,10.0385,9.9981,10.0796,10.0209,9.9724,9.9724,9.8956,9.8485,9.8485,9.7759,9.7363,9.7363,9.6976,9.6783,9.6783,9.6783,9.6783,9.6783,9.6783,9.7209,9.8484,10.0393,10.1677,10.2522,10.2815,10.1604,9.6906,9.6355,9.4887,8.7949,8.4205,8.2039,8.1489,8.6266,8.9821,8.825,9.6614,10.3316,10.3316,10.4406,10.6076,10.8389,10.8614,10.8887,10.9579,10.8803,10.8293,10.8307,10.6309,10.5228,10.5606,10.5591,10.5917,10.6577,10.6597,10.7021,10.7905,10.7905,10.8213,10.8906,10.8983,10.9098,10.9098,10.9983,11.0406,11.0406,11.1214,11.1098,11.0406,11.0406,10.9906,10.9213,10.9213,10.9213,10.9213,10.9098,10.9098,10.9098,10.8906,10.8406,10.7713,10.6905,10.6521,10.6405,10.6405,10.6405,10.6405,10.6405,10.5905,10.5097,10.4289,10.3405,10.2597,10.1712,10.1404,10.1289,10.1308,10.1308,10.1289,10.1289,10.1289,10.1289,10.1289,10.1404,10.1498,10.1498,10.1627,10.1603,10.1603,10.1585,10.1585,10.1603,10.1603,10.1603,10.1581,10.1126,10.0695,10.0695,9.9908,9.9491,9.9491,9.8678,9.8253,9.8253,9.7402,9.6976,9.6976,9.686,9.6783,9.6783,9.6783,9.7595,9.9769,10.0796,10.1677,10.2522,10.3219,10.2595,9.8411,9.7566,9.507,8.593,8.3067,8.1158,7.7781,8.1455,8.6476,9.0858,9.7163,10.289,10.6999,10.8199,10.8826,10.928,10.9799,11.0217,11.0306,11.0002,10.9798,10.9798,10.8213,10.6885,10.628,10.6203,10.6591,10.7405,10.7521,10.7905,10.8713,10.8713,10.879,10.8906,10.9598,10.9983,10.9983,11.0906,11.1291,11.1291,11.1406,11.1406,11.1291,11.1291,11.1214,11.1021,11.1021,11.1021,11.1021,11.0214,10.9983,10.9906,10.9098,10.879,10.8598,10.7713,10.7021,10.6405,10.6405,10.6405,10.6405,10.6405,10.629,10.602,10.5097,10.4289,10.3482,10.2597,10.1789,10.1308,10.1385,10.1516,10.1493,10.1493,10.1493,10.1493,10.1493,10.1588,10.1606,10.1606,10.1599,10.1705,10.1705,10.1599,10.162,10.1688,10.1705,10.1683,10.1803,10.1703,10.1719,10.1719,10.0922,10.038,10.038,9.9568,9.9104,9.9104,9.8292,9.7866,9.7866,9.7131,9.6783,9.6783,9.6783,9.6976,9.9585,10.0576,10.1677,10.2522,10.3411,10.2206,9.5108,9.3896,9.1287,8.0566,7.8369,7.7818,7.5836,8.0051,8.5028,8.8712,9.5982,10.2209,10.502,10.8122,11.0025,11.0025,11.0576,11.1008,11.1008,11.0891,11.0714,11.0214,10.9483,10.8406,10.7098,10.7098,10.729,10.7713,10.8098,10.8713,10.9598,10.9598,10.979,11.0291,11.0714,11.0906,11.0906,11.1291,11.1522,11.1522,11.1522,11.1522,11.1522,11.1522,11.1522,11.1522,11.1522,11.1522,11.1406,11.1021,11.0906,11.0791,11.0406,10.9983,10.9406,10.8598,10.779,10.7021,10.6521,10.6405,10.6405,10.6405,10.6097,10.5502,10.4695,10.3907,10.3117,10.2327,10.1788,10.1498,10.1496,10.1588,10.1585,10.1585,10.1585,10.1585,10.1585,10.1581,10.1693,10.1693,10.1699,10.1787,10.1787,10.1793,10.1777,10.1787,10.1787,10.1803,10.1889,10.1889,10.1889,10.1889,10.1502,10.1309,10.1309,10.038,9.9994,9.9994,9.9143,9.8524,9.8098,9.7673,9.7247,9.6783,9.6783,9.7054,9.8961,10.0283,10.1718,10.2305,10.3386,10.1699,9.1728,9.0144,8.7562,7.63,7.4331,7.4698,7.4882,7.894,8.3176,8.5941,9.314,9.9373,10.2273,10.6408,10.962,11.0575,11.1224,11.1522,11.1522,11.1522,11.1214,11.0483,11.0291,10.9483,10.8021,10.7982,10.8021,10.8213,10.879,10.9598,11.0483,11.0483,11.0791,11.1522,11.1522,11.1522,11.1522,11.1522,11.1522,11.1522,11.1522,11.1522,11.1522,11.1522,11.1483,11.1504,11.1504,11.1487,11.1585,11.1585,11.1585,11.1585,11.1585,11.1008,11.0105,10.9199,10.8409,10.7521,10.6713,10.6426,10.6387,10.6387,10.5792,10.5004,10.4195,10.3405,10.2498,10.1799,10.1603,10.162,10.162,10.1581,10.1676,10.1676,10.1676,10.1676,10.1676,10.1705,10.1716,10.1716,10.1803,10.1889,10.1889,10.1889,10.1889,10.1889,10.1889,10.1889,10.1889,10.1889,10.1889,10.1889,10.1889,10.1889,10.1889,10.1193,10.0883,10.0883,9.9994,9.9259,9.864,9.8292,9.775,9.7054,9.6899,9.717,9.8521,10.0283,10.1611,10.1807,10.3101,10.1702,9.1907,8.9806,8.701,7.6857,7.4258,7.4037,7.4771,7.6096,7.9111,8.5387,8.778,9.225,10.1977,10.4291,10.6599,11.0913,11.15,11.1522,11.1522,11.1522,11.1522,11.1406,11.0598,10.979,10.879,10.879,10.9213,10.9906,10.9983,11.0483,11.1406,11.1406,11.1406,11.1522,11.1522,11.1522,11.1522,11.1522,11.1522,11.1522,11.1522,11.1522,11.1522,11.1522,11.1508,11.1591,11.1591,11.1691,11.179,11.179,11.179,11.179,11.179,11.1211,11.0324,10.9514,10.8491,10.7521,10.6713,10.6389,10.6507,10.6507,10.6006,10.5193,10.4306,10.3496,10.2686,10.1817,10.1616,10.1705,10.1705,10.1809,10.1912,10.1912,10.1912,10.1912,10.1912,10.1912,10.1873,10.1873,10.1889,10.1889,10.1889,10.1889,10.1889,10.1889,10.1889,10.1889,10.1889,10.1889,10.1889,10.1889,10.1889,10.1889,10.1889,10.1812,10.1812,10.1812,10.0883,10.038,10.038,9.8833,9.806,9.7943,9.717,9.6822,9.8456,10.0517,10.1697,10.1893,10.1011,9.8171,9.0688,8.7519,8.3843,7.5859,7.4382,7.4661,7.5029,7.5933,7.7834,8.1518,8.5245,8.9173,9.3429,9.958,10.4308,10.6292,10.9008,11.0906,11.1406,11.1522,11.1522,11.1522,11.1214,11.0791,11.0521,10.9983,10.979,11.0214,11.0714,11.1098,11.1522,11.1522,11.1522,11.1522,11.1508,11.1627,11.1589,11.1612,11.1691,11.1691,11.1691,11.1691,11.1691,11.1691,11.1711,11.1712,11.1712,11.1809,11.1809,11.1809,11.1809,11.1693,11.1192,11.0806,11.0189,10.8298,10.7393,10.7008,10.6719,10.6199,10.5812,10.5812,10.4905,10.3802,10.3507,10.2902,10.2218,10.1909,10.1809,10.1803,10.1803,10.1912,10.1889,10.1889,10.1889,10.1889,10.1889,10.1889,10.1889,10.1889,10.1889,10.1889,10.1889,10.1889,10.1889,10.1889,10.1889,10.1889,10.1889,10.1889,10.1889,10.1889,10.1889,10.1889,10.1889,10.1889,10.1889,10.1889,10.158,10.1077,10.0613,9.9916,9.9104,9.8098,9.775,9.7286,9.7062,9.9899,10.1893,10.2125,9.9686,9.5844,9.0239,8.6226,8.196,7.5772,7.5022,7.5514,7.558,7.6474,7.7663,7.927,8.2906,8.6252,8.8318,9.4805,9.9999,10.1723,10.4799,10.7598,10.9406,11.0791,11.1522,11.1522,11.1522,11.1483,11.1487,11.091,11.0623,11.0623,11.1179,11.1508,11.1627,11.1627,11.1627,11.1627,11.1573,11.1691,11.1691,11.1809,11.1809,11.1809,11.1809,11.1809,11.1809,11.1809,11.179,11.1809,11.1809,11.1905,11.1904,11.1904,11.1711,11.1402,11.0823,11.0321,10.951,10.7502,10.6614,10.6421,10.6112,10.5592,10.5093,10.5093,10.4125,10.2924,10.2704,10.2306,10.1889,10.1889,10.1889,10.1889,10.1889,10.1889,10.1889,10.1889,10.1889,10.1889,10.1889,10.1889,10.1889,10.1889,10.1889,10.1889,10.1889,10.1889,10.1889,10.1889,10.1889,10.1889,10.1889,10.1889,10.1889,10.1889,10.1889,10.1889,10.1889,10.1889,10.1889,10.1889,10.1889,10.158,10.0999,10.0496,9.9607,9.8446,9.7943,9.7402,9.3785,9.8281,10.2125,10.2277,9.9834,9.6028,9.1111,8.673,8.2323,7.7393,7.6398,7.6427,7.6573,7.7345,7.8434,7.9748,8.0141,8.2694,8.9516,9.0558,9.2674,9.8212,9.8904,10.0596,10.4789,10.8983,11.1522,11.1522,11.1522,11.1487,11.1591,11.1612,11.1612,11.1612,11.1612,11.1691,11.1809,11.1809,11.1809,11.1809,11.1809,11.1809,11.1809,11.1809,11.1809,11.1809,11.1809,11.1809,11.1809,11.1809,11.1789,11.1882,11.1882,11.2014,11.2084,11.2084,11.1598,11.0825,11.0825,10.9703,10.8194,10.7305,10.6415,10.5509,10.4713,10.4416,10.431,10.431,10.3797,10.3011,10.2082,10.1889,10.1889,10.1889,10.1889,10.1889,10.1889,10.1889,10.1889,10.1889,10.1889,10.1889,10.1889,10.1889,10.1889,10.1889,10.1889,10.1889,10.1889,10.1889,10.1889,10.1889,10.1889,10.1889,10.1889,10.1889,10.1889,10.1889,10.1889,10.1889,10.1889,10.1889,10.1889,10.1889,10.1889,10.1889,10.1889,10.0187,9.9297,9.9259,9.7595,9.6822,8.7857,9.1167,9.3524,9.3179,9.0627,8.7604,8.5498,8.1779,7.8359,7.6557,7.6023,7.6226,7.7479,7.7804,7.8466,8.033,8.1164,8.2324,8.454,9.058,9.5462,9.7218,10.3416,10.8021,10.929,11.07,11.1589,11.1589,11.1709,11.1692,11.1712,11.1673,11.1673,11.1673,11.1673,11.1809,11.1809,11.1809,11.1809,11.1809,11.1808,11.1923,11.1923,11.1978,11.2014,11.2014,11.2014,11.2014,11.2014,11.2014,11.1993,11.201,11.1392,11.1177,11.1095,11.0515,11.009,10.9819,10.9316,10.8697,10.8078,10.6608,10.5487,10.4713,10.3784,10.3614,10.3388,10.2808,10.2492,10.2199,10.2005,10.1889,10.1889,10.1889,10.1889,10.1889,10.1889,10.1889,10.1889,10.1889,10.1889,10.1889,10.1889,10.1889,10.1889,10.1889,10.1889,10.1889,10.1889,10.1889,10.1889,10.1889,10.1889,10.1889,10.1889,10.1889,10.1889,10.1889,10.1889,10.1889,10.1889,10.1889,10.1889,10.1889,10.1889,10.1889,10.1889,10.069,9.9607,9.8446,9.7325,9.6783,8.2513,8.6299,8.88,8.8417,8.5641,8.2899,8.2594,7.9216,7.6199,7.6368,7.638,7.6728,7.8028,7.8399,7.9003,8.0469,8.1178,8.2344,8.476,9.0335,9.5036,9.7342,10.4421,10.9219,10.9222,11.0707,11.1711,11.1711,11.1385,11.152,11.1789,11.148,11.1499,11.1884,11.1885,11.1885,11.1884,11.1884,11.1884,11.1884,11.1978,11.2014,11.2014,11.2105,11.2101,11.2101,11.2101,11.2101,0.0,11.1714,11.1598,11.1521,11.0593,11.0283,11.0206,10.9703,10.9316,10.8907,10.8222,10.771,10.7198,10.5488,10.4389,10.3587,10.3122,10.2818,10.2585,10.2082,10.1889,10.1889,10.1889,10.1903,10.199,10.199,10.1995,10.2113,10.2113,10.1995,10.199,10.199,10.1903,10.1889,10.1889,10.1889,10.1897,10.2015,10.199,10.1993,10.21,10.2113,10.2113,10.2113,10.2113,10.2113,10.2113,10.1986,10.1889,10.1889,10.1889,10.1889,10.1889,10.1889,10.1889,10.1889,10.1889,10.1696,10.1386,10.0306,9.9061,9.7805,9.7222,9.6989,0.0,8.2807,8.6592,8.6486,8.3707,8.1074,8.1447,7.8294,0.0,7.6572,7.7076,7.756,7.8436,7.9166,7.9861,8.0525,8.062,8.2832,8.9119,9.0556,9.3092,9.8744,10.3193,10.5697,10.552,10.9301,11.179,11.179,11.1095,11.0979,11.1805,11.1089,11.1009,11.1891,11.1782,11.182,11.2101,11.2101,11.2101,11.2101,11.2101,11.2101,11.2101,11.208,11.2097,11.2019,11.1997,11.2014,11.1898,11.1085,11.0814,11.0698,10.9808,10.9498,10.9382,10.9382,10.8895,10.8114,10.7417,10.6612,10.5793,10.4218,10.3185,10.2601,10.2406,10.2217,10.1888,10.1888,10.1888,10.1888,10.1888,10.2009,10.2078,10.2078,10.2314,10.2406,10.2406,10.2304,10.2078,10.2078,10.1995,10.1888,10.1888,10.1888,10.199,10.2082,10.2078,10.2205,10.2382,10.2406,10.2406,10.2406,10.2406,10.2406,10.2406,10.2111,10.1888,10.1888,10.1888,10.1888,10.1888,10.1888,10.1888,10.1888,10.1888,10.1424,10.0495,9.9046,9.7947,9.7301,9.7301,9.7301,6.9347,0.0,7.6584,7.5652,7.5764,7.5849,0.0,7.4324,7.4223,7.5437,7.5469,7.6338,7.9807,7.9797,8.0029,8.2451,8.2863,8.4741,9.0154,9.7131,10.2386,10.4406,10.801,10.9206,10.6488,10.9686,11.1884,11.1884,11.1802,11.1508,11.11,11.0906,11.0614,11.009,11.0111,11.0692,11.2101,11.2101,11.2101,11.2101,11.2101,11.2101,11.2101,11.2296,11.2009,11.1311,11.141,11.1099,11.0582,11.031,11.0321,11.0204,10.9309,10.8997,10.8881,10.8191,10.7918,10.7617,10.6682,10.6312,10.5892,10.4182,10.4004,10.4082,10.2796,10.2309,10.2314,10.2314,10.2314,10.2314,10.2314,10.2303,10.2301,10.2301,10.2413,10.2406,10.2406,10.2413,10.2301,10.2301,10.2303,10.2314,10.2314,10.2314,10.2285,10.2292,10.2301,10.2318,10.2398,10.2406,10.2406,10.2406,10.2406,10.2406,10.2406,10.2283,10.2314,10.2314,10.2314,10.2314,10.2314,10.2314,10.2314,10.2314,10.1604,10.0903,9.9979,9.8965,9.8073,9.7301,9.7301,9.7301,6.6306,6.9392,7.2298,7.1652,7.267,7.372,7.3246,7.301,7.325,7.4719,7.4989,7.593,7.9268,8.1563,8.2915,8.2984,8.694,9.121,9.4788,10.0,10.4196,10.6276,10.8319,10.9397,10.9087,11.08,11.1993,11.1993,11.168,11.1521,11.1405,11.1088,11.0716,11.0197,11.0302,11.0697,11.1482,11.1608,11.1592,11.1592,11.1699,11.1482,11.121,11.1282,11.1116,11.061,11.0692,11.0503,11.0104,10.9684,10.949,10.9412,10.8515,10.8212,10.8095,10.7705,10.7511,10.7285,10.6189,10.5503,10.5118,10.3791,10.4182,10.4889,10.3089,10.2893,10.311,10.2599,10.2406,10.2406,10.2406,10.2419,10.2503,10.2503,10.2587,10.2581,10.2581,10.2582,10.2503,10.2503,10.2412,10.2406,10.2406,10.2406,10.239,10.2497,10.2503,10.2488,10.2616,10.2581,10.2581,10.2581,10.2581,10.2581,10.2581,10.2581,10.2582,10.2414,10.2406,10.2406,10.2406,10.2406,10.2211,10.1814,10.0878,10.0097,9.9344,9.8486,9.7851,9.7468,9.7468,9.7468,6.5822,6.9066,7.1989,7.1035,7.1928,7.3079,7.3301,7.2735,7.2637,7.4205,7.498,7.6301,7.9123,8.3362,8.5786,8.3785,9.1497,9.8499,10.0789,10.2309,10.4003,10.6408,10.7178,10.8485,11.11,11.1813,11.2118,11.2091,11.1489,11.1311,11.1979,11.1507,11.1013,11.0807,11.0887,11.0805,11.0523,11.0821,11.0896,11.0884,11.1082,11.0814,11.0104,11.0099,11.0107,10.9912,10.9982,10.9912,10.9717,10.8983,10.871,10.8593,10.7898,10.7586,10.7586,10.7586,10.7586,10.7405,10.5903,10.5101,10.4414,10.3594,10.4414,10.539,10.3594,10.3594,10.398,10.2811,10.251,10.251,10.251,10.2592,10.2611,10.2611,10.2802,10.289,10.289,10.28,10.2611,10.2611,10.2587,10.251,10.251,10.251,10.2515,10.2601,10.2611,10.2707,10.289,10.289,10.289,10.289,10.289,10.289,10.289,10.289,10.2679,10.2296,10.2315,10.2315,10.2315,10.2315,10.1886,10.1185,10.021,9.9406,9.8821,9.7965,9.76,9.7695,9.7695,9.7695,6.5591,7.1349,7.5665,7.0175,7.0612,7.2103,7.1063,7.1551,7.2476,7.3486,7.4855,7.7724,8.3808,8.3362,8.3516,8.8017,9.4377,10.0285,10.4889,10.8897,11.0187,10.7082,10.941,11.0309,10.7916,11.0404,11.2179,11.2309,11.2206,11.1999,11.151,11.1393,11.071,10.9191,10.9217,10.92,10.9087,10.9894,11.0302,11.0302,11.029,11.0182,11.0113,11.0212,10.9905,10.9208,10.9315,10.9017,10.8314,10.8196,10.8118,10.8118,10.8001,10.7884,10.7884,10.7884,10.7884,10.7807,10.6794,10.6405,10.6211,10.539,10.5703,10.6211,10.4492,10.4101,10.3984,10.3082,10.2806,10.2806,10.2806,10.2809,10.2889,10.2889,10.289,10.289,10.289,10.289,10.2889,10.2889,10.2808,10.2806,10.2806,10.2806,10.2807,10.2889,10.2889,10.2889,10.289,10.289,10.289,10.289,10.289,10.289,10.289,10.289,10.2616,10.1791,10.1712,10.1712,10.1712,10.1712,10.1712,10.1517,9.9955,9.9058,9.8983,9.8084,9.7695,9.7692,9.7692,9.769,6.4863,6.8946,7.2893,7.3155,7.7544,8.1753,8.1606,8.1689,8.1362,7.9939,8.0285,8.19,8.544,8.7478,9.1612,10.0788,10.0806,10.14,10.6622,10.7082,10.6884,10.6807,10.8298,10.9499,10.9785,11.1391,11.2386,11.25,11.251,11.2406,11.2109,11.2195,11.1617,11.0407,10.9998,10.9515,10.9082,10.9004,10.9095,10.9498,10.9603,10.9394,10.9004,10.8997,10.8813,10.8501,10.8592,10.8398,10.8008,10.8008,10.8008,10.8008,10.8008,10.8008,10.8008,10.8008,10.7695,10.7187,10.6289,10.6289,10.6406,10.4687,10.5312,10.6289,10.4101,10.3789,10.3984,10.3086,10.289,10.289,10.289,10.289,10.289,10.289,10.289,10.289,10.289,10.289,10.289,10.289,10.289,10.289,10.289,10.289,10.289,10.289,10.289,10.289,10.2889,10.2889,10.2889,10.2886,10.2885,10.2885,10.2885,10.2495,10.1989,10.16,10.1601,10.1406,10.0894,10.1794,10.1599,10.0191,9.9878,9.9253,9.8315,9.7886,9.7689,9.7687,9.7687,9.7684,6.4526,6.7359,7.1129,7.6284,8.1708,8.6671,9.0133,8.9479,8.7863,8.6901,8.6978,8.744,8.8055,9.2266,9.8768,10.8414,10.5312,10.3517,10.849,10.6414,10.5393,10.7879,10.8295,10.9497,11.2203,11.2484,11.2593,11.2711,11.2711,11.2695,11.269,11.2895,11.25,11.1404,11.0893,11.0117,10.8984,10.8281,10.8315,10.8787,10.8902,10.8593,10.8008,10.8008,10.8008,10.8008,10.8008,10.8008,10.8008,10.8008,10.8008,10.8008,10.8008,10.8008,10.8008,10.8008,10.7383,10.6601,10.6015,10.6093,10.6093,10.4101,10.4804,10.6015,10.3906,10.3711,10.3984,10.3086,10.289,10.289,10.289,10.289,10.289,10.289,10.289,10.289,10.289,10.289,10.289,10.289,10.289,10.289,10.289,10.289,10.2889,10.2889,10.2889,10.2889,10.2885,10.2884,10.2883,10.2914,10.2718,10.2484,10.2289,10.1508,10.1002,10.1007,10.1208,10.0895,9.9986,10.128,10.1007,9.9047,9.9477,9.9047,9.768,9.768,9.7717,9.7715,9.7715,9.7713,6.5359,6.9937,7.4938,7.7707,7.5899,7.6361,8.7478,8.6286,8.4593,9.0671,9.321,9.4287,9.4326,9.6071,9.8299,10.0727,10.409,10.7903,11.2211,11.2817,11.2621,11.2077,11.2111,11.2316,11.2598,11.2607,11.268,11.2881,11.2891,11.3005,11.3083,11.3202,11.2382,11.0703,11.0586,10.9804,10.8086,10.8008,10.8007,10.8085,10.8086,10.8086,10.8008,10.8008,10.8008,10.8008,10.8008,10.8008,10.8008,10.8008,10.8008,10.8008,10.8008,10.8008,10.8008,10.8008,10.7383,10.6719,10.6601,10.6211,10.5586,10.539,10.539,10.539,10.4414,10.4219,10.3984,10.3086,10.289,10.289,10.289,10.289,10.289,10.289,10.289,10.289,10.289,10.289,10.289,10.289,10.2889,10.2887,10.2887,10.2882,10.2916,10.2916,10.2916,10.2916,10.2916,10.2916,10.2914,10.2914,10.2211,10.1391,10.0609,9.9672,9.9199,9.9187,9.9941,9.9986,9.9125,9.9205,9.9205,9.9008,9.8266,9.7836,9.768,9.768,9.7713,9.7701,9.7701,9.7695,6.3217,6.9066,7.5292,7.7275,7.819,8.1708,9.3536,9.5134,9.4403,9.5403,9.8267,9.9786,9.7167,10.1208,10.4592,10.38,10.7293,11.0799,11.2608,11.2895,11.2892,11.2619,11.2711,11.2799,11.2799,11.29,11.3017,11.3113,11.3115,11.3081,11.3203,11.3203,11.2617,11.1406,11.0898,11.0,10.8789,10.8281,10.8008,10.8008,10.8008,10.8008,10.8008,10.8008,10.8008,10.8008,10.8008,10.8008,10.8008,10.8008,10.8008,10.8008,10.8008,10.8008,10.789,10.7383,10.6992,10.6601,10.5508,10.5312,10.5312,10.4219,10.4219,10.4492,10.3711,10.3398,10.3281,10.3008,10.289,10.2889,10.289,10.289,10.289,10.289,10.289,10.289,10.2889,10.2889,10.2888,10.2885,10.2882,10.2919,10.2919,10.2916,10.2914,10.2914,10.2914,10.2912,10.2785,10.2785,10.2587,10.211,10.1287,10.0389,9.9569,9.9179,9.8785,9.8232,9.8997,9.908,9.8244,9.9226,9.9307,9.8202,9.8398,9.8242,9.7695,9.7695,9.7692,9.7685,9.7685,9.7682,6.5575,7.0388,7.6054,7.9365,8.0921,8.4928,9.736,9.9556,9.9538,10.1616,10.3116,10.3205,10.0404,10.4194,10.7192,10.5696,10.9318,11.2405,11.2589,11.2703,11.2695,11.2695,11.2886,11.3014,11.3014,11.308,11.3203,11.3203,11.3203,11.3203,11.3203,11.289,11.2383,11.1484,11.0586,10.9804,10.8906,10.8281,10.8008,10.8008,10.8008,10.8008,10.8008,10.8008,10.8008,10.8008,10.8008,10.8008,10.8008,10.8008,10.8008,10.8008,10.8008,10.8008,10.789,10.7304,10.6797,10.6211,10.5,10.4609,10.4492,10.3281,10.3281,10.371,10.3085,10.2889,10.2889,10.2889,10.2886,10.2884,10.2888,10.2889,10.2889,10.2889,10.2889,10.2888,10.2884,10.2883,10.2882,10.2916,10.2912,10.2907,10.2907,10.2905,10.2902,10.2902,10.2902,10.29,10.281,10.2807,10.2413,10.1192,10.0407,9.9548,9.8651,9.8572,9.8338,9.7753,9.8244,9.8325,9.7714,9.886,9.8938,9.7714,9.8299,9.8299,9.7714,9.7714,9.7714,9.7714,9.7714,9.7714,7.3485,7.4782,7.7803,8.4614,8.3182,8.3678,9.7319,9.7076,9.7333,10.9301,10.7699,10.431,10.4598,10.47,10.4693,10.4889,10.9217,11.2615,11.2615,11.2793,11.2904,11.2904,11.3113,11.3203,11.3203,11.3203,11.3203,11.3203,11.3203,11.3203,11.3203,11.2383,11.1484,11.0586,10.9804,10.8906,10.8008,10.8008,10.8008,10.8008,10.8008,10.8008,10.8008,10.8008,10.8008,10.8008,10.8008,10.8008,10.8008,10.8008,10.8008,10.8008,10.8008,10.8008,10.8008,10.8008,10.6914,10.5508,10.5508,10.4414,10.289,10.289,10.2889,10.2886,10.2886,10.2882,10.2914,10.2914,10.2914,10.2914,10.2914,10.2914,10.2914,10.2914,10.2914,10.2914,10.2914,10.2914,10.2914,10.2914,10.2785,10.2816,10.2816,10.28,10.2789,10.2789,10.2789,10.2789,10.2789,10.2789,10.2203,10.0485,9.9509,9.8651,9.7792,9.7714,9.7714,9.7714,9.7714,9.7714,9.7714,9.7714,9.7714,9.7714,9.7714,9.7714,9.7714,9.7714,9.7714,9.7714,9.7714,9.7714,6.5524,7.3369,8.1344,8.0299,8.7383,9.583,10.0495,9.9514,9.9818,10.7819,10.6395,10.3799,10.3888,10.638,10.7711,10.5408,10.9416,11.2881,11.3017,11.3113,11.3119,11.3119,11.3202,11.3203,11.3203,11.3203,11.3203,11.3203,11.3203,11.289,11.2304,11.1992,11.1211,10.9687,10.9414,10.8906,10.8008,10.8008,10.8008,10.8008,10.8008,10.8008,10.8008,10.8008,10.8008,10.8008,10.8008,10.8008,10.8008,10.8008,10.8008,10.8008,10.8008,10.8008,10.789,10.7304,10.6797,10.6211,10.4999,10.4216,10.3708,10.3119,10.2882,10.2917,10.2917,10.2916,10.2914,10.2914,10.2907,10.2783,10.2783,10.2816,10.2813,10.291,10.2914,10.2912,10.2785,10.2783,10.278,10.2807,10.28,10.2796,10.2796,10.2793,10.2789,10.2789,10.2789,10.2789,10.2789,10.2281,10.1696,10.1188,9.9861,9.8885,9.8651,9.8612,9.8612,9.8612,9.8612,9.8338,9.7714,9.7714,9.7714,9.7714,9.7714,9.7714,9.7714,9.7714,9.7714,9.7714,9.7714,9.7714,7.4025,8.1066,8.7384,8.8868,9.4622,10.0688,10.3587,10.4413,10.5502,10.8997,10.781,10.6093,10.5899,10.8184,10.9483,10.7583,11.0484,11.311,11.3203,11.3203,11.3203,11.3203,11.3203,11.3203,11.3203,11.3203,11.3203,11.3203,11.289,11.25,11.1914,11.1211,11.039,10.9297,10.8984,10.8515,10.8008,10.8008,10.8008,10.8008,10.8008,10.8008,10.8008,10.8008,10.8008,10.8008,10.8008,10.8008,10.8008,10.8008,10.8008,10.8008,10.8007,10.8007,10.789,10.738,10.699,10.6598,10.5501,10.4719,10.4092,10.3502,10.3107,10.2907,10.2907,10.2902,10.29,10.29,10.2813,10.2807,10.2807,10.2796,10.2796,10.2894,10.29,10.2819,10.2807,10.2807,10.2803,10.2793,10.2789,10.2789,10.2789,10.2789,10.2789,10.2789,10.2789,10.2789,10.2789,10.2008,10.15,10.15,10.0017,9.9158,9.9509,9.9197,9.9158,9.9509,9.9197,9.8768,9.8221,9.787,9.7714,9.7714,9.7714,9.7714,9.7714,9.7714,9.7714,9.7714,9.7714,9.7714,9.0446,9.2768,9.4369,10.3893,10.2907,10.0994,10.6512,11.0216,11.2312,11.1398,11.0681,10.99,10.9293,10.9788,11.0398,11.0585,11.2109,11.3203,11.3203,11.3203,11.3203,11.3203,11.3203,11.3203,11.3203,11.3203,11.3203,11.3086,11.2304,11.1797,11.1718,11.0195,10.9297,10.9218,10.8398,10.8008,10.8008,10.8008,10.8008,10.8008,10.8008,10.8008,10.8008,10.8008,10.8008,10.8008,10.8008,10.8008,10.8008,10.8008,10.8008,10.8007,10.8005,10.8003,10.8002,10.7995,10.7483,10.6819,10.67,10.5685,10.4318,10.4201,10.3605,10.3008,10.2891,10.2999,10.2984,10.2906,10.2902,10.2893,10.2815,10.2811,10.2802,10.2802,10.2815,10.2789,10.2789,10.2789,10.2789,10.2789,10.2789,10.2789,10.2789,10.2789,10.2789,10.2789,10.2789,10.2789,10.2789,10.2086,10.1618,10.15,10.0095,9.9431,10.0212,9.9588,9.9509,10.0407,9.9588,9.9119,9.9119,9.8221,9.7714,9.7714,9.7714,9.7714,9.7714,9.7714,9.7714,9.7714,9.7714,9.7714,7.7436,8.6155,9.491,9.8454,10.3609,10.8089,10.959,11.1002,11.1387,10.9086,10.9617,10.9992,10.8593,10.9491,11.0506,11.0586,11.2109,11.3203,11.3203,11.3203,11.3203,11.3203,11.3203,11.3203,11.3203,11.3203,11.289,11.2187,11.1992,11.1289,10.9883,10.9492,10.8984,10.8281,10.8086,10.8008,10.8008,10.8008,10.8008,10.8008,10.8008,10.8008,10.8008,10.8008,10.8008,10.8008,10.8008,10.8008,10.8008,10.8008,10.8007,10.8005,10.8004,10.8001,10.7995,10.7991,10.7913,10.7598,10.6886,10.6493,10.5904,10.4486,10.4401,10.4709,10.4007,10.4315,10.4702,10.3999,10.3708,10.3393,10.2692,10.2396,10.2401,10.3014,10.3003,10.2789,10.2789,10.2789,10.2789,10.2789,10.2789,10.2789,10.2789,10.2789,10.2789,10.2789,10.2789,10.2789,10.2789,10.2593,10.2281,10.1618,10.0603,10.0095,10.029,10.0095,10.0407,10.1188,10.0485,10.0017,10.0017,9.8533,9.7714,9.7714,9.7714,9.7714,9.7714,9.7714,9.7714,9.7714,9.7714,9.7714,8.0368,8.7548,9.3842,10.0703,10.6096,10.9987,11.0507,11.1015,11.0898,10.9401,10.9606,10.9609,10.8203,10.9414,11.0586,11.0586,11.2109,11.3203,11.3203,11.3203,11.3203,11.3203,11.3203,11.3203,11.3203,11.2812,11.2383,11.1914,11.1093,11.0312,10.9297,10.8906,10.8515,10.8008,10.8008,10.8008,10.8008,10.8008,10.8008,10.8008,10.8008,10.8008,10.8008,10.8008,10.8008,10.8008,10.8007,10.8007,10.8007,10.8004,10.8002,10.7998,10.7995,10.7989,10.7982,10.8013,10.801,10.7892,10.7492,10.6981,10.6505,10.5509,10.5207,10.5,10.3995,10.4284,10.4791,10.4011,10.3906,10.4016,10.3588,10.3378,10.3403,10.3791,10.3199,10.2609,10.2998,10.2998,10.2998,10.2998,10.2998,10.2998,10.2998,10.2686,10.2492,10.2492,10.2492,10.2492,10.2492,10.211,10.1681,10.1213,10.0083,9.9654,10.0512,10.0192,10.0504,10.172,10.0582,9.992,9.992,9.8283,9.7454,9.7714,9.7714,9.7714,9.7714,9.7714,9.7714,9.7714,9.7714,9.7714,8.4986,8.9994,9.3476,10.5113,10.8711,10.9492,11.0195,11.039,11.039,11.039,10.9804,10.8984,10.8203,10.9297,11.039,11.0586,11.1914,11.3008,11.3203,11.3203,11.3203,11.3203,11.3203,11.3086,11.3008,11.2304,11.1797,11.1484,11.0117,10.9218,10.9101,10.8398,10.8008,10.8008,10.8007,10.8005,10.8005,10.7885,10.7883,10.7883,10.7881,10.7881,10.7881,10.7919,10.7883,10.7887,10.7881,10.7911,10.7904,10.7889,10.7879,10.7914,10.7899,10.789,10.7881,10.7894,10.7889,10.7889,10.7889,10.7382,10.6701,10.642,10.5784,10.5212,10.4083,10.4413,10.4918,10.3985,10.4182,10.4687,10.4609,10.4493,10.4491,10.4685,10.3496,10.2604,10.3378,10.3519,10.3519,10.3519,10.3519,10.3519,10.3519,10.2715,10.2094,10.2288,10.1899,10.1705,10.1899,10.1095,10.0512,10.0396,9.9269,9.9075,10.0512,10.0112,10.0384,10.2016,10.0501,9.9491,9.9491,9.7898,9.7177,9.7583,9.7588,9.7597,9.7616,9.7616,9.7616,9.7616,9.7667,9.7714,7.3182,8.4607,9.7435,10.5897,10.8711,10.9297,10.9414,10.9492,10.9492,10.9492,10.9414,10.8984,10.8203,10.8789,10.9687,11.0508,11.1406,11.2304,11.3086,11.3203,11.3203,11.3203,11.3203,11.289,11.2109,11.1992,11.1289,10.9804,10.9414,10.8984,10.8203,10.8086,10.8008,10.8008,10.7909,10.7801,10.7801,10.7716,10.7618,10.7618,10.7503,10.7488,10.7488,10.7408,10.7409,10.7695,10.771,10.7515,10.7294,10.7294,10.7305,10.7305,10.7295,10.7303,10.7288,10.7288,10.7316,10.7316,10.7316,10.7199,10.7005,10.6193,10.6415,10.6714,10.5784,10.6199,10.6717,10.5811,10.5486,10.5202,10.4389,10.4083,10.4176,10.4908,10.4292,10.3781,10.4299,10.44,10.44,10.44,10.44,10.44,10.44,10.3092,10.2288,10.3014,10.1278,10.0085,10.0901,10.0202,9.9424,9.8725,9.9063,9.9413,9.9646,10.0295,10.0994,10.2016,10.0501,9.9491,9.9491,9.7898,9.7037,9.709,9.71,9.7186,9.733,9.733,9.733,9.7376,9.7597,9.7714,7.4534,8.6237,9.7444,10.5312,10.789,10.8711,10.9218,10.8906,10.8711,10.9218,10.8906,10.8515,10.8086,10.8711,10.9609,11.0508,11.1289,11.2187,11.3086,11.3203,11.3008,11.25,11.25,11.2109,11.1289,11.0703,11.0117,10.9414,10.8781,10.8299,10.7909,10.7797,10.769,10.769,10.7682,10.7613,10.7613,10.7511,10.7502,10.739,10.7411,10.7393,10.7276,10.7187,10.7286,10.7402,10.7399,10.7286,10.7194,10.7199,10.7204,10.718,10.718,10.7207,10.7222,10.7222,10.7222,10.7222,10.7222,10.7222,10.7119,10.661,10.6708,10.6795,10.5796,10.6117,10.6619,10.5691,10.5687,10.5908,10.5522,10.539,10.5405,10.5713,10.5597,10.5389,10.5606,10.5211,10.4902,10.4902,10.4476,10.4106,10.3587,10.2521,10.1594,10.1516,10.0604,9.9792,9.9676,9.8903,9.8246,9.7898,9.8153,9.8578,9.9081,9.9893,10.0782,10.1594,10.0086,9.912,9.912,9.7496,9.6658,9.6786,9.6936,9.7059,9.711,9.711,9.711,9.711,9.7238,9.731,7.5279,8.4267,9.1818,10.1718,10.4804,10.6015,10.8398,10.8515,10.8086,10.8593,10.8281,10.789,10.7695,10.8398,10.9297,11.0117,11.1015,11.1914,11.2695,11.3086,11.289,11.1992,11.1914,11.1484,11.039,10.9686,10.9214,10.8902,10.8191,10.7704,10.7699,10.7604,10.7494,10.7399,10.7393,10.7286,10.7286,10.7303,10.7299,10.7204,10.7192,10.7091,10.699,10.7003,10.7003,10.7003,10.7107,10.712,10.7001,10.6984,10.6994,10.6994,10.6994,10.6994,10.6994,10.6994,10.6994,10.6994,10.6994,10.6994,10.7004,10.6791,10.6705,10.6498,10.5697,10.5905,10.629,10.5597,10.5905,10.6405,10.6405,10.6405,10.6405,10.6405,10.6405,10.6405,10.6405,10.5905,10.5405,10.5097,10.4597,10.3905,10.3097,10.202,10.1212,10.0789,9.9981,9.9288,9.8865,9.7865,9.7211,9.7211,9.7596,9.8096,9.875,9.9788,10.0712,10.1289,9.9942,9.9135,9.9135,9.748,9.6684,9.6838,9.6807,9.6837,9.6912,9.6912,9.6912,9.6912,9.6971,9.7005,6.9546,7.3243,7.7987,9.3241,9.7656,9.9961,10.6601,10.8008,10.7812,10.6992,10.75,10.7695,10.6914,10.75,10.8398,10.9218,11.0117,11.1015,11.1797,11.2695,11.289,11.1992,11.1914,11.1211,10.9492,10.9197,10.8809,10.7907,10.7691,10.7502,10.7381,10.7411,10.7305,10.7218,10.699,10.6896,10.6896,10.6807,10.6712,10.6712,10.6621,10.6487,10.6526,10.6487,10.6409,10.6506,10.6684,10.6709,10.6389,10.6389,10.6389,10.6389,10.6389,10.6389,10.6389,10.6389,10.6389,10.6389,10.6389,10.6389,10.6389,10.6407,10.6387,10.6387,10.6405,10.6405,10.6405,10.629,10.6405,10.6405,10.6405,10.6405,10.6405,10.6405,10.6405,10.6405,10.6405,10.6405,10.6097,10.529,10.5097,10.4789,10.3982,10.2404,10.1597,10.2404,9.9712,9.7904,9.8711,9.7365,9.6365,9.6365,9.7788,9.875,9.8788,10.0289,10.1289,10.1289,10.0481,9.9981,9.9981,9.8365,9.7442,9.7422,9.6728,9.6442,9.6604,9.6604,9.6604,9.6619,9.6888,9.7005,6.7181,7.0813,7.4783,8.4882,9.2187,9.7578,10.0117,10.4414,10.7812,10.6914,10.7383,10.7695,10.6914,10.7383,10.8281,10.9218,10.9609,11.0312,11.1718,11.1718,11.1404,11.0913,11.0403,10.9604,10.83,10.8113,10.7916,10.7604,10.7314,10.7105,10.708,10.6984,10.6905,10.6913,10.6785,10.6813,10.6813,10.6712,10.6679,10.6584,10.6507,10.6487,10.6389,10.6426,10.6405,10.6405,10.6488,10.6507,10.6405,10.6405,10.6405,10.6405,10.6405,10.6405,10.6405,10.6405,10.6405,10.6405,10.6405,10.6405,10.6405,10.6405,10.6405,10.6405,10.6405,10.6405,10.6405,10.6405,10.6405,10.6405,10.6405,10.6405,10.6405,10.6405,10.6405,10.6405,10.6405,10.6405,10.6097,10.529,10.4713,10.4097,10.3212,10.2097,10.1212,10.0981,9.9481,9.825,9.8019,9.698,9.6288,9.6288,9.7788,9.8788,9.8788,10.0289,10.1289,10.1289,10.0481,10.0096,10.0096,9.8442,9.7519,9.7519,9.6711,9.6361,9.6408,9.6408,9.6408,9.6408,9.6503,9.6568,6.312,6.6071,6.96,7.7695,8.4258,9.0234,9.6015,10.0898,10.4609,10.6289,10.7187,10.7383,10.6797,10.7187,10.7812,10.8711,10.9101,10.9687,11.0813,11.0695,11.0291,10.9895,10.9288,10.8503,10.7619,10.7305,10.7194,10.7194,10.6987,10.6805,10.6812,10.6691,10.6603,10.6623,10.6623,10.6623,10.6623,10.6623,10.6584,10.6506,10.6506,10.6389,10.6405,10.6405,10.6405,10.6405,10.6405,10.6405,10.6405,10.6405,10.6405,10.6405,10.6405,10.6405,10.6405,10.6405,10.6405,10.6405,10.6405,10.6405,10.6405,10.6405,10.6405,10.6405,10.6405,10.6405,10.6405,10.6405,10.6405,10.6405,10.6405,10.6405,10.6405,10.6405,10.6405,10.6405,10.6405,10.6213,10.5713,10.4905,10.3982,10.3212,10.2289,10.1712,10.1096,10.0596,9.9788,9.9019,9.8442,9.7403,9.6826,9.7096,9.8134,9.8904,9.9211,10.0519,10.1289,10.1289,10.0789,10.0481,10.0481,9.9135,9.825,9.7942,9.7134,9.6557,9.6288,9.6288,9.6288,9.6288,9.6288,9.6288,0.0,0.0,0.0,7.1601,7.3672,7.7617,9.4375,9.7226,9.8242,10.5,10.6484,10.6601,10.6719,10.6719,10.6992,10.7812,10.8711,10.9214,10.9086,10.9699,10.9817,10.8891,10.8598,10.821,10.7383,10.7003,10.6917,10.6917,10.6796,10.6583,10.6488,10.6488,10.6506,10.6405,10.6405,10.6405,10.6405,10.6405,10.6405,10.6405,10.6405,10.6405,10.6405,10.6405,10.6405,10.6405,10.6405,10.6405,10.6405,10.6405,10.6405,10.6405,10.6405,10.6405,10.6405,10.6405,10.6405,10.6405,10.6405,10.6405,10.6405,10.6405,10.6405,10.6405,10.6405,10.6405,10.6405,10.6405,10.6405,10.6405,10.6405,10.6405,10.6405,10.6405,10.6405,10.6405,10.6405,10.5713,10.4789,10.4097,10.3212,10.2289,10.152,10.1289,10.1289,10.1289,10.0596,10.0096,10.0115,9.8557,9.7827,9.8673,9.8788,9.9135,9.9981,10.0789,10.1289,10.1289,10.1289,10.1289,10.1289,10.0481,9.9712,9.8865,9.7942,9.7134,9.6326,9.6326,9.6288,9.6288,9.6288,9.6288,5.6794,0.0,0.0,0.0,0.0,0.0,7.8242,8.6367,9.3828,9.7617,10.1406,10.4297,10.5586,10.6289,10.6797,10.6992,10.7684,10.8397,10.9,10.8112,10.7402,10.7588,10.6481,10.5787,10.5891,10.5812,10.5999,10.6578,10.6488,10.6525,10.6407,10.6407,10.6387,10.6405,10.6405,10.6405,10.6405,10.6405,10.6405,10.6405,10.6405,10.6405,10.6405,10.6405,10.6405,10.6405,10.6405,10.602,10.5482,10.6097,10.6405,10.6405,10.6405,10.6405,10.6405,10.6405,10.6405,10.6405,10.6405,10.6405,10.6405,10.6405,10.6405,10.6405,10.6405,10.6405,10.6405,10.6405,10.6405,10.6405,10.6405,10.6405,10.6405,10.6405,10.6405,10.6405,10.6405,10.529,10.4212,10.3905,10.3212,10.2289,10.152,10.1289,10.1289,10.1289,10.0596,9.9865,9.925,9.8173,9.7596,9.7827,9.8404,9.9135,9.9981,10.0289,10.0712,10.1289,10.0789,10.0712,10.1289,10.0481,9.9981,9.975,9.825,9.7403,9.7173,9.6596,9.6288,9.6288,9.6288,9.6288,0.0,5.7265,5.7695,5.914,0.0,0.0,7.5547,8.2929,9.0351,9.8359,10.2383,10.4804,10.5781,10.6093,10.6211,10.6211,10.6708,10.7307,10.7782,10.6793,10.601,10.5904,10.5001,10.4487,10.4789,10.4793,10.5004,10.589,10.5907,10.602,10.6405,10.6405,10.6405,10.6405,10.6405,10.6405,10.6405,10.6405,10.6405,10.6405,10.6405,10.6405,10.6405,10.602,10.6097,10.6405,10.5713,10.529,10.5097,10.529,10.5597,10.5905,10.629,10.6405,10.6405,10.6405,10.6405,10.6405,10.6405,10.6405,10.6405,10.6405,10.6405,10.6405,10.6405,10.6405,10.6405,10.6405,10.6405,10.6405,10.6405,10.6405,10.6405,10.6405,10.6405,10.6405,10.6405,10.529,10.4289,10.3982,10.2904,10.1904,10.1404,10.1289,10.1289,10.1289,10.0904,10.0289,9.9442,9.8596,9.8173,9.8557,9.8711,9.9288,10.0481,10.0596,10.0789,10.1289,10.0904,10.0789,10.1289,10.0481,10.0096,10.0096,9.875,9.7865,9.7519,9.6711,9.6288,9.6288,9.6288,9.6288,5.8086,0.0,0.0,6.0547,5.9648,0.0,7.8242,8.1914,8.5898,9.9961,10.3281,10.3789,10.4219,10.3711,10.3203,10.3281,10.4304,10.5212,10.6009,10.5793,10.5308,10.4283,10.3886,10.3791,10.381,10.381,10.4097,10.4905,10.4982,10.5482,10.6405,10.6405,10.6405,10.6405,10.6405,10.6405,10.6405,10.6405,10.6405,10.629,10.6405,10.629,10.6097,10.5405,10.5482,10.602,10.4482,10.4289,10.4789,10.4212,10.4289,10.5097,10.5905,10.6213,10.6097,10.629,10.629,10.629,10.6405,10.6405,10.6405,10.6405,10.6405,10.6405,10.6405,10.6405,10.6405,10.6405,10.6405,10.6405,10.6405,10.6405,10.6405,10.6405,10.6405,10.6405,10.6405,10.5713,10.4905,10.4192,10.2577,10.1404,10.1289,10.1289,10.1289,10.1289,10.1212,10.0904,10.0173,9.9327,9.9135,9.9981,9.9327,9.9481,10.1212,10.1096,10.1096,10.1289,10.1212,10.1212,10.1289,10.0481,10.0096,10.0212,9.9288,9.8327,9.7365,9.6634,9.6288,9.6288,9.6288,9.6288,6.0586,5.8828,5.8672,5.8633,5.8789,0.0,6.2539,6.7344,7.2656,7.7734,8.207,8.582,8.8633,8.9023,8.914,8.9844,9.4378,9.9734,10.529,10.5112,10.428,10.4117,10.2808,10.2212,10.279,10.2924,10.3212,10.4097,10.4713,10.5482,10.6405,10.6405,10.6405,10.6405,10.6405,10.6405,10.6405,10.6405,10.602,10.5405,10.6097,10.5713,10.4405,10.4905,10.4789,10.4405,10.3982,10.3597,10.3097,10.3712,10.3982,10.4212,10.4982,10.4982,10.4597,10.5905,10.602,10.5482,10.6213,10.6405,10.6405,10.6405,10.6405,10.6405,10.6405,10.6405,10.6405,10.6405,10.6405,10.6405,10.6405,10.6405,10.6405,10.6405,10.6405,10.6405,10.6405,10.5713,10.5,10.4782,10.3421,10.2097,10.1404,10.1289,10.1289,10.1289,10.0712,10.0289,10.0096,9.9327,9.9135,9.9981,9.9327,9.9481,10.1212,10.0096,9.9865,10.1212,10.0712,10.0596,10.1289,10.0481,10.0404,10.1096,9.9558,9.8057,9.6519,9.6365,9.6288,9.6288,9.6288,9.6288,6.1172,5.8867,5.8633,5.9062,5.8867,0.0,0.0,6.6367,7.043,7.5976,7.9219,8.1523,8.3281,8.3594,8.375,8.4179,8.9983,9.4794,9.579,10.0183,10.3212,10.2675,10.1905,10.1501,10.1904,10.202,10.252,10.3789,10.4597,10.5482,10.6405,10.6405,10.6213,10.579,10.579,10.5597,10.5213,10.5213,10.4905,10.4482,10.4905,10.4713,10.3905,10.3905,10.3905,10.3905,10.2981,10.2597,10.2597,10.2597,10.2597,10.2712,10.3982,10.4482,10.4597,10.5405,10.579,10.579,10.6213,10.6405,10.6405,10.6405,10.6405,10.6405,10.6405,10.6405,10.6405,10.6405,10.6405,10.6405,10.6405,10.6405,10.6385,10.6284,10.6322,10.6301,10.6199,10.5892,10.5409,10.4884,10.4198,10.3416,10.2612,10.2595,10.2289,10.1404,10.0981,10.0404,9.9558,9.9058,9.9135,9.9981,9.9712,9.9942,10.1212,10.0519,10.0404,10.1212,10.0481,10.0289,10.0712,9.9481,9.8981,9.9404,9.9019,9.8173,9.6903,9.6519,9.6288,9.6288,9.6288,9.6288,6.1952,5.9297,5.9101,5.9961,5.9375,6.0117,0.0,0.0,0.0,7.5976,7.7617,7.7851,7.7851,7.7969,7.8125,7.832,8.4434,8.7828,8.3798,9.2263,9.8755,9.8492,10.0115,10.0885,9.998,9.9692,10.0712,10.3405,10.3289,10.3982,10.579,10.6097,10.579,10.4905,10.4905,10.4597,10.3905,10.3905,10.3789,10.3712,10.3789,10.3712,10.3405,10.2789,10.2904,10.3289,10.1904,10.1712,10.2289,10.1597,10.1289,10.152,10.3212,10.4097,10.4405,10.5097,10.5597,10.602,10.629,10.6405,10.6405,10.6405,10.6405,10.6405,10.6405,10.6405,10.6405,10.6423,10.6402,10.6402,10.6305,10.6305,10.6322,10.6177,10.6194,10.6096,10.6007,10.5985,10.5793,10.5096,10.5004,10.4703,10.3814,10.359,10.2998,10.1519,10.098,10.0423,9.9211,9.8904,9.9173,10.0212,10.0173,10.0404,10.1212,10.1212,10.1096,10.1289,10.0712,10.0289,10.0096,9.8596,9.7596,9.7288,9.8096,9.8134,9.7288,9.6634,9.6288,9.6288,9.6288,9.6288,6.5113,6.1914,6.1914,5.9844,6.0312,6.0703,5.8555,0.0,6.0195,5.9648,0.0,6.1836,6.1836,0.0,0.0,6.3905,7.0313,7.4994,7.4449,8.0514,8.5858,8.8001,9.5991,9.9613,9.5245,9.4022,9.6057,10.2289,9.8673,9.8519,10.3905,10.4905,10.4905,10.4097,10.3982,10.3982,10.3905,10.3905,10.3482,10.2789,10.3482,10.3097,10.1597,10.2289,10.2212,10.1597,10.1404,10.1404,10.1404,10.1289,10.1289,10.152,10.3212,10.2981,10.2097,10.5097,10.5405,10.4405,10.5905,10.6405,10.6405,10.6405,10.6405,10.6405,10.6405,10.6405,10.6423,10.628,10.622,10.6199,10.609,10.5991,10.5991,10.6007,10.6007,10.6007,10.5985,10.5985,10.6001,10.5809,10.5802,10.541,10.3799,10.2901,10.21,10.1321,9.9882,9.9153,9.9865,9.9288,9.9404,10.1019,10.0481,10.0404,10.1212,10.0596,10.0481,10.1289,10.1212,10.0789,10.0096,9.9173,9.7942,9.648,9.725,9.725,9.6442,9.6326,9.6288,9.6288,9.6288,9.6288,6.367,6.4011,6.6058,6.1131,6.2955,6.4494,5.867,5.7539,5.7617,5.7383,0.0,0.0,0.0,0.0,0.0,0.0,6.6088,6.964,6.6787,7.4546,8.1646,8.4623,8.821,9.1181,9.2977,9.409,9.6903,10.2212,9.925,9.9173,10.3712,10.3712,10.3482,10.3212,10.2712,10.2404,10.2404,10.2404,10.2212,10.1904,10.2212,10.202,10.1289,10.1712,10.1597,10.1289,10.1289,10.1289,10.1289,10.1289,10.1289,10.1404,10.2712,10.2712,10.2212,10.3712,10.4097,10.4097,10.5213,10.5597,10.5713,10.6213,10.6326,10.6301,10.6301,10.6182,10.6194,10.6112,10.609,10.609,10.6007,10.5678,10.5295,10.5204,10.5181,10.522,10.5089,10.551,10.5792,10.5821,10.5807,10.5601,10.4912,10.4208,10.3092,10.1294,10.0411,9.9972,9.988,9.9633,9.9903,10.1075,10.098,10.0904,10.1289,10.1019,10.0904,10.1289,10.0404,9.9481,9.8634,9.825,9.748,9.6326,9.7096,9.7096,9.6288,9.6288,9.6288,9.6288,9.6288,9.6288,6.6221,6.751,6.9497,6.1673,6.306,6.4704,5.8278,5.6718,5.6718,5.7109,5.7226,0.0,0.0,0.0,0.0,0.0,0.0,6.5242,6.1219,6.8214,7.4994,7.8331,7.9995,8.3287,8.9475,9.1095,9.4018,9.9442,9.7673,9.8365,10.2904,10.2597,10.2212,10.2212,10.1404,10.1096,10.1289,10.1289,10.1289,10.1289,10.1289,10.1289,10.1289,10.1289,10.1289,10.1289,10.1289,10.1289,10.1289,10.1289,10.1308,10.1288,10.2019,10.2191,10.2209,10.2808,10.3405,10.3982,10.4789,10.5192,10.5518,10.6095,10.628,10.6117,10.6117,10.609,10.6023,10.5978,10.6016,10.6016,10.5894,10.5511,10.499,10.4897,10.4912,10.4927,10.4793,10.5303,10.5724,10.5724,10.5724,10.5609,10.5112,10.4706,10.3694,10.1609,10.0919,10.0382,9.9773,9.9759,10.0225,10.1091,10.121,10.1288,10.1289,10.1289,10.1289,10.1289,9.9942,9.8865,9.825,9.775,9.725,9.6634,9.698,9.6865,9.6288,9.6288,9.6288,9.6288,9.6288,9.6288,7.6278,7.3258,7.1463,6.069,5.8747,5.8552,5.4959,5.5428,5.6364,5.5539,5.7335,5.8779,5.8037,0.0,0.0,0.0,0.0,0.0,0.0,5.9595,6.207,6.5489,7.2162,7.8426,8.3394,8.1747,8.3785,9.2172,9.121,9.348,10.1019,10.1404,10.1289,10.1289,10.0596,10.0481,10.1289,10.1289,10.1289,10.1289,10.1289,10.1289,10.1289,10.1289,10.1289,10.1289,10.1289,10.1289,10.1289,10.1289,10.1307,10.1188,10.1188,10.1203,10.1311,10.3191,10.3905,10.3982,10.4789,10.5613,10.6199,10.6199,10.6096,10.5985,10.5985,10.5985,10.6001,10.5886,10.5901,10.5892,10.5696,10.5686,10.5686,10.5686,10.5686,10.5686,10.5686,10.5724,10.5724,10.5724,10.5724,10.5189,10.3584,10.3302,10.2982,10.218,10.0595,9.9606,9.9675,9.9696,10.0084,10.1091,10.1188,10.119,10.1308,10.1289,10.1289,10.1289,10.0481,9.9981,9.9981,9.8404,9.748,9.7442,9.6711,9.6326,9.6288,9.6288,9.6288,9.6288,9.6288,9.6288,8.1474,8.3726,8.4044,7.038,6.9618,6.935,5.8258,5.6166,5.636,5.5461,5.6905,5.8193,5.7875,0.0,0.0,0.0,0.0,0.0,0.0,5.6409,5.8016,5.9723,6.7525,7.3586,7.5837,8.1362,8.6709,9.1287,9.3672,9.6788,10.1096,10.0212,9.9904,10.0481,9.9135,9.9058,10.0481,10.0481,10.0789,10.1289,10.1289,10.1289,10.1289,10.1289,10.1289,10.1308,10.1287,10.119,10.119,10.1109,10.1106,10.1102,10.1102,10.1004,10.1098,10.1699,10.2009,10.2201,10.3622,10.4884,10.609,10.609,10.6001,10.5909,10.5909,10.5878,10.5807,10.5797,10.5797,10.5811,10.5686,10.5303,10.4807,10.4807,10.4807,10.4807,10.4807,10.5303,10.5724,10.5724,10.5724,10.5303,10.4195,10.3584,10.25,10.0597,10.0291,10.01,9.9571,9.9983,10.059,10.1004,10.1088,10.1208,10.1308,10.1289,10.1289,10.1289,10.0481,9.9827,9.925,9.8134,9.725,9.6711,9.6442,9.6288,9.6288,9.6288,9.6288,9.6288,9.5711,9.5749,8.7744,9.0273,9.0425,7.7442,7.6794,7.5895,6.263,6.0297,6.0687,5.9825,5.8864,5.984,6.525,0.0,0.0,0.0,0.0,0.0,0.0,5.4721,5.5754,5.657,6.2953,6.859,7.186,7.7053,8.3362,9.1095,9.2787,9.5749,10.1019,9.9981,9.9519,10.0096,9.8711,9.8481,9.9635,9.9904,10.0288,10.0904,10.1095,10.119,10.1307,10.119,10.1208,10.1208,10.1109,10.1126,10.1106,10.1004,10.0979,10.0897,10.0897,10.0913,10.0891,10.1017,10.1383,10.2112,10.3799,10.5119,10.5993,10.5993,10.5924,10.5807,10.5807,10.5797,10.5724,10.5724,10.5724,10.5724,10.5724,10.5303,10.4921,10.4921,10.4921,10.4921,10.4921,10.5303,10.5724,10.5724,10.5418,10.4998,10.4119,10.3317,10.2209,10.0489,10.0489,10.0413,9.9878,10.0406,10.0802,10.0897,10.1004,10.1206,10.1308,10.1289,10.1289,10.1289,10.0789,10.0096,9.9288,9.8442,9.7711,9.7211,9.6596,9.6442,9.6749,9.6442,9.6134,9.5826,9.5249,9.5288]}]]